[[{"header":{"parameterUnit":"m.s-1","parameterCategory":1,"la1":30.6,"la2":28.766,"lo1":-90.7593,"lo2":-88.6598,"dy":0.0162,"dx":0.0183,"nx":116,"ny":114,"refTime":"2023-09-08T06:00:00:Z","depth":0,"parameterNumber":2,"parameterNumberName":"U-component_of_WINDS"},"data":[0.0,0.0,0.0,0.0,0.0,0.0,0.0,0.0,0.0,0.0,0.0,0.0,0.0,0.0,0.0,0.0,0.0,0.0,0.0,0.0,0.0,0.0,0.0,0.0,0.0,0.0,0.0,0.0,0.0,0.0,0.0,0.0,0.0,0.0,0.0,0.0,0.0,0.0,0.0,0.0,0.0,0.0,0.0,0.0,0.0,0.0,0.0,0.0,0.0,0.0,0.0,0.0,0.0,0.0,0.0,0.0,0.0,0.0,0.0,0.0,0.0,0.0,0.0,0.0,0.0,0.0,0.0,0.0,0.0,0.0,0.0,0.0,0.0,0.0,0.0,0.0,0.0,0.0,0.0,0.0,0.0,0.0,0.0,0.0,0.0,0.0,0.0,0.0,0.0,0.0,0.0,0.0,0.0,0.0,0.0,0.0,0.0,0.0,0.0,0.0,0.0,0.0,0.0,0.0,0.0,0.0,0.0,0.0,0.0,0.0,0.0,0.0,0.0,0.0,0.0,0.0,0.0,0.0,0.0,0.0,0.0,0.0,0.0,0.0,0.0,0.0,0.0,0.0,0.0,0.0,0.0,0.0,0.0,0.0,0.0,0.0,0.0,0.0,0.0,0.0,0.0,0.0,0.0,0.0,0.0,0.0,0.0,0.0,0.0,0.0,0.0,0.0,0.0,0.0,0.0,0.0,0.0,0.0,0.0,0.0,0.0,0.0,0.0,0.0,0.0,0.0,0.0,0.0,0.0,0.0,0.0,0.0,0.0,0.0,0.0,0.0,0.0,0.0,0.0,0.0,0.0,0.0,0.0,0.0,0.0,0.0,0.0,0.0,0.0,0.0,0.0,0.0,0.0,0.0,0.0,0.0,0.0,0.0,0.0,0.0,0.0,0.0,0.0,0.0,0.0,0.0,0.0,0.0,0.0,0.0,0.0,0.0,0.0,0.0,0.0,0.0,0.0,0.0,0.0,0.0,0.0,0.0,0.0,0.0,0.0,0.0,0.0,0.0,0.0,0.0,0.0,0.0,0.0,0.0,0.0,0.0,0.0,0.0,0.0,0.0,0.0,0.0,0.0,0.0,0.0,0.0,0.0,0.0,0.0,0.0,0.0,0.0,0.0,0.0,0.0,0.0,0.0,0.0,0.0,0.0,0.0,0.0,0.0,0.0,0.0,0.0,0.0,0.0,0.0,0.0,0.0,0.0,0.0,0.0,0.0,0.0,0.0,0.0,0.0,0.0,0.0,0.0,0.0,0.0,0.0,0.0,0.0,0.0,0.0,0.0,0.0,0.0,0.0,0.0,0.0,0.0,0.0,0.0,0.0,0.0,0.0,0.0,0.0,0.0,0.0,0.0,0.0,0.0,0.0,0.0,0.0,0.0,0.0,0.0,0.0,0.0,0.0,0.0,0.0,0.0,0.0,0.0,0.0,0.0,0.0,0.0,0.0,0.0,0.0,0.0,0.0,0.0,0.0,0.0,0.0,0.0,0.0,0.0,0.0,0.0,0.0,0.0,0.0,0.0,0.0,0.0,0.0,0.0,0.0,0.0,0.0,0.0,0.0,0.0,0.0,0.0,0.0,0.0,0.0,0.0,0.0,0.0,0.0,0.0,0.0,0.0,0.0,0.0,0.0,0.0,0.0,0.0,0.0,0.0,0.0,0.0,0.0,0.0,0.0,0.0,0.0,0.0,0.0,0.0,0.0,0.0,0.0,0.0,0.0,0.0,0.0,0.0,0.0,0.0,0.0,0.0,0.0,0.0,0.0,0.0,0.0,0.0,0.0,0.0,0.0,0.0,0.0,0.0,0.0,0.0,0.0,0.0,0.0,0.0,0.0,0.0,0.0,0.0,0.0,0.0,0.0,0.0,0.0,0.0,0.0,0.0,0.0,0.0,0.0,0.0,0.0,0.0,0.0,0.0,0.0,0.0,0.0,0.0,0.0,0.0,0.0,0.0,0.0,0.0,0.0,0.0,0.0,0.0,0.0,0.0,0.0,0.0,0.0,0.0,0.0,0.0,0.0,0.0,0.0,0.0,0.0,0.0,0.0,0.0,0.0,0.0,0.0,0.0,0.0,0.0,0.0,0.0,0.0,0.0,0.0,0.0,0.0,0.0,0.0,0.0,0.0,0.0,0.0,0.0,0.0,0.0,0.0,0.0,0.0,0.0,0.0,0.0,0.0,0.0,0.0,0.0,0.0,0.0,0.0,0.0,0.0,0.0,0.0,0.0,0.0,0.0,0.0,0.0,0.0,0.0,0.0,0.0,0.0,0.0,0.0,0.0,0.0,0.0,0.0,0.0,0.0,0.0,0.0,0.0,0.0,0.0,0.0,0.0,0.0,0.0,0.0,0.0,0.0,0.0,0.0,0.0,0.0,0.0,0.0,0.0,0.0,0.0,0.0,0.0,0.0,0.0,0.0,0.0,0.0,0.0,0.0,0.0,0.0,0.0,0.0,0.0,0.0,0.0,0.0,0.0,0.0,0.0,0.0,0.0,0.0,0.0,0.0,0.0,0.0,0.0,0.0,0.0,0.0,0.0,0.0,0.0,0.0,0.0,0.0,0.0,0.0,0.0,0.0,0.0,0.0,0.0,0.0,0.0,0.0,0.0,0.0,0.0,0.0,0.0,0.0,0.0,0.0,0.0,0.0,0.0,0.0,0.0,0.0,0.0,0.0,0.0,0.0,0.0,0.0,0.0,0.0,0.0,0.0,0.0,0.0,0.0,0.0,0.0,0.0,0.0,0.0,0.0,0.0,0.0,0.0,0.0,0.0,0.0,0.0,0.0,0.0,0.0,0.0,0.0,0.0,0.0,0.0,0.0,0.0,0.0,0.0,0.0,0.0,0.0,0.0,0.0,0.0,0.0,0.0,0.0,0.0,0.0,0.0,0.0,0.0,0.0,0.0,0.0,0.0,0.0,0.0,0.0,0.0,0.0,0.0,0.0,0.0,0.0,0.0,0.0,0.0,0.0,0.0,0.0,0.0,0.0,0.0,0.0,0.0,0.0,0.0,0.0,0.0,0.0,0.0,0.0,0.0,0.0,0.0,0.0,0.0,0.0,0.0,0.0,0.0,0.0,0.0,0.0,0.0,0.0,0.0,0.0,0.0,0.0,0.0,0.0,0.0,0.0,0.0,0.0,0.0,0.0,0.0,0.0,0.0,0.0,0.0,0.0,0.0,0.0,0.0,0.0,0.0,0.0,0.0,0.0,0.0,0.0,0.0,0.0,0.0,0.0,0.0,0.0,0.0,0.0,0.0,0.0,0.0,0.0,0.0,0.0,0.0,0.0,0.0,0.0,0.0,0.0,0.0,0.0,0.0,0.0,0.0,0.0,0.0,0.0,0.0,0.0,0.0,0.0,0.0,0.0,0.0,0.0,0.0,0.0,0.0,0.0,0.0,0.0,0.0,0.0,0.0,0.0,0.0,0.0,0.0,0.0,0.0,0.0,0.0,0.0,0.0,0.0,0.0,0.0,0.0,0.0,0.0,0.0,0.0,0.0,0.0,0.0,0.0,0.0,0.0,0.0,0.0,0.0,0.0,0.0,0.0,0.0,0.0,0.0,0.0,0.0,0.0,0.0,0.0,0.0,0.0,0.0,0.0,0.0,0.0,0.0,0.0,0.0,0.0,0.0,0.0,0.0,0.0,0.0,0.0,0.0,0.0,0.0,0.0,0.0,0.0,0.0,0.0,0.0,0.0,0.0,0.0,0.0,0.0,0.0,0.0,0.0,0.0,0.0,0.0,0.0,0.0,0.0,0.0,0.0,0.0,0.0,0.0,0.0,0.0,0.0,0.0,0.0,0.0,0.0,0.0,0.0,0.0,0.0,0.0,0.0,0.0,0.0,0.0,0.0,0.0,0.0,0.0,0.0,0.0,0.0,0.0,0.0,0.0,0.0,0.0,0.0,0.0,0.0,0.0,0.0,0.0,0.0,0.0,0.0,0.0,0.0,0.0,0.0,0.0,0.0,0.0,0.0,0.0,0.0,0.0,0.0,0.0,0.0,0.0,0.0,0.0,0.0,0.0,0.0,0.0,0.0,0.0,0.0,0.0,0.0,0.0,0.0,0.0,0.0,0.0,0.0,0.0,0.0,0.0,0.0,0.0,0.0,0.0,0.0,0.0,0.0,0.0,0.0,0.0,0.0,0.0,0.0,0.0,0.0,0.0,0.0,0.0,0.0,0.0,0.0,0.0,0.0,0.0,0.0,0.0,0.0,0.0,0.0,0.0,0.0,0.0,0.0,0.0,0.0,0.0,0.0,0.0,0.0,0.0,0.0,0.0,0.0,0.0,0.0,0.0,0.0,0.0,0.0,0.0,0.0,0.0,0.0,0.0,0.0,0.0,0.0,0.0,0.0,0.0,0.0,0.0,0.0,0.0,0.0,0.0,0.0,0.0,0.0,0.0,0.0,0.0,0.0,0.0,0.0,0.0,0.0,0.0,0.0,0.0,0.0,0.0,0.0,0.0,0.0,0.0,0.0,0.0,0.0,0.0,0.0,0.0,0.0,0.0,0.0,0.0,0.0,0.0,0.0,0.0,0.0,0.0,0.0,0.0,0.0,0.0,0.0,0.0,0.0,0.0,0.0,0.0,0.0,0.0,0.0,0.0,0.0,0.0,0.0,0.0,0.0,0.0,0.0,0.0,0.0,0.0,0.0,0.0,0.0,0.0,0.0,0.0,0.0,0.0,0.0,0.0,0.0,0.0,0.0,0.0,0.0,0.0,0.0,0.0,0.0,0.0,0.0,0.0,0.0,0.0,0.0,0.0,0.0,0.0,0.0,0.0,0.0,0.0,0.0,0.0,0.0,0.0,0.0,0.0,0.0,0.0,0.0,0.0,0.0,0.0,0.0,0.0,0.0,0.0,0.0,0.0,0.0,0.0,0.0,0.0,0.0,0.0,0.0,0.0,0.0,0.0,0.0,0.0,0.0,0.0,0.0,0.0,0.0,0.0,0.0,0.0,0.0,0.0,0.0,0.0,0.0,0.0,0.0,0.0,0.0,0.0,0.0,0.0,0.0,0.0,0.0,0.0,0.0,0.0,0.0,0.0,0.0,0.0,0.0,0.0,0.0,0.0,0.0,0.0,0.0,0.0,0.0,0.0,0.0,0.0,0.0,0.0,0.0,0.0,0.0,0.0,0.0,0.0,0.0,0.0,0.0,0.0,0.0,0.0,0.0,0.0,0.0,0.0,0.0,0.0,0.0,0.0,0.0,0.0,0.0,0.0,0.0,0.0,0.0,0.0,0.0,0.0,0.0,0.0,0.0,0.0,0.0,0.0,0.0,0.0,0.0,0.0,0.0,0.0,0.0,0.0,0.0,0.0,0.0,0.0,0.0,0.0,0.0,0.0,0.0,0.0,0.0,0.0,0.0,0.0,0.0,0.0,0.0,0.0,0.0,0.0,0.0,0.0,0.0,0.0,0.0,0.0,0.0,0.0,0.0,0.0,0.0,0.0,0.0,0.0,0.0,0.0,0.0,0.0,0.0,0.0,0.0,0.0,0.0,0.0,0.0,0.0,0.0,0.0,0.0,0.0,0.0,0.0,0.0,0.0,0.0,0.0,0.0,0.0,0.0,0.0,0.0,0.0,0.0,0.0,0.0,0.0,0.0,0.0,0.0,0.0,0.0,0.0,0.0,0.0,0.0,0.0,0.0,0.0,0.0,0.0,0.0,0.0,0.0,0.0,0.0,0.0,0.0,0.0,0.0,0.0,0.0,0.0,0.0,0.0,0.0,0.0,0.0,0.0,0.0,0.0,0.0,0.0,0.0,0.0,0.0,0.0,0.0,0.0,0.0,0.0,0.0,0.0,0.0,0.0,0.0,0.0,0.0,0.0,0.0,0.0,0.0,0.0,0.0,0.0,0.0,0.0,0.0,0.0,0.0,0.0,0.0,0.0,0.0,0.0,0.0,0.0,0.0,0.0,0.0,0.0,0.0,0.0,0.0,0.0,0.0,0.0,0.0,0.0,0.0,0.0,0.0,0.0,0.0,0.0,0.0,0.0,0.0,0.0,0.0,0.0,0.0,0.0,0.0,0.0,0.0,0.0,0.0,0.0,0.0,0.0,0.0,0.0,0.0,0.0,0.0,0.0,0.0,-2.3856,0.0,0.0,0.0,0.0,0.0,0.0,0.0,0.0,0.0,0.0,0.0,0.0,0.0,0.0,0.0,0.0,0.0,0.0,0.0,0.0,0.0,0.0,0.0,0.0,0.0,0.0,0.0,0.0,0.0,0.0,0.0,0.0,0.0,0.0,0.0,0.0,0.0,0.0,0.0,2.3454,2.1485,1.904,1.89,1.8732,1.8532,0.0,0.0,0.0,0.0,0.0,0.0,0.0,0.0,0.0,0.0,0.0,0.0,0.0,0.0,0.0,0.0,0.0,0.0,0.0,0.0,0.0,0.0,0.0,0.0,0.0,0.0,0.0,0.0,0.0,0.0,0.0,0.0,0.0,0.0,0.0,0.0,0.0,0.0,0.0,0.0,0.0,0.0,0.0,0.0,0.0,0.0,0.0,0.0,0.0,0.0,0.0,0.0,0.0,0.0,0.0,0.0,0.0,0.0,0.0,0.0,0.0,0.0,0.0,0.0,0.0,0.0,0.0,0.0,0.0,0.0,0.0,-2.4467,0.0,0.0,0.0,0.0,0.0,0.0,0.0,0.0,0.0,0.0,0.0,0.0,0.0,0.0,0.0,0.0,0.0,0.0,0.0,0.0,0.0,0.0,0.0,0.0,2.5699,2.57,2.5694,0.0,0.0,0.0,0.0,0.0,0.0,0.0,0.0,2.5363,2.5159,2.4832,2.204,1.8997,1.5735,1.5109,1.5201,1.5918,1.5903,0.0,0.0,0.0,0.0,0.0,0.0,0.0,0.0,0.0,0.0,0.0,0.0,0.0,0.0,0.0,0.0,0.0,0.0,0.0,0.0,0.0,0.0,0.0,0.0,0.0,0.0,0.0,0.0,0.0,0.0,0.0,0.0,0.0,0.0,0.0,0.0,0.0,0.0,0.0,0.0,0.0,0.0,0.0,0.0,0.0,0.0,0.0,0.0,0.0,0.0,0.0,0.0,0.0,0.0,0.0,0.0,0.0,0.0,0.0,0.0,0.0,0.0,0.0,-2.8484,-2.8695,-2.9075,-2.9075,-2.9075,-2.8949,-2.645,-2.5149,-2.4751,0.0,0.0,0.0,0.0,0.0,0.0,0.0,0.0,0.0,0.0,0.0,0.0,0.0,0.0,0.0,0.0,0.0,0.0,0.0,0.0,0.0,0.0,2.5698,2.5709,2.5709,2.5696,2.5696,0.0,0.0,0.0,0.0,0.0,0.0,2.5586,2.5398,2.5194,2.4976,2.1404,1.8979,1.7604,1.5005,1.3159,1.2014,1.3113,1.3437,1.3085,0.0,0.0,0.0,0.0,0.0,0.0,0.0,0.0,0.0,0.0,0.0,0.0,0.0,0.0,0.0,0.0,0.0,0.0,0.0,0.0,0.0,0.0,0.0,0.0,0.0,0.0,0.0,0.0,0.0,0.0,0.0,0.0,0.0,0.0,0.0,0.0,0.0,0.0,0.0,0.0,0.0,-2.264,-2.3385,0.0,0.0,0.0,0.0,0.0,0.0,0.0,0.0,0.0,0.0,0.0,0.0,0.0,0.0,-2.8318,-2.9307,-2.9547,-2.9011,-2.9611,-2.9627,-2.9075,-2.9075,-2.9075,-2.9028,-2.8065,0.0,-2.5691,-2.5592,0.0,0.0,0.0,0.0,0.0,0.0,0.0,0.0,0.0,0.0,0.0,0.0,0.0,0.0,0.0,0.0,0.0,0.0,0.0,0.0,0.0,2.5693,2.5691,2.5699,2.6151,2.621,2.5677,0.0,0.0,0.0,0.0,2.5579,2.5593,2.5513,2.3882,2.068,1.9022,1.6487,1.3145,1.1872,1.0519,0.9115,0.7806,0.8577,1.0817,0.9571,0.0,0.0,0.0,0.0,0.0,0.0,0.0,0.0,0.0,0.0,0.0,0.0,0.0,0.0,0.0,0.0,0.0,0.0,0.0,0.0,0.0,0.0,0.0,0.0,0.0,0.0,0.0,0.0,0.0,0.0,0.0,0.0,0.0,0.0,0.0,0.0,0.0,0.0,0.0,-2.2712,-2.3729,-2.361,-2.3939,-2.4029,0.0,0.0,0.0,0.0,0.0,0.0,0.0,0.0,0.0,-2.7944,-2.8434,-2.9309,-3.0577,-3.1098,-3.1397,-3.1476,-3.1792,-3.1776,-3.1476,-3.1476,-3.1476,-3.1413,-3.0322,-2.9012,-2.7504,-2.5864,-2.4561,-2.3538,0.0,0.0,0.0,0.0,-2.3748,-2.3692,0.0,0.0,0.0,0.0,0.0,0.0,0.0,0.0,0.0,0.0,0.0,0.0,2.5707,2.5907,2.6031,2.6035,2.6638,2.6697,2.5995,2.6335,0.0,0.0,0.0,2.5579,2.5593,2.5757,2.3338,1.8269,1.7324,1.438,0.9538,0.851,0.7127,0.5521,0.3074,0.4218,0.7907,0.5971,0.4689,0.3892,0.0,0.0,0.0,0.0,0.0,0.0,0.0,0.0,0.0,0.0,0.0,0.0,0.0,0.0,0.0,0.0,0.0,0.0,0.0,0.0,0.0,0.0,0.0,0.0,0.0,0.0,0.0,0.0,0.0,0.0,0.0,0.0,0.0,0.0,0.0,0.0,0.0,-2.3385,-2.4328,-2.3684,-2.4164,-2.4313,0.0,0.0,0.0,0.0,0.0,0.0,-2.6367,-2.7379,-2.8405,-2.9419,-2.98,-3.0703,-3.2301,-3.244,-3.2803,-3.3309,-3.3309,-3.3309,-3.3309,-3.3309,-3.3309,-3.323,-3.1823,-3.0479,-2.9108,-2.6596,-2.4873,-2.3795,-2.3336,-2.3026,-2.2871,-2.3363,-2.3563,-2.3563,0.0,0.0,0.0,0.0,0.0,0.0,0.0,0.0,0.0,0.0,0.0,2.5707,2.5707,2.6443,2.6933,2.6933,2.6971,2.6983,2.6933,2.6142,2.5642,2.56,2.5538,2.5537,2.5606,2.6165,2.4606,2.0813,1.756,1.3919,0.9883,0.5834,0.2671,0.0376,0.0499,0.1766,0.3706,0.1814,0.071,0.0119,-0.0334,0.0,0.0,0.0,0.0,0.0,0.0,0.0,0.0,0.0,0.0,0.0,0.0,0.0,0.0,0.0,0.0,0.0,0.0,0.0,0.0,0.0,0.0,0.0,0.0,0.0,0.0,0.0,0.0,0.0,0.0,0.0,0.0,0.0,0.0,0.0,0.0,0.0,0.0,-2.3684,-2.4149,0.0,0.0,0.0,0.0,-2.4819,-2.5655,-2.6467,-2.718,-2.808,-2.889,-2.9648,-3.0907,-3.1795,-3.2317,-3.2929,-3.3261,-3.3309,-3.3309,-3.3309,-3.3309,-3.3309,-3.3309,-3.323,-3.1823,-3.0796,-3.0006,-2.8263,-2.6349,-2.4498,-2.4976,-2.4764,-2.421,-2.4241,-2.4256,-2.4256,0.0,0.0,0.0,0.0,0.0,0.0,0.0,0.0,0.0,2.5705,2.5707,2.5891,2.6416,2.6786,2.7206,2.7721,2.7765,2.7537,2.6974,2.6655,2.6211,2.5559,2.5595,2.5887,2.6421,2.6483,2.3842,1.8437,1.6353,1.1569,0.4216,0.0069,-0.256,-0.4004,-0.926,-0.9565,-0.6089,-0.3895,-0.364,-0.4727,-0.4709,-0.4875,0.0,0.0,0.0,0.0,0.0,0.0,0.0,0.0,0.0,0.0,0.0,0.0,0.0,0.0,0.0,0.0,0.0,0.0,0.0,0.0,0.0,0.0,0.0,0.0,0.0,0.0,0.0,0.0,0.0,0.0,0.0,0.0,0.0,0.0,0.0,0.0,0.0,-2.4926,-2.5448,0.0,0.0,-2.5491,-2.5312,-2.5601,-2.6318,-2.6995,-2.7727,-2.871,-2.9882,-3.1357,-3.186,-3.2573,-3.3561,-3.3814,-3.3941,-3.3941,-3.3941,-3.3719,-3.3293,-3.2835,-3.2882,-3.3198,-3.1349,-3.067,-3.0701,-2.8669,-2.6561,-2.4589,-2.4194,-2.3634,-2.3055,-2.3502,-2.3656,-2.3656,0.0,0.0,0.0,0.0,0.0,0.0,0.0,0.0,2.569,2.5673,2.5685,2.6017,2.6844,2.724,2.7764,2.8571,2.8369,2.795,2.7387,2.6806,2.621,2.5566,2.5885,2.6325,2.6887,2.7181,2.3333,1.514,1.3882,0.7898,-0.2466,-0.6019,-0.8489,-1.0225,-1.5952,-1.7322,-1.5167,-1.2134,-1.0307,-0.9531,-0.9459,-0.9487,-0.9423,0.0,0.0,0.0,0.0,0.0,0.0,0.0,0.0,0.0,0.0,0.0,0.0,0.0,0.0,0.0,0.0,0.0,0.0,0.0,0.0,0.0,0.0,0.0,0.0,0.0,0.0,0.0,0.0,0.0,0.0,0.0,0.0,0.0,0.0,0.0,-2.6427,-2.6291,-2.697,-2.7458,-2.7515,-2.6995,-2.6801,-2.7186,-2.7901,-2.8641,-2.9369,-2.9964,-3.09,-3.2234,-3.2317,-3.276,-3.3609,-3.3846,-3.3957,-3.3957,-3.3957,-3.3719,-3.3277,-3.2582,-3.2519,-3.2835,-3.0733,-3.0085,-3.0321,-2.8385,-2.6585,-2.5039,-2.4353,-2.3683,-2.3064,-2.3471,-2.364,-2.3579,0.0,0.0,0.0,0.0,0.0,0.0,0.0,2.5668,2.5684,2.5605,2.5664,2.6034,2.6933,2.7791,2.8619,2.9435,2.8691,2.8193,2.8162,2.6484,2.5537,2.5631,2.6382,2.6864,2.6977,2.8042,2.2937,1.1384,1.0039,0.281,-0.985,-1.2269,-1.5112,-1.8155,-1.9015,-2.0725,-2.2922,-2.2561,-1.9302,-1.4325,-1.4564,-1.4384,-1.3827,0.0,0.0,0.0,0.0,0.0,0.0,0.0,0.0,0.0,0.0,0.0,0.0,0.0,0.0,0.0,0.0,0.0,0.0,0.0,0.0,0.0,0.0,0.0,0.0,0.0,0.0,0.0,0.0,0.0,0.0,0.0,0.0,0.0,-2.4927,-2.6683,-2.8045,-2.7745,-2.8525,-2.8779,-2.8111,-2.833,-2.8804,-2.9549,-3.0455,-3.1282,-3.2049,-3.1737,-3.1805,-3.2234,-3.2301,-3.2301,-3.2285,-3.2945,-3.3293,-3.3277,-3.3293,-3.3309,-3.3277,-3.2566,-3.2301,-3.2206,-3.0038,-2.9091,-2.9012,-2.752,-2.6502,-2.5905,-2.5606,-2.5102,-2.4498,-2.4359,-2.4302,-2.4087,0.0,0.0,0.0,0.0,0.0,0.0,0.0,2.5668,2.5671,2.5618,2.5668,2.6241,2.7711,2.8084,2.8543,2.9365,2.8661,2.7931,2.7305,2.6208,2.5858,2.6503,2.6755,2.7477,2.8768,2.279,1.6134,0.8877,0.1544,-0.7102,-1.686,-1.9222,-2.1416,-2.3554,-2.5412,-2.6293,-2.6411,-2.7173,-2.5798,-2.2898,-1.9324,-1.782,-1.7408,0.0,0.0,0.0,0.0,0.0,0.0,0.0,0.0,0.0,0.0,0.0,0.0,0.0,0.0,0.0,0.0,0.0,0.0,0.0,0.0,0.0,0.0,0.0,0.0,0.0,0.0,0.0,0.0,0.0,0.0,0.0,0.0,-2.7526,-2.5509,-2.7823,-2.9817,-3.0188,-3.0462,-3.0856,-3.1519,-3.1061,-3.0844,-3.1119,-3.1072,-3.1076,-3.1278,-3.1041,-3.1072,-3.1507,-3.1997,-3.2029,-3.1507,-3.2708,-3.3056,-3.255,-3.3056,-3.3309,-3.3261,-3.2045,-3.1776,-3.2206,-3.0038,-2.9422,-2.9753,-2.7813,-2.6945,-2.6682,-2.5851,-2.5102,-2.4498,-2.4359,-2.3994,-2.3456,0.0,0.0,0.0,0.0,0.0,0.0,0.0,2.5668,2.5687,2.5606,2.5659,2.6202,2.7558,2.7696,2.8019,2.8795,2.8127,2.7444,2.6926,2.6445,2.6403,2.6888,2.7576,2.6743,2.4192,1.8377,1.0293,-0.0075,-0.6596,-1.4672,-2.398,-2.5148,-2.6905,-2.9133,-3.0474,-3.1011,-3.0939,-3.1573,-3.11,-2.9532,-2.5834,-2.3413,-2.1766,-1.9443,-1.8613,-1.8525,-1.7699,-1.7839,-1.8448,-1.8309,0.0,0.0,0.0,0.0,0.0,0.0,0.0,0.0,0.0,0.0,0.0,0.0,0.0,0.0,0.0,0.0,0.0,0.0,0.0,0.0,0.0,0.0,0.0,0.0,-2.9518,-2.9978,-2.9252,-3.0424,-3.15,-3.1972,-3.2191,-3.2546,-3.3224,-3.2737,-3.2515,-3.2908,-3.2554,-3.2203,-3.19,-3.1318,-3.095,-3.0796,-3.146,-3.1634,-3.1223,-3.2613,-3.3192,-3.3051,-3.3467,-3.3745,-3.3885,-3.2576,-3.2029,0.0,-3.0006,-2.92,-2.9169,-2.7383,-2.683,0.0,0.0,0.0,0.0,0.0,-2.3456,-2.2825,0.0,0.0,0.0,0.0,0.0,0.0,0.0,2.5644,2.5675,2.5619,2.5645,2.6011,2.6892,2.7,2.7252,2.791,2.7301,2.6897,2.69,2.6949,2.7032,2.7186,2.7666,2.4364,1.6764,1.3142,0.3745,-1.1773,-1.4814,-2.1191,-3.0587,-3.0409,-3.1721,-3.4272,-3.4339,-3.4805,-3.5479,-3.5437,-3.4976,-3.4159,-3.2519,-2.9704,-2.6253,-2.4182,-2.3468,-2.3375,-2.2056,-2.1222,-2.0805,-2.1481,0.0,0.0,0.0,0.0,0.0,0.0,0.0,0.0,0.0,0.0,0.0,0.0,0.0,0.0,0.0,0.0,0.0,0.0,0.0,0.0,0.0,0.0,0.0,0.0,-3.1748,-3.3234,-3.4317,-3.362,-3.3086,-3.3463,-3.3746,-3.3871,-3.3834,-3.3665,-3.384,-3.4496,-3.4219,-3.3745,-3.3178,0.0,0.0,0.0,0.0,-3.1286,-3.1223,-3.2649,-3.361,-3.3971,-3.4102,-3.4333,-3.4636,-3.342,-3.2529,-3.1753,-2.9924,-2.8774,-2.811,-2.6783,-2.6577,-2.6914,-2.5352,-2.4667,-2.4471,-2.3721,-2.2978,-2.2394,0.0,0.0,0.0,0.0,0.0,0.0,0.0,2.5615,2.5615,2.559,2.5612,2.5952,2.6811,2.6916,2.6946,2.7036,2.6915,2.6823,2.6827,2.6827,2.7462,2.8859,2.2436,1.7922,1.595,0.092,-0.9844,-1.5852,-2.4345,-3.052,-3.4362,-3.5021,-3.5705,-3.6412,-3.6638,-3.6756,-3.6735,-3.6573,-3.5959,-3.5007,-3.4306,-3.2173,-2.9173,-2.6368,-2.5216,-2.4814,-2.287,-2.2842,-2.3594,-2.2506,-2.2994,-2.3925,-2.3373,-2.3342,0.0,0.0,0.0,0.0,0.0,0.0,0.0,0.0,0.0,0.0,0.0,0.0,0.0,0.0,0.0,0.0,0.0,0.0,0.0,-3.2751,-3.3346,-3.4087,-3.5481,-3.4984,-3.4736,-3.5366,-3.5018,-3.4686,-3.4691,-3.4624,-3.4686,-3.4835,-3.4004,-3.3515,-3.3432,-3.2289,0.0,-3.1342,-3.1831,-3.1792,-3.1223,-3.304,-3.3693,-3.3243,0.0,0.0,-3.3846,-3.2718,-3.1769,-3.0978,-2.9655,-2.9012,-2.8869,-2.8031,-2.7403,-2.6859,-2.5884,-2.5004,-2.4328,-2.4164,-2.3686,-2.3102,0.0,0.0,0.0,0.0,0.0,0.0,0.0,2.5565,2.5562,2.5595,2.5542,2.5675,2.6149,2.619,2.6166,2.6106,2.6131,2.6325,2.6716,2.6447,2.5236,2.2942,1.7603,1.0699,0.2132,-0.8766,-1.7639,-2.4404,-3.0379,-3.4477,-3.6702,-3.7015,-3.7718,-3.875,-3.8609,-3.8561,-3.8544,-3.8298,-3.7558,-3.6531,-3.5964,-3.4227,-3.1619,-2.8819,-2.6979,-2.5747,-2.491,-2.4424,-2.4185,-2.4123,-2.4689,-2.539,-2.5096,-2.5118,-2.5012,0.0,0.0,0.0,0.0,0.0,0.0,0.0,0.0,0.0,0.0,0.0,0.0,0.0,0.0,-2.9343,0.0,0.0,-3.2923,-3.4648,-3.4899,-3.5297,-3.639,-3.5926,-3.5313,-3.4932,-3.4568,-3.4203,-3.3822,-3.3789,-3.3938,-3.4319,-3.3895,-3.3557,-3.3526,-3.2899,-3.2256,-3.1598,-3.2401,-3.2594,-3.2094,-3.3681,-3.4215,-3.3707,-3.4301,-3.4343,-3.3871,-3.305,-3.2249,-3.1494,-3.0652,-2.9955,-2.9393,-2.8833,-2.8088,-2.7174,-2.6486,-2.5668,-2.4802,-2.4081,-2.3594,-2.3302,0.0,0.0,0.0,0.0,0.0,0.0,0.0,0.0,2.5498,2.5543,2.5461,2.541,2.5451,2.5459,2.543,2.5372,2.5411,2.5874,2.6882,2.6135,2.2792,1.639,1.2503,0.3271,-1.2195,-1.7,-2.3514,-3.2062,-3.422,-3.621,-3.8016,-3.8191,-3.9065,-4.0507,-4.0072,-3.9948,-4.0062,-3.9791,-3.9059,-3.7978,-3.7042,-3.5421,-3.323,-3.0796,-2.8611,-2.6871,-2.6779,-2.5744,-2.458,-2.5582,-2.6173,-2.6527,-2.6827,-2.6891,-2.6676,-2.561,-2.4788,0.0,0.0,0.0,0.0,0.0,0.0,0.0,0.0,0.0,-2.7006,-2.8612,-2.9709,-3.0938,-3.288,-3.3806,-3.4651,-3.6009,-3.6092,-3.6208,-3.6804,-3.6125,-3.5032,-3.3541,-3.374,-3.3773,-3.3176,-3.311,-3.3359,-3.3955,-3.3872,-3.3809,-3.3771,-3.3461,-3.2865,-3.1903,-3.2883,-3.3272,-3.3016,-3.4162,-3.4626,-3.4421,-3.4372,-3.4157,-3.3852,-3.3359,-3.2747,-3.2053,-3.1524,-3.0793,-2.9924,-2.9544,-2.8806,-2.7826,-2.711,-2.6338,-2.5446,-2.4014,-2.3486,-2.3486,0.0,0.0,0.0,0.0,0.0,0.0,0.0,0.0,0.0,2.5346,2.5379,2.538,2.5329,2.5279,2.5233,2.5227,2.522,2.5978,2.7741,2.6397,2.2508,1.5714,0.6276,-0.3943,-1.4935,-2.404,-3.0113,-3.3048,-3.5883,-3.7547,-3.8128,-3.9821,-4.061,-4.0587,-4.0517,-4.0447,-4.0345,-4.0081,-3.9432,-3.8441,-3.6644,-3.4808,-3.2963,-3.1176,-3.0,-2.9024,-2.6939,-2.6369,-2.6579,-2.6211,-2.6541,-2.7199,-2.7835,-2.7977,-2.7725,-2.6648,0.0,-2.5376,-2.5209,-2.4594,0.0,-2.6637,-2.5568,-2.527,0.0,0.0,-2.8373,-3.0383,-3.1641,-3.2641,-3.3553,-3.4864,-3.6025,-3.6854,-3.6439,-3.6025,-3.6108,-3.4916,-3.3491,-3.2034,-3.3591,-3.4733,-3.4651,-3.4651,-3.4684,-3.4767,-3.417,-3.4087,-3.4686,-3.3294,-3.2602,-3.2902,-3.3224,-3.3288,-3.3016,-3.3956,-3.4418,-3.4404,-3.423,-3.3744,-3.3041,-3.2593,-3.1968,-3.1202,-3.0799,-3.0543,-3.0435,-3.0351,-2.9832,-2.8895,-2.7775,-2.6771,-2.5882,-2.4622,-2.4194,-2.4194,0.0,0.0,0.0,0.0,0.0,0.0,0.0,0.0,0.0,0.0,2.5274,2.5201,2.5184,2.5053,2.4924,2.4796,2.5043,2.5264,2.5417,1.992,1.3372,0.6007,-0.51,-1.5312,-2.43,-2.9472,-3.2837,-3.4429,-3.5503,-3.6426,-3.7201,-3.8237,-3.9219,-4.0079,-4.0091,-4.0313,-4.0643,-4.0072,-3.9152,-3.7972,-3.6307,-3.448,-3.2619,-3.1498,-3.0226,-2.8908,-2.7555,-2.6909,0.0,-2.6263,-2.632,-2.6633,-2.7525,-2.7309,-2.6701,-2.6448,-2.5999,0.0,-2.5402,0.0,0.0,0.0,-2.7722,-2.8528,-3.0992,-3.0749,-3.054,-3.223,-3.2974,-3.369,-3.4866,-3.5943,-3.6605,0.0,-3.6208,-3.5694,-3.4833,-3.3806,-3.2762,-3.1692,-3.205,-3.2348,-3.2348,-3.1951,-3.2415,-3.4121,-3.3574,-3.3657,-3.4833,-3.4209,-3.3917,-3.4197,-3.4496,-3.4464,-3.3934,-3.4524,-3.4189,-3.2889,-3.324,-3.2783,-3.1627,-3.1871,-3.1812,-3.1504,-3.1044,-3.1004,-3.1184,-3.0199,-2.9729,-2.9482,-2.7518,-2.6542,-2.6045,-2.4756,-2.4302,-2.4302,0.0,0.0,0.0,0.0,0.0,0.0,0.0,0.0,0.0,0.0,2.5214,2.5103,2.5024,2.4733,2.4523,2.4433,2.4611,2.4412,2.3651,1.5354,0.6757,-0.1504,-1.238,-2.2297,-3.101,-3.2467,-3.3593,-3.4569,-3.4766,-3.5288,-3.6144,-3.6768,-3.7867,-3.931,-3.9326,-3.9665,-4.0179,-3.9597,-3.8499,-3.7032,-3.5717,-3.4013,-3.218,-3.115,-2.9909,-2.8628,-2.7923,-2.7001,-2.6133,-2.6033,-2.5921,-2.5945,-2.6877,-2.6591,-2.6009,-2.6387,-2.6272,-2.594,-2.5544,0.0,0.0,-2.8167,-2.9671,-3.1029,-3.1847,-3.1891,-3.2093,-3.325,-3.3564,-3.3898,-3.4883,-3.5459,-3.569,-3.5461,-3.5278,-3.4847,-3.3968,-3.3023,-3.205,-3.1123,-3.0195,-2.9781,-3.0179,-3.0096,-3.0907,-3.3027,-3.3077,-3.3504,-3.4659,-3.4725,-3.4755,-3.486,-3.5284,-3.5103,-3.4321,-3.4524,-3.377,-3.2093,-3.2231,-3.1834,-3.1007,-3.1558,-3.18,-3.18,-3.1449,-3.1504,-3.1711,-3.0492,-2.9905,-2.9655,-2.7717,-2.6613,-2.6013,-2.4883,-2.4385,-2.4302,0.0,0.0,0.0,0.0,0.0,0.0,0.0,0.0,0.0,0.0,0.0,0.0,0.0,2.4279,2.4007,2.419,2.3817,2.3556,2.3601,1.5559,0.6506,-0.3111,-1.1912,-2.1399,-3.1736,-3.2262,-3.2505,-3.2665,-3.4099,-3.4921,-3.517,-3.6415,-3.7475,-3.8346,-3.8412,-3.8456,-3.8469,-3.8443,-3.7395,-3.5687,-3.4777,-3.3345,-3.1532,-2.9833,-2.9102,-2.8842,-2.771,-2.6503,-2.5445,-2.5579,-2.5427,-2.5345,-2.6103,-2.6268,0.0,-2.6816,-2.7056,-2.6954,-2.605,0.0,-2.8294,-3.0542,-3.1008,-3.1463,-3.3633,-3.3257,-3.261,-3.3102,-3.316,-3.3064,-3.2868,-3.2536,-3.2706,-3.3868,-3.3473,-3.324,-3.3889,-3.2652,-3.1064,-2.9648,-2.8241,-2.7909,0.0,-3.0725,-3.1543,-3.1643,-3.2978,-3.3956,-3.4286,-3.433,-3.4374,-3.4532,-3.4974,-3.4696,-3.3632,-3.3313,-3.3069,-3.2852,-3.1438,-3.111,-3.1765,-3.1783,-3.18,-3.18,-3.1783,-3.18,-3.18,-3.1728,-3.0814,-2.9368,-2.8834,-2.745,-2.5642,-2.5075,-2.4639,-2.4302,0.0,0.0,0.0,0.0,0.0,0.0,0.0,0.0,0.0,0.0,0.0,0.0,0.0,0.0,0.0,0.0,2.3895,2.3088,2.0953,0.9167,0.0078,-0.4784,-1.7629,-2.6561,-3.0639,-3.1057,-3.1506,-3.2142,-3.2768,-3.3163,-3.3315,-3.4069,-3.4897,-3.5774,-3.5848,-3.6207,-3.6718,-3.6169,-3.6202,-3.6339,-3.3168,-3.2182,-3.2319,-2.9399,-2.7939,-2.7355,0.0,-2.6328,-2.5609,-2.5249,-2.4937,-2.4819,-2.5746,-2.5483,-2.5014,-2.6075,-2.6831,-2.7565,-2.8629,0.0,-3.1501,-3.3125,-3.3862,-3.4349,-3.5081,-3.4797,-3.3928,-3.24,-3.2066,-3.1834,-3.1122,-3.0836,-3.1348,-3.3203,-3.3094,-3.2824,-3.3117,-3.2674,-3.1437,-2.9019,-2.8307,0.0,0.0,0.0,0.0,-3.215,-3.2348,-3.2896,-3.4246,-3.4768,-3.526,-3.5796,-3.5363,-3.4823,-3.4155,-3.3433,-3.2273,-3.0644,-3.0144,-3.0575,-3.18,-3.18,-3.18,-3.18,-3.18,-3.18,-3.1765,-3.1265,-3.0765,-3.0108,-2.8605,-2.7573,-2.6783,-2.5772,-2.5114,-2.4639,0.0,0.0,0.0,0.0,0.0,0.0,0.0,0.0,0.0,0.0,0.0,0.0,0.0,0.0,0.0,0.0,0.0,2.0788,1.6051,0.4337,-0.4493,-0.9174,-2.1301,-2.8434,-2.95,-2.9732,-3.0057,-3.0545,-3.079,-3.0985,-3.1165,-3.1521,-3.2189,-3.3064,-3.317,-3.3516,-3.4007,-3.3529,-3.3728,-3.414,-3.133,-3.0639,-3.1009,-2.8452,-2.7104,0.0,-2.6255,-2.5874,-2.546,-2.5026,-2.47,-2.4538,-2.5111,-2.5116,-2.5147,-2.6597,-2.7802,-2.9086,-3.0915,-3.2509,-3.3908,-3.4941,-3.5573,-3.5746,-3.5072,-3.4554,-3.3532,-3.0936,-3.0247,-2.9834,-2.887,-2.8629,-2.924,-3.1121,-3.1419,-3.1642,-3.2374,-3.2067,-3.1133,-2.9374,-2.8688,0.0,0.0,0.0,0.0,-3.0593,-3.1537,-3.2474,-3.3489,-3.4734,-3.5603,-3.6046,-3.5486,-3.4822,-3.4062,-3.3167,-3.179,-2.9937,-3.0196,-3.0834,-3.18,-3.18,-3.18,-3.18,-3.18,-3.18,-3.1765,-3.1282,-3.0938,-3.0523,-2.8937,-2.7992,-2.7387,-2.6426,-2.5554,-2.4863,0.0,0.0,0.0,0.0,0.0,0.0,0.0,0.0,0.0,0.0,0.0,0.0,0.0,0.0,0.0,0.0,0.0,0.0,0.9683,0.1529,-0.6878,-1.5563,-2.2606,-2.6968,-2.8339,-2.8282,-2.8165,-2.803,-2.8378,-2.8631,-2.8829,-2.9036,-2.9574,-3.0385,-3.0521,-3.0574,-3.0573,-3.0638,-3.0233,-2.9547,-2.9428,-2.8856,-2.7976,-2.7,-2.661,-2.642,-2.5592,-2.5173,-2.4998,0.0,0.0,0.0,-2.4414,-2.5283,-2.6713,-2.8214,-2.9834,-3.1429,-3.2823,-3.425,-3.5473,-3.6042,-3.6111,-3.5595,-3.3755,-3.2809,-3.1526,-2.8856,-2.7936,-2.7291,0.0,-2.6061,-2.6523,-2.8013,-2.8766,-2.9861,-3.1767,-3.1072,-3.0415,0.0,0.0,0.0,0.0,0.0,0.0,-2.7533,0.0,-3.2523,-3.2293,-3.424,-3.5331,-3.5342,-3.5238,-3.4627,-3.3421,-3.2492,-3.1619,-3.0748,-3.142,-3.1765,-3.18,-3.18,-3.18,-3.18,-3.18,-3.18,-3.18,-3.1765,-3.1351,-3.0662,-2.9764,-2.8696,-2.757,-2.7,-2.6044,-2.5005,0.0,0.0,0.0,0.0,0.0,0.0,0.0,0.0,0.0,0.0,0.0,0.0,0.0,0.0,0.0,0.0,0.0,0.0,0.9718,0.1452,-0.6703,-1.4678,-2.1461,-2.5561,-2.6598,-2.6282,-2.6428,-2.7135,-2.7509,-2.7737,-2.7804,-2.8132,-2.8424,-2.8646,-2.8722,-2.8787,-2.8836,-2.8908,-2.9531,-3.0305,-2.8354,-2.8158,-2.8818,-2.6636,-2.5801,-2.573,-2.5481,-2.5322,0.0,0.0,0.0,0.0,0.0,-2.6918,-2.8221,-2.9192,-3.1039,-3.3092,-3.4497,-3.6049,-3.7202,-3.7238,-3.6328,-3.5137,-3.4089,-3.2335,-3.0247,-2.7672,-2.6747,-2.6302,0.0,-2.552,-2.635,-2.9573,-3.019,0.0,-3.2579,-3.3477,0.0,-3.1801,0.0,-3.1508,-3.0451,-3.0202,0.0,0.0,-3.1056,-3.2293,-3.3349,-3.438,-3.5145,-3.5657,-3.4559,-3.3789,-3.3421,-3.1899,-3.1306,-3.1581,-3.1181,-3.1265,-3.18,-3.18,-3.18,-3.18,-3.18,-3.18,-3.1765,-3.1196,-3.1179,-3.1386,-2.9989,-2.9556,-2.9525,-2.8457,-2.7246,-2.6197,0.0,0.0,0.0,0.0,0.0,0.0,0.0,0.0,0.0,0.0,0.0,0.0,0.0,0.0,0.0,0.0,0.0,0.0,0.0,-0.3828,-1.1644,-1.8953,-2.2754,-2.4908,-2.5414,-2.5075,-2.5208,-2.5838,-2.6148,-2.6322,-2.635,-2.6645,-2.6804,-2.6857,-2.6942,-2.7011,-2.7101,-2.7134,-2.7695,0.0,0.0,-2.6922,-2.7576,-2.6094,-2.5524,-2.5499,-2.5456,0.0,0.0,0.0,0.0,-2.8629,-2.8691,-2.943,-3.0584,-3.2027,0.0,-3.5768,-3.6483,-3.7807,-3.878,-3.7918,-3.6254,-3.4485,-3.3341,-3.1297,-2.8963,-2.6486,-2.5727,0.0,-2.541,-2.5183,0.0,0.0,0.0,0.0,-3.1901,-3.2984,-3.3474,0.0,-3.3057,0.0,-3.1766,-3.1658,-3.1598,0.0,-3.1981,-3.2547,-3.3022,-3.4167,-3.4747,-3.4585,-3.3713,-3.3157,-3.2878,-3.1899,-3.1567,-3.1894,-3.146,-3.1422,-3.18,-3.18,-3.18,-3.18,0.0,-3.18,-3.1731,-3.0989,-3.1127,-3.1645,-3.011,-2.9884,-3.0267,-2.912,-2.8001,-2.709,0.0,0.0,0.0,0.0,0.0,0.0,0.0,0.0,0.0,0.0,0.0,0.0,0.0,0.0,0.0,0.0,0.0,0.0,0.0,0.0,0.0,-2.4766,-2.4894,-2.4752,-2.4697,-2.451,-2.4478,-2.4596,-2.4818,-2.4955,-2.5025,-2.516,-2.5284,-2.5382,-2.5453,-2.5556,-2.5662,-2.5685,-2.5702,-2.5693,-2.5693,-2.5662,-2.5604,0.0,-2.5564,-2.5503,-2.5492,0.0,0.0,0.0,-2.9157,-3.0048,-3.1181,-3.2203,-3.3378,-3.5248,-3.7003,-3.8354,-3.8368,-3.9246,-3.9824,-3.8312,-3.6044,-3.3746,-3.2164,-2.9963,-2.7671,-2.5461,0.0,-2.49,-2.5117,-2.5108,-2.5425,-2.644,0.0,-2.8813,-3.0633,-3.1404,-3.2315,-3.3933,-3.3722,-3.3359,-3.3111,-3.3067,-3.3056,-3.3023,-3.3131,-3.29,-3.2277,-3.3626,-3.3932,-3.2913,-3.2824,-3.2624,-3.2232,-3.2179,-3.2073,-3.193,-3.1894,-3.1875,-3.1819,-3.18,-3.18,-3.18,0.0,0.0,-3.1731,-3.0989,-3.1127,-3.1662,-3.0178,-2.9986,-3.0343,-2.9459,-2.8542,-2.774,0.0,0.0,0.0,0.0,0.0,0.0,0.0,0.0,0.0,0.0,2.5186,2.4864,0.0,0.0,0.0,0.0,0.0,0.0,0.0,0.0,0.0,0.0,-2.4826,-2.4736,-2.4629,-2.4462,-2.4479,-2.4676,-2.4885,-2.5018,-2.5082,-2.5274,-2.5322,-2.5233,-2.5425,-2.551,-2.5537,-2.5652,-2.5703,-2.5693,-2.5705,-2.5658,-2.56,-2.5604,0.0,0.0,0.0,0.0,0.0,0.0,-3.1047,-3.2708,-3.2341,-3.3789,-3.5652,-3.5781,-3.6975,-3.8352,-3.9007,-3.9387,-3.9334,-3.8393,-3.5842,-3.3117,-3.1508,-2.8804,0.0,0.0,-2.4465,-2.4411,-2.5751,-2.5725,0.0,-2.7984,0.0,0.0,0.0,0.0,-3.3194,0.0,0.0,0.0,0.0,0.0,0.0,0.0,0.0,0.0,-3.3043,-3.2706,-3.244,-3.2083,-3.1881,-3.194,-3.2354,-3.2018,-3.1965,-3.2144,-3.1984,-3.1894,-3.1875,-3.1819,-3.18,-3.18,-3.18,0.0,-3.1731,-3.0989,-3.1127,-3.1714,-3.0692,-3.05,-3.0644,-2.9995,-2.9044,-2.8056,0.0,0.0,0.0,0.0,0.0,0.0,0.0,2.5486,2.5391,2.5206,2.5088,2.4776,2.4204,2.3189,2.1952,0.0,0.0,0.0,0.0,0.0,0.0,0.0,0.0,0.0,0.0,-2.4462,0.0,0.0,0.0,0.0,0.0,0.0,0.0,0.0,0.0,-2.5532,-2.5554,-2.5657,-2.5703,-2.5699,-2.5694,-2.5679,0.0,0.0,0.0,0.0,0.0,0.0,0.0,0.0,-3.0342,-3.265,-3.3729,-3.5088,-3.6343,-3.657,-3.7699,-3.8948,-3.9278,-3.9985,-4.022,-3.859,-3.5765,-3.2868,-3.0822,0.0,0.0,0.0,-2.4393,-2.4791,-2.5986,0.0,0.0,0.0,0.0,0.0,0.0,0.0,0.0,0.0,0.0,0.0,0.0,0.0,0.0,0.0,0.0,0.0,-3.3186,-3.1935,-3.1355,-3.1691,-3.0825,-3.0864,-3.1929,-3.1367,-3.1367,-3.1875,-3.1802,-3.1765,-3.1856,-3.1819,-3.18,-3.18,-3.18,0.0,-3.1731,-3.0989,-3.1127,-3.1714,-3.0846,-3.0611,-3.0707,-3.0133,-2.9359,-2.8586,0.0,0.0,0.0,0.0,0.0,0.0,0.0,2.5493,2.5391,2.5086,2.4949,2.455,2.3712,2.2422,2.0422,0.0,0.0,0.0,0.0,0.0,0.0,0.0,0.0,0.0,0.0,0.0,0.0,0.0,0.0,0.0,0.0,0.0,0.0,0.0,0.0,0.0,0.0,-2.5673,-2.5703,0.0,0.0,0.0,0.0,0.0,0.0,0.0,0.0,0.0,0.0,0.0,-2.8962,-3.114,-3.3638,-3.5128,-3.6019,-3.6693,-3.8003,-3.9309,-3.9585,-4.0655,-4.1162,-3.879,-3.591,-3.294,-3.017,-2.7308,0.0,0.0,-2.4429,-2.5244,-2.6059,0.0,0.0,0.0,0.0,0.0,0.0,0.0,0.0,0.0,0.0,0.0,0.0,0.0,0.0,0.0,0.0,0.0,-3.2353,-3.0869,-3.0241,-3.0895,-2.9734,-2.9736,-3.1025,-3.0333,-3.0333,-3.1045,-3.1141,-3.1227,-3.1356,-3.1548,-3.1634,-3.1654,-3.1591,0.0,0.0,-3.0938,-3.1041,-3.1524,-3.0967,-3.0692,-3.0567,-3.0091,-2.9496,-2.892,0.0,0.0,0.0,0.0,0.0,0.0,0.0,2.5505,2.541,2.5216,2.4955,2.4085,2.2224,2.1659,1.8199,0.0,0.0,0.0,0.0,0.0,0.0,0.0,0.0,0.0,0.0,0.0,0.0,0.0,0.0,0.0,0.0,0.0,0.0,0.0,0.0,0.0,0.0,0.0,0.0,0.0,0.0,0.0,0.0,0.0,0.0,0.0,0.0,0.0,0.0,0.0,0.0,-2.8445,-3.0161,-3.2467,-3.4657,-3.509,0.0,0.0,-4.0197,-4.1143,-4.1162,-3.879,-3.6327,-3.3484,-2.9608,0.0,0.0,-2.4121,-2.4429,-2.5244,-2.6059,-2.6832,-2.7504,0.0,0.0,-2.8135,0.0,0.0,0.0,0.0,0.0,0.0,0.0,0.0,0.0,0.0,0.0,0.0,0.0,-2.8998,-2.872,-2.9053,-2.8691,-2.8803,-2.9486,-2.8969,-2.8861,-2.9255,-2.9597,-2.98,-2.9817,-3.074,-3.1162,-3.1167,-3.0913,0.0,0.0,-3.0713,-3.0731,-3.0851,-3.1328,-3.096,-3.0117,-2.9946,-2.9287,-2.8444,0.0,0.0,0.0,0.0,0.0,0.0,2.5395,2.5421,2.533,2.5061,2.4855,2.3877,2.1601,1.7113,1.2418,0.7871,0.0,0.0,0.0,0.0,0.0,0.0,0.0,0.0,0.0,0.0,0.0,0.0,0.0,0.0,0.0,0.0,0.0,0.0,0.0,0.0,0.0,0.0,0.0,0.0,0.0,0.0,0.0,0.0,0.0,0.0,0.0,0.0,0.0,0.0,0.0,0.0,-2.7198,-2.8603,0.0,0.0,-3.4666,-3.668,-3.8122,-3.9799,-4.0399,-3.7468,-3.4932,-3.2234,-2.8685,0.0,0.0,-2.3922,-2.4827,-2.5823,-2.6149,-2.7254,-2.8182,-2.8334,-2.8192,0.0,0.0,0.0,0.0,0.0,0.0,0.0,0.0,0.0,0.0,0.0,0.0,0.0,0.0,-2.786,-2.7985,-2.8531,-2.7587,-2.7627,-2.8774,-2.8098,-2.8081,-2.8628,-2.8798,-2.9087,-2.9486,-2.9471,-3.0068,-3.1055,-3.0074,0.0,0.0,-2.9868,-2.9575,-3.0006,-3.0211,-2.9878,-2.9314,-2.9763,-2.9496,-2.8764,0.0,0.0,0.0,0.0,0.0,2.5441,2.5332,2.5293,2.5173,2.4907,2.4753,2.3637,2.1016,1.4006,0.7812,0.3614,-0.3666,0.0,0.0,0.0,0.0,0.0,0.0,0.0,0.0,0.0,0.0,-2.4372,-2.4682,0.0,0.0,0.0,0.0,0.0,0.0,0.0,0.0,0.0,0.0,0.0,0.0,0.0,0.0,0.0,0.0,0.0,0.0,0.0,0.0,0.0,0.0,0.0,0.0,0.0,0.0,0.0,-3.2404,-3.4355,-3.5773,-3.7713,-3.8634,-3.5846,-3.3524,-3.113,0.0,0.0,0.0,-2.3891,-2.4922,-2.5882,-2.5842,-2.7164,-2.8243,-2.8243,-2.8226,-2.8165,0.0,0.0,0.0,0.0,0.0,0.0,0.0,0.0,0.0,0.0,0.0,0.0,0.0,-2.6949,-2.7197,-2.7727,-2.675,-2.67,-2.7727,-2.7177,-2.716,-2.7656,-2.7756,-2.8139,-2.8812,-2.8366,-2.9009,-3.0329,0.0,0.0,0.0,-2.8321,-2.8096,-2.8868,-2.9025,-2.8946,-2.8838,-2.9386,-2.9319,-2.8794,0.0,0.0,0.0,0.0,0.0,0.0,2.5313,2.5124,2.4967,2.4814,2.4623,2.3288,2.0138,1.3627,0.556,-0.4223,-1.1284,0.0,0.0,0.0,0.0,0.0,0.0,0.0,0.0,0.0,-2.4174,-2.43,-2.4693,-2.4942,0.0,0.0,0.0,0.0,0.0,0.0,0.0,0.0,0.0,0.0,0.0,0.0,0.0,0.0,0.0,0.0,0.0,0.0,0.0,0.0,0.0,0.0,0.0,0.0,-2.5666,0.0,-2.9998,-3.1881,-3.3486,-3.4962,-3.566,-3.4032,-3.2429,-3.0589,0.0,0.0,-2.4941,-2.4081,-2.4551,-2.5092,-2.5009,-2.6331,-2.7393,-2.7393,-2.8062,0.0,0.0,0.0,0.0,0.0,0.0,0.0,0.0,0.0,0.0,0.0,0.0,0.0,0.0,-2.622,-2.622,-2.6236,-2.622,-2.622,-2.6236,-2.6023,-2.5897,-2.5914,-2.6212,-2.6734,-2.7422,-2.7607,-2.8102,0.0,0.0,0.0,0.0,-2.5944,-2.629,-2.7385,-2.8061,-2.8595,-2.8985,-2.8876,-2.8653,-2.8304,0.0,0.0,0.0,0.0,0.0,0.0,0.0,2.5049,2.4949,2.4632,2.4572,2.3277,1.9904,0.94,0.0443,-0.4936,-1.1172,0.0,0.0,0.0,0.0,0.0,0.0,0.0,0.0,0.0,-2.4192,-2.4372,-2.4617,-2.4874,-2.5069,-2.5241,-2.5332,0.0,0.0,0.0,0.0,0.0,0.0,0.0,0.0,0.0,0.0,0.0,0.0,0.0,0.0,0.0,0.0,0.0,0.0,0.0,0.0,0.0,0.0,-2.6015,-2.7681,0.0,-3.0332,-3.1689,-3.2464,-3.0801,-2.9588,-2.8328,-2.6447,0.0,-2.4306,-2.403,-2.4613,-2.5157,-2.5135,-2.64,-2.7465,-2.7465,-2.8087,0.0,0.0,0.0,0.0,0.0,0.0,0.0,0.0,0.0,0.0,0.0,0.0,0.0,0.0,-2.6239,-2.622,-2.622,-2.622,-2.622,-2.622,-2.6132,-2.6059,-2.5897,-2.5848,-2.6101,-2.6614,-2.6118,0.0,0.0,0.0,0.0,0.0,-2.6168,-2.6063,-2.6892,-2.7029,-2.7334,-2.7683,-2.7729,-2.7833,-2.7817,0.0,0.0,0.0,0.0,0.0,0.0,0.0,2.4828,2.4666,2.4441,2.3804,2.1361,1.6159,0.5221,-0.3692,-0.8572,-1.4682,0.0,0.0,0.0,0.0,0.0,0.0,0.0,0.0,-2.3896,-2.4057,-2.4211,-2.4823,-2.5062,-2.4961,-2.5474,-2.5591,-2.536,-2.5412,0.0,0.0,0.0,0.0,0.0,0.0,0.0,-2.5696,0.0,0.0,0.0,0.0,0.0,0.0,0.0,0.0,0.0,0.0,0.0,0.0,0.0,-2.6024,-2.7159,0.0,-2.8684,-2.9389,-2.8342,-2.7457,0.0,0.0,0.0,-2.4075,-2.4036,-2.4436,-2.4782,-2.4743,-2.5776,-2.6736,-2.7045,-2.7707,0.0,0.0,0.0,0.0,0.0,0.0,0.0,0.0,0.0,0.0,0.0,0.0,0.0,0.0,0.0,-2.5789,-2.5789,-2.6071,-2.6071,-2.5806,-2.6071,-2.5999,-2.5595,-2.5677,-2.5956,-2.6383,-2.552,0.0,0.0,0.0,0.0,0.0,-2.531,-2.5247,-2.6067,-2.5915,-2.6319,-2.6974,-2.6832,-2.7102,-2.7272,0.0,0.0,0.0,0.0,0.0,0.0,0.0,2.4489,2.4173,2.408,2.2482,1.8235,0.999,0.1571,-0.6547,-1.415,0.0,0.0,0.0,0.0,0.0,0.0,0.0,0.0,-2.3606,-2.3735,-2.3837,-2.3937,-2.5133,-2.537,-2.4746,-2.5806,-2.594,-2.5303,-2.5423,-2.5488,0.0,0.0,0.0,0.0,0.0,0.0,0.0,0.0,0.0,0.0,0.0,0.0,0.0,0.0,0.0,0.0,0.0,0.0,0.0,0.0,0.0,0.0,0.0,-2.6135,0.0,0.0,0.0,0.0,0.0,-2.4781,0.0,-2.4113,-2.4094,-2.4112,-2.4089,-2.4743,-2.5564,-2.637,-2.71,0.0,0.0,0.0,0.0,0.0,0.0,0.0,0.0,0.0,0.0,0.0,0.0,0.0,0.0,0.0,-2.5176,-2.5193,-2.5855,-2.5839,-2.5044,-2.5756,-2.5789,-2.5127,-2.5595,-2.6064,-2.6484,-2.5699,0.0,0.0,0.0,0.0,0.0,-2.3797,-2.4156,-2.5041,-2.4905,-2.5619,-2.67,-2.6206,-2.6392,-2.6799,0.0,0.0,0.0,0.0,0.0,0.0,0.0,0.0,0.0,0.0,2.1782,1.8107,0.8303,0.1386,-0.5866,0.0,0.0,0.0,0.0,0.0,0.0,0.0,0.0,0.0,-2.3598,-2.3834,-2.4036,-2.421,-2.4715,-2.4919,-2.4861,-2.5278,-2.539,-2.522,-2.5313,-2.5393,0.0,0.0,0.0,0.0,0.0,0.0,0.0,0.0,0.0,0.0,-2.5612,-2.5598,0.0,0.0,0.0,0.0,0.0,0.0,0.0,0.0,-2.5171,-2.5145,-2.5124,0.0,-2.5071,-2.5039,-2.4838,-2.4653,0.0,-2.4376,-2.421,-2.419,0.0,-2.4354,-2.4959,-2.5688,-2.6469,-2.7273,0.0,0.0,0.0,0.0,0.0,0.0,0.0,0.0,0.0,0.0,0.0,0.0,0.0,0.0,0.0,0.0,-2.5992,-2.5955,-2.612,-2.559,-2.4265,-2.4994,-2.5276,-2.511,-2.5086,-2.5314,-2.581,-2.5474,0.0,0.0,0.0,0.0,-2.4853,-2.4949,-2.5151,-2.5371,-2.5297,-2.5766,-2.6405,-2.5603,-2.5738,-2.6178,0.0,0.0,0.0,0.0,0.0,0.0,0.0,0.0,0.0,0.0,0.0,0.0,0.0,0.0,0.0,0.0,0.0,0.0,0.0,0.0,0.0,0.0,0.0,-2.3664,-2.3594,-2.3792,-2.3958,-2.4077,-2.5115,-2.5527,-2.5385,-2.6289,-2.6359,-2.5731,-2.5475,-2.5406,0.0,0.0,0.0,0.0,-2.5668,0.0,0.0,0.0,0.0,0.0,-2.5611,-2.56,0.0,-2.5525,-2.5505,-2.549,0.0,0.0,0.0,0.0,-2.5293,-2.5264,-2.5053,-2.4823,-2.4639,-2.4596,-2.4515,-2.443,-2.4358,0.0,0.0,0.0,0.0,0.0,0.0,0.0,0.0,0.0,0.0,0.0,0.0,0.0,0.0,0.0,0.0,0.0,0.0,0.0,0.0,0.0,0.0,0.0,0.0,0.0,-2.5796,-2.5743,-2.569,-2.5309,-2.4514,-2.5243,-2.5441,-2.511,-2.5337,-2.5557,-2.5733,-2.5546,-2.5317,0.0,0.0,0.0,-2.5005,-2.5208,-2.5269,-2.5269,-2.5246,-2.5626,-2.6137,-2.5422,-2.5481,-2.5852,0.0,0.0,0.0,0.0,0.0,0.0,0.0,0.0,0.0,0.0,0.0,0.0,0.0,0.0,0.0,0.0,0.0,0.0,0.0,0.0,0.0,0.0,0.0,-2.3638,-2.3594,-2.375,-2.391,-2.406,-2.5737,-2.6377,-2.6129,-2.7606,-2.7612,-2.6364,-2.5809,-2.5549,0.0,0.0,0.0,0.0,-2.5634,0.0,0.0,0.0,0.0,0.0,0.0,0.0,0.0,-2.5529,-2.5506,-2.5485,-2.5426,0.0,0.0,0.0,0.0,0.0,-2.5186,-2.4956,-2.4746,-2.4704,-2.4599,-2.4482,-2.4412,0.0,0.0,0.0,0.0,0.0,0.0,0.0,0.0,0.0,0.0,0.0,0.0,0.0,0.0,0.0,0.0,0.0,0.0,0.0,0.0,0.0,0.0,0.0,0.0,0.0,0.0,-2.5346,-2.5294,-2.5276,-2.5276,-2.5789,-2.5723,-2.511,-2.574,-2.598,-2.5844,-2.5696,-2.547,0.0,0.0,0.0,-2.5005,-2.5005,-2.5005,-2.5005,-2.4966,-2.5378,-2.5937,-2.546,-2.5535,-2.5832,0.0,0.0,0.0,0.0,0.0,0.0,0.0,0.0,0.0,0.0,0.0,0.0,0.0,0.0,0.0,0.0,0.0,0.0,0.0,0.0,0.0,-2.3976,-2.3955,-2.3834,-2.3606,-2.3837,-2.4385,-2.5241,-2.5653,-2.6245,-2.7018,-2.7279,-2.7013,-2.632,-2.64,-2.6039,-2.5412,-2.5499,-2.551,-2.5504,-2.5581,0.0,0.0,0.0,0.0,0.0,0.0,0.0,0.0,-2.5593,-2.5554,-2.5492,-2.5495,0.0,0.0,0.0,0.0,0.0,-2.5378,-2.516,-2.4915,-2.4734,-2.4599,-2.4482,-2.4412,-2.4394,0.0,0.0,0.0,0.0,0.0,0.0,0.0,0.0,0.0,0.0,0.0,0.0,0.0,0.0,0.0,0.0,0.0,0.0,0.0,0.0,0.0,0.0,0.0,0.0,0.0,-2.6112,-2.6057,-2.6038,-2.6038,-2.5524,-2.5209,-2.511,-2.5209,-2.5398,-2.5659,-2.5605,-2.5394,0.0,0.0,-2.5005,-2.5005,-2.5005,-2.5005,-2.4966,-2.4862,-2.5278,-2.5881,-2.5701,-2.6013,-2.6556,0.0,0.0,0.0,0.0,0.0,0.0,0.0,0.0,0.0,0.0,0.0,0.0,0.0,0.0,0.0,0.0,0.0,0.0,0.0,0.0,0.0,-2.4634,-2.4693,-2.4595,-2.4411,-2.4675,-2.5237,-2.6147,-2.6669,-2.7213,-2.7809,-2.798,-2.7671,-2.6993,-2.6718,-2.6146,-2.5393,-2.5473,-2.5486,-2.5439,0.0,0.0,0.0,0.0,0.0,0.0,0.0,0.0,0.0,0.0,-2.5586,-2.5554,-2.5518,0.0,0.0,0.0,0.0,0.0,-2.5448,-2.5284,-2.5068,-2.4855,-2.4626,-2.4559,-2.4968,-2.4654,0.0,0.0,0.0,0.0,0.0,0.0,0.0,0.0,0.0,0.0,0.0,0.0,0.0,0.0,0.0,0.0,0.0,0.0,0.0,0.0,0.0,0.0,0.0,0.0,0.0,-2.6295,-2.6222,-2.622,-2.622,-2.5872,-2.5706,-2.5706,-2.5584,-2.5606,-2.577,-2.5546,-2.5317,-2.5178,0.0,-2.5005,-2.5005,-2.5005,-2.5005,-2.5005,-2.513,-2.5346,-2.5626,-2.5701,-2.612,-2.6657,0.0,0.0,0.0,0.0,0.0,0.0,0.0,0.0,0.0,0.0,0.0,0.0,0.0,0.0,0.0,0.0,0.0,0.0,0.0,0.0,-2.4551,-2.4972,-2.5397,-2.5578,-2.5433,-2.5719,-2.6261,-2.7056,-2.7746,-2.8294,-2.8634,-2.8736,-2.8354,-2.7546,-2.6901,-2.6146,-2.5401,-2.5466,-2.5459,-2.5441,0.0,0.0,0.0,0.0,0.0,0.0,0.0,0.0,0.0,0.0,0.0,0.0,0.0,0.0,0.0,-2.5499,-2.5498,-2.5495,-2.5492,-2.536,-2.5152,-2.4993,0.0,-2.4669,-2.5431,-2.506,0.0,0.0,0.0,0.0,0.0,0.0,0.0,0.0,0.0,0.0,0.0,0.0,0.0,0.0,0.0,0.0,0.0,0.0,0.0,0.0,0.0,0.0,0.0,0.0,-2.6434,-2.6347,-2.6258,-2.622,-2.622,-2.622,-2.622,-2.622,-2.6043,-2.5934,-2.5824,-2.5524,-2.5333,-2.5217,-2.5045,-2.5005,-2.5005,-2.5005,-2.5005,-2.5045,-2.5329,-2.5519,-2.5647,-2.5868,-2.6262,-2.6657,0.0,0.0,0.0,0.0,0.0,0.0,0.0,0.0,0.0,0.0,0.0,0.0,0.0,0.0,0.0,0.0,0.0,0.0,0.0,0.0,-2.4961,-2.4376,-2.5799,-2.6549,-2.6399,-2.6727,-2.7289,-2.809,-2.8278,-2.8782,-2.9589,-2.8988,-2.8278,-2.7483,-2.6862,-2.6146,-2.5395,-2.5464,-2.5492,-2.5499,-2.5565,0.0,0.0,0.0,0.0,0.0,0.0,0.0,0.0,0.0,0.0,0.0,0.0,0.0,-2.5499,-2.5499,-2.5498,-2.5495,-2.5492,-2.535,-2.5175,-2.5091,-2.4883,0.0,-2.5449,-2.5597,0.0,-2.6482,0.0,0.0,0.0,0.0,0.0,0.0,0.0,0.0,0.0,0.0,0.0,0.0,0.0,0.0,0.0,0.0,0.0,0.0,0.0,0.0,0.0,0.0,0.0,-2.6485,-2.631,-2.622,-2.622,-2.622,-2.622,-2.622,-2.6184,-2.5987,-2.5616,-2.5578,-2.5371,-2.5005,-2.5005,-2.5005,-2.5005,-2.5005,-2.5005,-2.5045,-2.5307,-2.5758,-2.626,-2.6521,-2.6657,-2.6691,0.0,0.0,0.0,0.0,0.0,0.0,0.0,0.0,0.0,0.0,0.0,0.0,0.0,0.0,0.0,0.0,0.0,0.0,0.0,-2.4688,-2.4857,-2.4968,-2.621,-2.7102,-2.7546,-2.7755,-2.8296,-2.912,-2.9176,-2.9382,-2.9701,-2.9572,-2.9087,-2.8284,-2.7635,-2.6921,-2.6167,-2.5661,-2.5445,-2.5453,-2.5518,-2.5576,0.0,0.0,0.0,0.0,0.0,0.0,0.0,0.0,-2.5654,-2.56,-2.5601,-2.5576,-2.5564,-2.5551,-2.5538,-2.5498,-2.5495,-2.535,-2.5163,-2.5061,-2.4874,0.0,0.0,-2.6096,-2.6097,-2.7263,-2.7735,0.0,0.0,0.0,0.0,0.0,0.0,0.0,0.0,0.0,0.0,0.0,0.0,0.0,0.0,0.0,0.0,0.0,0.0,0.0,0.0,0.0,0.0,-2.6382,-2.6274,-2.622,-2.622,-2.622,-2.622,-2.622,-2.6059,-2.586,-2.5584,-2.5486,-2.5256,-2.5005,-2.5005,-2.5005,-2.5005,-2.5005,-2.5107,-2.5329,-2.5631,-2.6156,-2.6725,-2.6538,-2.6556,-2.6657,0.0,0.0,0.0,0.0,0.0,0.0,0.0,0.0,0.0,0.0,0.0,0.0,0.0,0.0,0.0,0.0,0.0,0.0,-2.451,-2.4926,-2.53,-2.556,-2.6784,-2.7733,-2.8349,-2.8472,-2.8942,-2.9755,-2.9809,-2.9827,-2.9808,-2.9737,-2.9398,-2.8862,-2.8159,-2.745,-2.6691,-2.6091,-2.5704,-2.548,-2.5505,-2.5561,0.0,0.0,0.0,0.0,0.0,0.0,0.0,0.0,-2.5661,-2.5627,-2.5603,-2.56,-2.5593,-2.5564,-2.5478,-2.5422,-2.5488,-2.534,-2.5171,0.0,0.0,0.0,-2.6439,-2.6391,-2.6563,-2.8061,-2.8326,0.0,0.0,0.0,0.0,0.0,0.0,0.0,0.0,0.0,0.0,0.0,0.0,0.0,0.0,0.0,0.0,0.0,0.0,0.0,0.0,0.0,0.0,0.0,-2.6293,-2.6239,-2.622,-2.622,-2.622,-2.622,-2.6059,-2.586,-2.5605,-2.547,-2.524,-2.5005,-2.5005,-2.5005,-2.5005,-2.5005,-2.5246,-2.5705,-2.5997,-2.6453,-2.6909,-2.6572,-2.6453,-2.647,0.0,0.0,0.0,0.0,0.0,0.0,0.0,0.0,0.0,0.0,0.0,0.0,0.0,0.0,0.0,0.0,0.0,0.0,-2.4692,-2.5949,-2.647,-2.5925,-2.7499,-2.8506,-2.8707,-2.8768,-2.9167,-2.9888,-3.0038,-3.0102,-3.0083,-2.9346,-2.9037,-2.9088,-2.8343,-2.7561,-2.6825,-2.6805,-2.6339,-2.5607,-2.56,-2.56,-2.5603,0.0,0.0,0.0,0.0,0.0,0.0,0.0,-2.5703,-2.5698,-2.562,-2.5605,-2.56,-2.5518,-2.5352,-2.5245,-2.5448,-2.5351,0.0,0.0,0.0,0.0,-2.5973,-2.643,-2.7342,-2.8889,0.0,0.0,0.0,0.0,0.0,0.0,0.0,0.0,0.0,0.0,0.0,0.0,0.0,0.0,0.0,0.0,0.0,0.0,0.0,0.0,0.0,0.0,0.0,0.0,-2.6382,-2.6277,-2.622,-2.622,-2.622,-2.622,-2.622,-2.597,-2.5605,-2.5605,-2.5378,-2.5005,-2.5005,-2.5005,-2.5005,-2.5005,-2.5378,-2.601,-2.6279,-2.6607,-2.6876,-2.6742,-2.6436,-2.6087,0.0,0.0,0.0,0.0,0.0,0.0,0.0,0.0,0.0,0.0,0.0,0.0,0.0,0.0,0.0,0.0,0.0,0.0,-2.5471,-2.6516,-2.705,-2.688,-2.8082,-2.8779,-2.8836,-2.9456,-2.9865,-3.0038,-3.0087,-3.0102,-3.0102,-2.992,-2.9901,-2.9974,-2.9244,-2.8803,-2.8541,-2.7317,-2.665,-2.6378,-2.5832,-2.5593,-2.5601,0.0,0.0,0.0,0.0,0.0,0.0,0.0,0.0,0.0,-2.5618,-2.5605,-2.5595,-2.5518,-2.5453,-2.5421,-2.5429,-2.5215,0.0,-2.4962,0.0,0.0,0.0,-2.727,0.0,0.0,0.0,0.0,0.0,0.0,0.0,0.0,0.0,0.0,0.0,0.0,0.0,0.0,0.0,0.0,0.0,0.0,0.0,0.0,0.0,0.0,0.0,0.0,0.0,0.0,-2.631,-2.6239,-2.622,-2.622,-2.622,-2.622,-2.622,-2.597,-2.5605,-2.5605,-2.5378,-2.5005,-2.5005,-2.5005,-2.5005,-2.523,-2.5481,-2.5668,-2.6013,-2.612,-2.612,-2.6013,-2.5852,-2.5652,0.0,0.0,0.0,0.0,0.0,0.0,0.0,0.0,0.0,0.0,0.0,0.0,0.0,0.0,0.0,0.0,0.0,0.0,0.0,-2.7219,-2.777,-2.7854,-2.8522,-2.8897,-2.8937,-2.9689,-3.0113,-3.019,-3.0161,-3.0147,-3.0142,-3.0253,-3.0389,-3.0462,-3.0071,-2.9732,-2.9357,-2.797,-2.7381,-2.7279,-2.6481,-2.6155,-2.6158,0.0,0.0,0.0,0.0,0.0,0.0,0.0,0.0,0.0,-2.5657,-2.5625,-2.5571,-2.5418,-2.5357,-2.5322,-2.5255,0.0,0.0,0.0,0.0,0.0,0.0,0.0,0.0,0.0,0.0,0.0,0.0,0.0,0.0,0.0,0.0,0.0,0.0,0.0,0.0,0.0,0.0,0.0,0.0,0.0,0.0,0.0,0.0,0.0,0.0,0.0,0.0,0.0,-2.638,-2.6291,-2.622,-2.622,-2.622,-2.622,-2.622,-2.6023,-2.5733,-2.5733,-2.5508,-2.5123,-2.5045,-2.5005,-2.5045,-2.5368,-2.5465,-2.5497,-2.5868,-2.5977,-2.5977,-2.5758,-2.5721,-2.5652,0.0,0.0,0.0,0.0,0.0,0.0,0.0,0.0,0.0,0.0,0.0,0.0,0.0,0.0,0.0,0.0,0.0,0.0,0.0,0.0,-2.8634,-2.885,-2.8927,-2.9039,-2.9098,-2.962,-3.0049,-3.0292,-3.0226,-3.0213,-3.0202,-3.04,-3.0539,-3.061,-3.0734,-3.0318,-2.9455,-2.8711,-2.8337,-2.8154,-2.741,-2.7064,-2.7006,-2.7002,0.0,0.0,0.0,0.0,0.0,0.0,0.0,0.0,-2.5698,-2.5644,-2.5546,-2.5294,-2.5187,-2.5096,-2.5034,0.0,0.0,0.0,0.0,0.0,0.0,0.0,0.0,0.0,0.0,0.0,0.0,0.0,0.0,0.0,0.0,0.0,0.0,0.0,0.0,0.0,0.0,0.0,0.0,0.0,0.0,0.0,0.0,0.0,0.0,0.0,0.0,0.0,-2.6485,-2.638,-2.6203,-2.6203,-2.622,0.0,-2.622,-2.6096,-2.5934,-2.5897,-2.5659,-2.5294,-2.5084,-2.5005,-2.5005,-2.5346,-2.5422,-2.5378,-2.5754,-2.601,-2.6137,-2.5775,-2.5779,-2.5872,0.0,0.0,0.0,0.0,0.0,0.0,0.0,0.0,0.0,0.0,0.0,0.0,0.0,0.0,0.0,0.0,0.0,0.0,0.0,0.0,-2.976,-2.9953,-2.9832,-2.9775,-2.9789,-2.9916,-3.0071,-3.0292,-3.0221,-3.0221,-3.0279,-3.0378,-3.0492,-3.061,-3.0685,-3.0273,-2.9491,-2.9315,-2.8867,-2.8259,-2.8086,-2.7618,-2.7009,-2.7009,-2.6465,0.0,0.0,0.0,0.0,0.0,0.0,0.0,-2.5698,-2.5644,-2.5576,-2.5473,-2.5357,-2.5253,-2.5243,-2.5145,0.0,0.0,0.0,0.0,0.0,0.0,0.0,0.0,0.0,0.0,0.0,0.0,0.0,0.0,0.0,0.0,0.0,0.0,0.0,0.0,0.0,0.0,0.0,0.0,0.0,0.0,0.0,0.0,0.0,0.0,0.0,-2.6589,-2.6434,-2.6295,-2.6277,-2.6239,-2.622,0.0,-2.622,-2.6184,-2.6132,-2.597,-2.5659,-2.5294,-2.5084,-2.5005,-2.5005,-2.5068,-2.5107,-2.5084,-2.495,-2.5114,-2.5422,-2.5176,-2.5098,-2.5121,0.0,0.0,0.0,0.0,0.0,0.0,0.0,0.0,0.0,0.0,0.0,0.0,0.0,0.0,0.0,0.0,0.0,0.0,0.0,0.0,-3.009,-3.0147,-2.9962,-2.9915,-3.006,-2.9931,-3.0007,-3.0349,-3.0286,-3.0273,-3.0299,-3.0432,-3.0537,-3.0603,-3.07,-3.0513,-3.0066,-2.9269,-2.8915,-2.8795,-2.7995,-2.7403,-2.7006,-2.7009,-2.6465,-2.5694,-2.5691,0.0,0.0,0.0,0.0,0.0,0.0,0.0,-2.5535,-2.5401,-2.5329,-2.5273,0.0,0.0,0.0,0.0,0.0,0.0,0.0,0.0,0.0,0.0,0.0,0.0,0.0,0.0,0.0,0.0,0.0,0.0,0.0,0.0,0.0,0.0,0.0,0.0,0.0,0.0,0.0,0.0,0.0,0.0,0.0,-2.6674,-2.6623,-2.6606,-2.6503,-2.6417,-2.6295,-2.6277,-2.6222,-2.622,-2.622,-2.622,-2.6168,-2.5881,-2.5621,-2.541,-2.5139,-2.5005,-2.5005,-2.5005,-2.4966,-2.4902,-2.4726,-2.4974,-2.5384,-2.5114,-2.5214,-2.5427,0.0,0.0,0.0,0.0,0.0,0.0,0.0,0.0,0.0,0.0,0.0,0.0,0.0,0.0,0.0,0.0,0.0,0.0,0.0,0.0,0.0,-2.9977,-2.9782,-2.9801,-3.0045,-2.9851,-2.9962,-3.0398,-3.0348,-3.0316,-3.0316,-3.0501,-3.0587,-3.06,-3.0739,-3.0716,-3.0509,-2.9103,-2.8828,-2.9171,-2.7786,-2.713,-2.7002,-2.699,-2.6465,-2.5699,-2.5709,-2.5705,-2.5707,-2.5707,0.0,0.0,0.0,0.0,-2.5485,-2.5302,-2.5281,-2.5282,0.0,0.0,0.0,0.0,0.0,0.0,0.0,0.0,0.0,0.0,0.0,0.0,0.0,0.0,0.0,0.0,0.0,0.0,0.0,0.0,0.0,0.0,0.0,0.0,0.0,0.0,0.0,0.0,0.0,0.0,-2.6691,-2.6573,-2.6539,-2.6589,-2.6488,-2.6369,-2.6347,-2.6179,-2.6094,-2.6021,-2.6021,-2.6052,-2.6132,-2.577,-2.5584,-2.5562,-2.5162,-2.5005,-2.5005,-2.4982,-2.4902,-2.4782,-2.4742,-2.5107,-2.5551,-2.5208,-2.5406,-2.5799,0.0,0.0,0.0,0.0,0.0,0.0,0.0,0.0,0.0,0.0,0.0,0.0,0.0,0.0,0.0,0.0,0.0,0.0,-3.0075,0.0,0.0,-2.9918,-2.9715,-2.9697,-2.9918,-2.9886,-3.0041,-3.0398,-3.0398,-3.0398,-3.0379,-3.0472,-3.0535,-3.06,-3.0672,-3.0365,-2.9747,-2.9513,-2.9045,-2.8437,-2.8223,-2.7663,-2.7008,-2.6992,-2.6463,-2.5699,-2.5701,-2.5698,-2.5707,-2.5707,-2.5707,0.0,0.0,0.0,-2.5561,-2.5485,-2.5425,-2.5359,0.0,0.0,0.0,0.0,0.0,0.0,0.0,0.0,0.0,0.0,0.0,0.0,0.0,0.0,0.0,0.0,0.0,0.0,0.0,0.0,0.0,0.0,0.0,0.0,0.0,0.0,0.0,0.0,0.0,0.0,-2.6691,-2.6099,-2.6048,-2.6691,-2.6,-2.5916,-2.6468,-2.5731,-2.5312,-2.5259,-2.5259,-2.5469,-2.5934,-2.568,-2.5605,-2.5584,-2.5162,-2.5005,-2.5005,-2.4862,-2.4822,-2.4782,-2.462,-2.4806,-2.5169,-2.4997,-2.4981,-2.5082,0.0,0.0,0.0,0.0,0.0,0.0,0.0,0.0,0.0,0.0,0.0,0.0,0.0,0.0,0.0,-2.9263,-2.9677,-2.9965,-3.0095,-3.0109,-2.9988,-2.9732,-2.9769,-2.982,-2.9902,-2.9962,-3.0142,-3.0398,-3.0398,-3.0398,0.0,-3.051,-3.0564,-3.06,-3.0715,-3.0576,-3.0216,-2.9279,-2.8654,-2.8205,-2.7249,-2.6607,-2.6262,-2.6269,-2.6032,-2.5698,-2.5701,-2.5693,-2.5698,-2.5705,-2.5707,-2.5707,-2.5707,0.0,0.0,0.0,-2.5437,0.0,-2.5253,0.0,0.0,0.0,0.0,0.0,0.0,0.0,0.0,0.0,0.0,0.0,0.0,0.0,0.0,0.0,0.0,0.0,0.0,0.0,0.0,0.0,0.0,0.0,0.0,0.0,0.0,0.0,0.0,-2.6522,-2.6116,-2.5795,-2.5761,-2.6065,-2.5745,-2.568,-2.595,-2.5514,-2.5229,-2.511,-2.511,-2.5456,-2.6059,-2.5749,-2.5562,-2.5432,-2.5123,-2.5005,-2.5021,-2.4942,-2.4806,-2.4686,-2.4605,-2.4751,-2.4997,-2.516,-2.5237,-2.5275,0.0,0.0,0.0,0.0,0.0,0.0,0.0,0.0,0.0,0.0,0.0,0.0,0.0,0.0,0.0,0.0,-2.9981,-3.0007,-3.0089,-3.008,-2.9946,-2.9698,-2.9769,-2.9851,-2.9965,-3.0052,-3.0196,-3.0398,-3.0398,-3.0398,-3.041,-3.0535,-3.0593,0.0,-3.0732,-3.0801,-3.0684,-2.9006,-2.8303,-2.8147,-2.641,-2.5691,-2.5697,-2.5683,-2.5677,-2.5673,-2.5671,-2.5681,-2.5665,-2.5676,-2.5679,-2.5679,-2.5679,-2.5629,0.0,0.0,0.0,0.0,0.0,0.0,0.0,0.0,0.0,0.0,0.0,0.0,0.0,0.0,0.0,0.0,0.0,0.0,0.0,0.0,0.0,0.0,0.0,0.0,0.0,0.0,0.0,0.0,0.0,0.0,0.0,0.0,0.0,-2.6099,-2.5355,-2.5507,-2.5609,-2.5609,-2.5423,-2.539,-2.5495,-2.5028,-2.4713,-2.4547,-2.4746,-2.5175,-2.5832,-2.5668,-2.5389,-2.5022,-2.5005,-2.5005,-2.5005,-2.4966,-2.4806,-2.4589,-2.471,-2.4815,-2.4942,-2.5351,-2.5427,-2.5389,0.0,0.0,0.0,0.0,0.0,0.0,0.0,0.0,0.0,0.0,0.0,0.0,-2.8943,-2.956,-2.998,-3.0171,-3.0177,-3.0169,-3.0089,-2.9977,-2.9902,-2.9886,-2.9716,0.0,-3.0075,-3.0109,-3.0196,-3.0398,0.0,0.0,-3.041,-3.0535,-3.0593,-3.06,-3.0732,-3.0801,-3.0684,0.0,0.0,0.0,-2.641,-2.5697,-2.5684,-2.5637,0.0,0.0,0.0,-2.5604,-2.5601,-2.5605,-2.5605,-2.5605,0.0,0.0,0.0,0.0,0.0,0.0,0.0,0.0,0.0,0.0,0.0,0.0,0.0,0.0,0.0,0.0,0.0,0.0,0.0,0.0,0.0,0.0,0.0,0.0,0.0,0.0,0.0,0.0,0.0,0.0,0.0,0.0,0.0,0.0,0.0,-2.5338,-2.4608,-2.522,-2.5609,-2.5609,-2.4915,-2.485,-2.5479,-2.3926,-2.31,-2.3023,-2.3719,-2.4331,-2.4882,-2.5371,-2.5121,-2.4271,-2.4782,-2.5005,-2.5005,-2.4862,-2.4726,-2.463,-2.4934,-2.4997,-2.4942,-2.5351,-2.5275,-2.5059,0.0,0.0,0.0,0.0,0.0,0.0,0.0,0.0,0.0,0.0,0.0,0.0,0.0,-2.9973,-3.0109,-3.0184,-3.0328,-3.0336,-3.0182,-3.0128,-3.0041,-2.9902,-2.9915,-2.9973,-3.0109,-3.0241,-3.0343,-3.0398,-3.0398,-3.0398,-3.041,-3.0492,-3.056,-3.06,-3.0732,-3.0801,-3.0684,-2.9006,0.0,0.0,0.0,0.0,0.0,0.0,0.0,0.0,0.0,0.0,0.0,0.0,0.0,0.0,0.0,0.0,0.0,0.0,0.0,0.0,0.0,0.0,0.0,0.0,0.0,0.0,0.0,0.0,0.0,0.0,0.0,0.0,0.0,0.0,0.0,0.0,0.0,0.0,0.0,0.0,0.0,0.0,0.0,0.0,0.0,0.0,0.0,0.0,0.0,0.0,-2.4557,-2.5203,-2.5389,-2.4898,-2.4659,-2.436,-2.4082,-2.2949,-2.2545,-2.2984,-2.3187,-2.3885,-2.499,-2.4587,-2.4359,-2.439,-2.4441,-2.4401,-2.4302,-2.4515,-2.477,-2.5036,-2.5422,-2.5291,-2.4981,-2.5652,-2.5652,-2.5351,0.0,0.0,0.0,0.0,0.0,0.0,0.0,0.0,0.0,-2.9684,0.0,0.0,0.0,0.0,-3.0275,-3.029,-3.0428,-3.0417,-3.0209,-3.0209,-3.0142,-3.0011,-3.0099,-3.015,-3.0196,-3.0035,-3.0121,-3.0398,-3.0121,-3.0121,-3.041,-3.0472,-3.0535,-3.06,-3.072,-3.0771,0.0,0.0,0.0,-2.8147,0.0,0.0,-2.5683,0.0,0.0,0.0,0.0,0.0,0.0,0.0,0.0,0.0,0.0,0.0,0.0,0.0,0.0,0.0,-2.5322,0.0,0.0,0.0,0.0,0.0,0.0,0.0,0.0,0.0,0.0,0.0,0.0,0.0,0.0,0.0,0.0,0.0,0.0,0.0,0.0,0.0,0.0,0.0,0.0,0.0,0.0,0.0,0.0,0.0,-2.4692,-2.5486,-2.5571,-2.4645,-2.4299,-2.3795,-2.3078,-2.2365,-2.222,-2.2632,-2.2806,-2.3404,-2.4348,-2.3984,-2.3799,-2.3802,-2.3903,-2.3925,-2.3939,-2.4425,-2.4754,-2.5036,-2.5572,-2.5481,-2.5198,-2.6016,-2.6068,-2.5762,0.0,0.0,0.0,0.0,0.0,0.0,0.0,0.0,-3.0629,-3.0684,0.0,0.0,0.0,0.0,0.0,-3.0501,-3.0511,-3.0411,-3.0222,-3.0209,-3.0216,-3.0209,-3.0209,-3.0267,-3.0398,-2.9563,-2.9544,-3.0398,-2.9544,-2.9563,-3.041,-3.0472,-3.0535,-3.06,-3.0647,-3.0693,-3.0665,0.0,-2.8283,-2.811,0.0,-2.5703,-2.5683,0.0,0.0,0.0,-2.5604,-2.5601,0.0,0.0,0.0,0.0,0.0,0.0,0.0,0.0,0.0,0.0,0.0,0.0,0.0,0.0,0.0,0.0,0.0,0.0,0.0,0.0,0.0,0.0,0.0,0.0,0.0,0.0,0.0,0.0,0.0,0.0,0.0,0.0,0.0,0.0,0.0,0.0,0.0,0.0,0.0,-2.4705,-2.5017,-2.6104,-2.6143,-2.4947,-2.3947,-2.317,-2.2649,-2.2231,-2.1986,-2.1899,-2.254,-2.2874,-2.2907,-2.3618,-2.3391,-2.2459,-2.3174,-2.361,-2.3907,-2.4571,-2.4751,-2.471,-2.5443,-2.5615,-2.5615,-2.6368,-2.6419,-2.6175,0.0,0.0,0.0,0.0,0.0,0.0,-3.0565,-3.0562,-3.0591,0.0,0.0,0.0,-3.0769,-3.0703,-3.0667,-3.065,-3.0645,-3.0626,-3.0559,-3.0559,-3.054,-3.0482,-3.0443,-3.0413,-3.0406,-3.0171,-3.016,-3.0398,-3.016,-3.016,-3.041,-3.0472,-3.0535,0.0,-3.0058,-2.9874,-2.9865,-2.8752,0.0,0.0,-2.6142,-2.5664,0.0,0.0,0.0,0.0,0.0,-2.5601,-2.5601,0.0,-2.5601,-2.5601,0.0,0.0,0.0,0.0,0.0,0.0,-2.5243,0.0,0.0,0.0,0.0,0.0,0.0,0.0,0.0,0.0,0.0,0.0,0.0,0.0,0.0,0.0,0.0,0.0,0.0,0.0,0.0,0.0,0.0,0.0,0.0,0.0,0.0,0.0,-2.5103,-2.5647,-2.6125,-2.6221,-2.6011,-2.5414,-2.4622,-2.3863,-2.3204,-2.2971,-2.2568,-2.1969,-2.2039,-2.2377,-2.2874,-2.2709,-2.2682,-2.2781,-2.3121,-2.3224,-2.321,-2.4484,-2.5208,-2.5556,-2.5764,-2.5899,-2.5914,-2.5916,-2.5983,-2.6175,0.0,0.0,0.0,0.0,0.0,-3.0231,-3.0559,-3.0561,-3.0555,0.0,0.0,0.0,-3.1711,-3.1758,-3.1592,-3.1226,-3.1227,-3.109,-3.0726,-3.0701,-3.0664,-3.0607,-3.0552,-3.0491,-3.0398,-3.0067,-3.0056,-3.0398,-3.0044,-3.0044,-3.041,-3.0472,-3.0535,-3.0581,0.0,0.0,0.0,0.0,0.0,0.0,-2.6047,0.0,0.0,-2.5605,-2.5597,0.0,0.0,0.0,-2.5601,-2.5601,-2.5601,0.0,0.0,0.0,0.0,0.0,0.0,0.0,0.0,0.0,0.0,0.0,0.0,0.0,0.0,-2.4968,0.0,0.0,0.0,0.0,0.0,0.0,0.0,0.0,0.0,0.0,0.0,0.0,0.0,0.0,0.0,0.0,0.0,0.0,0.0,-2.4885,-2.5675,-2.6392,-2.7028,-2.6672,-2.6324,-2.5983,-2.4863,-2.4035,-2.3551,-2.3088,-2.263,-2.2175,-2.2118,-2.2324,-2.2727,-2.2474,-2.2434,-2.2578,-2.3076,-2.3257,-2.3372,-2.4729,-2.5327,-2.5497,-2.59,-2.6101,-2.6177,-2.6084,-2.6185,-2.6385,0.0,0.0,-2.6435,-2.9834,-3.0279,-3.026,-3.0568,-3.0704,-3.0791,0.0,-3.1479,-3.2237,-3.3003,-3.3165,-3.2883,-3.2129,-3.2038,-3.1682,-3.0915,-3.0771,-3.0697,-3.0632,-3.0632,-3.0552,-3.043,-2.9706,-2.9685,-3.041,-2.9621,-2.964,-3.041,-3.0385,-3.0408,-3.0418,0.0,0.0,0.0,0.0,0.0,-2.6919,-2.6053,-2.57,0.0,0.0,-2.5609,0.0,-2.5595,-2.5599,-2.5607,-2.5601,-2.5601,0.0,0.0,0.0,0.0,0.0,-2.5401,0.0,0.0,0.0,0.0,0.0,0.0,0.0,-2.4968,-2.4883,0.0,0.0,0.0,0.0,0.0,0.0,0.0,0.0,0.0,0.0,0.0,0.0,0.0,0.0,0.0,0.0,0.0,-2.4139,-2.4771,-2.5438,-2.6319,-2.7095,-2.7707,-2.7352,-2.6979,-2.6619,-2.5112,-2.4219,-2.3981,-2.3134,-2.263,-2.2432,-2.247,-2.2497,-2.2515,-2.2632,-2.2508,-2.2203,-2.3078,-2.3624,-2.3965,-2.5107,-2.5346,-2.5073,-2.5929,-2.6298,-2.6383,-2.6539,-2.6623,-2.6691,0.0,0.0,-2.0771,-2.8651,-3.0629,-3.1197,-3.1364,-3.1949,-3.2385,-3.2512,-3.2667,-3.2859,-3.3075,-3.3155,-3.3151,-3.3044,-3.245,-3.2011,-3.1836,-3.1211,-3.0834,-3.0762,-3.0716,-3.0647,-3.0571,-3.0354,-3.0289,-3.0406,-3.0229,-3.0237,-3.039,-2.9803,-2.9535,-2.9479,0.0,0.0,0.0,0.0,0.0,-2.6919,-2.6046,0.0,-2.5703,-2.5681,-2.5655,-2.5607,-2.5598,-2.5597,-2.56,0.0,-2.5601,-2.5601,0.0,0.0,0.0,0.0,0.0,0.0,0.0,0.0,0.0,0.0,0.0,0.0,-2.5137,-2.5125,0.0,0.0,0.0,0.0,0.0,0.0,0.0,0.0,0.0,0.0,0.0,0.0,0.0,0.0,0.0,0.0,0.0,-2.3858,-2.454,-2.5955,-2.7396,-2.8156,-2.8047,-2.7932,-2.7751,-2.7455,-2.7145,-2.6381,-2.511,-2.4843,-2.4056,-2.2712,-2.2616,-2.2554,-2.2515,-2.2685,-2.2685,-2.2559,-2.3522,-2.3908,-2.3927,-2.5373,-2.6092,-2.6219,-2.6128,-2.6364,-2.6708,-2.6097,-2.6249,-2.6691,0.0,-1.785,-2.4052,-2.8851,-3.048,-3.117,-3.1329,-3.2123,-3.2756,-3.2878,-3.3287,-3.3732,-3.4244,-3.4387,-3.414,-3.3375,-3.2957,-3.2393,-3.1558,-3.1111,-3.0879,-3.0806,-3.076,-3.0712,-3.0639,-3.0613,-3.0552,-3.0443,-3.0451,-3.0218,-2.9794,-2.9458,-2.9111,-2.8704,-2.7524,0.0,0.0,0.0,-2.6195,-2.6919,-2.6041,0.0,-2.6305,-2.5879,-2.5683,-2.5659,-2.5613,-2.559,-2.5332,-2.3586,-2.4424,0.0,0.0,-2.4496,-2.6197,0.0,-2.5828,-2.5509,0.0,0.0,0.0,-2.5214,0.0,0.0,0.0,-2.5013,0.0,0.0,0.0,0.0,0.0,0.0,0.0,0.0,0.0,0.0,0.0,0.0,0.0,0.0,0.0,0.0,0.0,-2.4157,-2.5063,-2.6693,-2.747,-2.8034,-2.8334,-2.8352,-2.8201,-2.7897,-2.7525,-2.6922,-2.6026,-2.5666,-2.4848,-2.3554,-2.3552,-2.3284,-2.2816,-2.2868,-2.305,-2.3369,-2.3804,-2.4365,-2.5023,-2.5781,-2.6385,-2.6841,-2.658,-2.6666,-2.6908,-2.6384,-2.6403,-2.6691,-1.4441,0.0,-2.8913,-2.9468,-3.0333,-3.1049,-3.145,-3.2351,-3.3058,-3.3223,-3.3887,-3.4639,-3.5374,-3.559,0.0,-3.3855,-3.352,-3.2809,0.0,0.0,-3.0859,-3.0816,-3.0811,-3.0794,-3.0726,-3.0711,-3.0639,-3.0527,-3.0354,-2.9891,-2.9196,-2.8946,-2.8518,0.0,0.0,0.0,0.0,0.0,0.0,-2.6919,0.0,-2.6214,-2.6901,-2.6033,-2.5703,-2.5683,-2.564,-2.5618,-2.5204,-2.2547,0.0,-2.6249,-2.2993,-2.4236,0.0,0.0,0.0,0.0,0.0,0.0,0.0,0.0,0.0,-2.5137,0.0,0.0,0.0,0.0,0.0,0.0,0.0,0.0,0.0,0.0,0.0,0.0,0.0,0.0,0.0,0.0,0.0,0.0,0.0,-2.4516,-2.5507,-2.6784,-2.7072,-2.7522,-2.824,-2.8446,-2.844,-2.8174,-2.7593,-2.7121,-2.6755,-2.6268,-2.5539,-2.4582,-2.4541,-2.4173,-2.3558,-2.335,-2.3641,-2.4311,-2.4351,-2.5011,-2.6126,-2.6281,-2.6664,-2.7135,-2.7055,-2.7007,-2.6942,-2.6792,-2.664,-2.6505,-1.2433,-2.1428,-2.8821,-2.971,-3.0722,-3.1778,-3.2788,-3.3761,-3.449,-3.4807,-3.5082,0.0,0.0,0.0,0.0,0.0,0.0,0.0,-3.311,0.0,0.0,-3.0898,-3.0898,-3.0858,-3.0796,-3.0723,-3.0667,-3.0582,-2.9819,-2.9369,-2.9177,-2.7809,-2.7128,0.0,-2.6208,0.0,0.0,0.0,-2.6199,0.0,-2.6058,-2.6214,0.0,-2.6026,-2.5694,-2.5693,-2.5683,-2.5658,-2.5651,0.0,-2.65,-2.6922,0.0,-2.7045,0.0,0.0,0.0,0.0,0.0,0.0,0.0,0.0,-2.5191,0.0,0.0,0.0,0.0,0.0,0.0,0.0,0.0,0.0,0.0,0.0,0.0,0.0,0.0,0.0,0.0,0.0,0.0,0.0,0.0,0.0,-2.4936,-2.5004,-2.6379,-2.7205,-2.7173,-2.7976,-2.8406,-2.838,-2.8394,-2.8048,-2.7319,-2.7236,-2.6662,-2.5608,-2.498,-2.4857,-2.5121,-2.4453,-2.448,-2.5094,-2.5756,-2.6039,-2.6161,-2.6868,-2.7213,-2.725,-2.7152,-2.7023,-2.6926,-2.6893,-2.6385,-2.5828,-1.8936,-2.4641,0.0,-2.9332,-3.0655,-3.196,-3.2937,-3.4043,-3.4851,0.0,0.0,0.0,0.0,0.0,0.0,0.0,0.0,-3.3078,0.0,0.0,0.0,0.0,0.0,0.0,-3.0858,-3.0832,-3.0768,-3.0656,-3.0292,-2.9588,-2.8618,-2.797,-2.7149,0.0,-2.5845,0.0,-2.5691,0.0,0.0,0.0,0.0,0.0,0.0,-2.6021,-2.6002,-2.6394,-2.5879,-2.6306,-2.6788,0.0,-2.5532,0.0,0.0,0.0,0.0,0.0,0.0,0.0,0.0,0.0,0.0,0.0,0.0,0.0,0.0,0.0,-2.5139,0.0,0.0,0.0,0.0,0.0,0.0,0.0,0.0,0.0,0.0,0.0,0.0,0.0,0.0,0.0,0.0,0.0,0.0,0.0,0.0,-2.6126,-2.6942,-2.737,-2.7843,-2.838,-2.8458,-2.8348,-2.808,-2.808,-2.7565,-2.6496,-2.6201,-2.5816,-2.5384,-2.5085,-2.5312,-2.5981,-2.6202,-2.6514,-2.6878,-2.7192,-2.7218,-2.7122,-2.7055,-2.7007,-2.6942,-2.6825,-2.6284,-2.571,-2.3562,0.0,0.0,0.0,-3.0704,-3.2127,-3.3199,-3.4212,0.0,0.0,0.0,0.0,-3.5302,-3.5213,0.0,0.0,0.0,-3.2979,0.0,0.0,-3.1064,0.0,0.0,0.0,0.0,0.0,-3.0733,-3.0368,-3.0154,-2.9285,-2.7833,-2.7612,-2.6877,-2.5691,0.0,-2.5824,-2.6044,0.0,0.0,-2.7308,-2.6841,-2.6646,-2.6566,-2.5941,-2.6236,-2.6884,-2.6015,-2.6797,-2.7733,-2.4559,-2.5703,0.0,-2.5821,0.0,0.0,0.0,0.0,0.0,-2.6498,0.0,0.0,0.0,0.0,0.0,0.0,0.0,0.0,0.0,0.0,0.0,0.0,0.0,0.0,0.0,0.0,0.0,0.0,0.0,0.0,0.0,0.0,0.0,0.0,0.0,0.0,0.0,-2.4504,-2.5216,-2.6481,-2.681,-2.7371,-2.8255,-2.8327,-2.8406,-2.8536,-2.8554,-2.8144,-2.7317,-2.7103,-2.6668,-2.6016,-2.5795,-2.6072,-2.6766,-2.6643,-2.6883,-2.7393,-2.733,-2.7186,-2.704,-2.7007,-2.704,-2.7038,-2.6791,-2.6234,-2.571,-2.2784,-2.5982,0.0,0.0,0.0,0.0,0.0,0.0,0.0,0.0,0.0,0.0,0.0,0.0,0.0,0.0,0.0,-3.3004,-3.3258,0.0,-3.1675,0.0,0.0,-3.0896,0.0,0.0,0.0,-2.9546,-2.8752,-2.7886,-2.6918,-2.6142,-2.5746,-2.5707,0.0,-2.6119,-2.6898,-2.5999,-2.6627,-2.8108,-2.6429,-2.5746,-2.5746,0.0,-2.6238,-2.6885,-2.6003,0.0,0.0,-2.8065,-2.8642,0.0,0.0,0.0,0.0,0.0,0.0,0.0,0.0,0.0,0.0,-2.5322,0.0,0.0,0.0,0.0,-2.5044,0.0,0.0,0.0,0.0,0.0,0.0,-2.3685,0.0,0.0,0.0,0.0,0.0,0.0,0.0,0.0,0.0,0.0,0.0,-2.3154,-2.3982,-2.4784,-2.5428,-2.6294,-2.7199,-2.7979,-2.8136,-2.8273,-2.8424,-2.8424,-2.8309,-2.8165,-2.7353,-2.7236,-2.7596,-2.6836,-2.6836,-2.7461,-2.7386,-2.7327,-2.7282,-2.7299,-2.7233,-2.7103,-2.704,-2.7135,-2.7241,-2.6841,-2.6234,-2.5742,0.0,0.0,0.0,0.0,0.0,0.0,0.0,-3.434,0.0,0.0,0.0,0.0,0.0,0.0,-3.468,0.0,0.0,-3.2193,-3.2422,-3.1679,0.0,0.0,0.0,-3.0895,0.0,0.0,0.0,0.0,0.0,0.0,-2.6969,-2.7286,-2.682,-2.5707,0.0,-2.5804,0.0,0.0,0.0,0.0,0.0,-2.639,-2.7366,0.0,0.0,-2.7759,-2.6862,-2.8019,0.0,-2.9257,-2.8864,-2.8875,-3.0205,-2.968,-2.8592,-2.8826,-2.8307,0.0,0.0,0.0,-2.5572,-2.5986,0.0,0.0,0.0,0.0,0.0,0.0,0.0,0.0,0.0,0.0,-2.4766,-2.4473,-2.4634,0.0,0.0,0.0,0.0,0.0,0.0,0.0,0.0,0.0,0.0,-2.3126,-2.3512,-2.4032,0.0,-2.4963,-2.5782,-2.7154,-2.7244,-2.7602,-2.8255,-2.8273,-2.8191,-2.8053,-2.7786,-2.7674,-2.7683,-2.7408,-2.7385,-2.7557,-2.7513,-2.7421,-2.7345,-2.733,-2.7345,-2.7355,-2.7341,-2.7417,-2.7535,-2.7164,-2.6619,-2.6092,-2.4734,0.0,0.0,0.0,0.0,0.0,0.0,0.0,0.0,0.0,-3.5456,0.0,-3.5601,0.0,-3.4467,0.0,-3.2906,-3.2106,-3.1974,-3.1507,0.0,-3.0806,-3.0838,0.0,0.0,0.0,0.0,0.0,0.0,-2.9428,-2.7471,-2.7719,-2.7249,-2.6136,0.0,0.0,0.0,0.0,-2.5967,0.0,0.0,-2.7308,0.0,0.0,-2.762,-2.7756,0.0,-2.8248,-2.9773,-2.8906,-2.8652,-2.8827,-2.9523,-2.9435,-2.9031,-2.8914,-2.8725,-2.848,-2.816,-2.7234,0.0,-2.694,-2.6611,0.0,-2.552,0.0,0.0,0.0,0.0,0.0,0.0,0.0,0.0,-2.4902,-2.4818,-2.4719,0.0,-2.4391,0.0,0.0,0.0,0.0,0.0,0.0,-2.358,-2.3126,-2.3217,-2.3576,0.0,0.0,-2.5051,-2.6682,-2.6735,-2.7189,-2.8119,-2.8136,-2.8081,-2.8014,-2.8014,-2.7893,-2.7701,-2.7672,-2.763,-2.7557,-2.7496,-2.7483,-2.7496,-2.7452,-2.7526,-2.7689,-2.7642,-2.776,-2.7858,-2.7504,-2.7143,-2.6825,0.0,0.0,0.0,0.0,-3.1567,0.0,0.0,0.0,-3.4117,0.0,-3.4573,-3.468,-3.4741,-3.415,-3.3849,-3.4064,-3.3371,0.0,-3.1961,-3.1923,0.0,0.0,-3.0798,-3.0808,-3.0801,0.0,0.0,0.0,0.0,0.0,-2.8271,-2.7409,-2.6997,-2.6954,-2.5946,0.0,-2.6876,-2.5941,-2.6641,-2.8359,-2.8301,-2.832,-2.8359,-2.8362,-2.7815,-2.7056,-2.7056,-2.7624,-2.8232,-2.7409,-2.8235,-2.9453,-2.859,-2.9441,-3.0401,-2.8727,-2.8787,-2.9207,-2.8365,-2.8078,-2.8004,-2.8057,0.0,0.0,0.0,0.0,-2.6123,0.0,0.0,0.0,0.0,0.0,0.0,-2.4921,-2.4794,-2.4707,-2.4707,0.0,0.0,0.0,0.0,0.0,0.0,-2.3535,-2.3371,-2.3126,-2.3102,-2.3435,0.0,0.0,-2.4954,-2.649,-2.6542,-2.7032,-2.7968,-2.7986,-2.7986,-2.7986,-2.7986,-2.7911,-2.7701,-2.7659,-2.7587,-2.7526,-2.7452,-2.7557,-2.773,-2.773,-2.7829,-2.801,-2.7954,-2.8037,-2.8156,-2.7858,-2.78,-2.7869,-2.4906,-2.7902,-3.0084,0.0,-3.1165,-3.2245,0.0,0.0,0.0,0.0,-3.5357,-3.5423,-3.5357,-3.4858,-3.4338,-3.3926,-3.2699,0.0,0.0,0.0,0.0,-3.0818,-3.0798,-3.0808,-3.0801,-3.0818,0.0,-2.9604,0.0,0.0,-2.821,-2.7386,-2.6969,0.0,0.0,0.0,-2.5983,-2.632,-2.7498,-2.9063,-2.8478,-2.8614,0.0,0.0,-2.8732,-2.7971,-2.7971,-2.8539,-2.9223,-2.9008,-2.9226,-2.9663,-3.0019,-2.9994,-2.984,-2.993,-2.9694,-2.9479,-2.984,-2.8982,-2.8133,-2.8675,-2.8317,-2.7747,0.0,0.0,0.0,0.0,0.0,0.0,0.0,0.0,0.0,0.0,0.0,0.0,0.0,0.0,0.0,-2.4547,0.0,0.0,0.0,-2.3696,-2.3455,-2.3324,-2.3312,-2.3324,0.0,0.0,0.0,-2.5665,-2.5717,-2.6377,-2.776,-2.776,-2.776,-2.776,-2.776,-2.776,-2.7701,-2.7897,-2.7897,-2.78,-2.7992,-2.8047,-2.7992,-2.7926,-2.8083,-2.8291,-2.821,-2.8255,-2.8335,-2.8146,-2.8035,-2.794,-2.5124,0.0,0.0,-3.0964,0.0,0.0,-3.3135,0.0,0.0,-3.4816,-3.4995,0.0,-3.5019,-3.4934,-3.4584,-3.3865,-3.2859,0.0,0.0,0.0,0.0,-3.0745,-3.0778,-3.0799,-3.0801,-3.08,0.0,-3.0111,0.0,0.0,-2.9264,-2.8053,0.0,0.0,0.0,-2.5498,0.0,-2.6454,-2.7587,-2.8816,-2.8713,0.0,0.0,-3.0065,-2.9533,-2.8792,-2.8845,-2.8947,-2.9025,-2.9025,-2.9285,-2.9604,-2.9687,-2.9882,-3.0111,-3.0123,-3.0044,-3.0055,-3.0471,-2.9879,-2.9235,-2.9651,-2.938,-2.8897,-2.8368,-2.828,-2.8206,0.0,0.0,0.0,0.0,0.0,0.0,0.0,0.0,0.0,0.0,0.0,0.0,0.0,0.0,0.0,0.0,-2.3801,-2.3495,-2.3558,-2.3468,-2.3353,0.0,0.0,0.0,-2.4901,-2.5226,-2.6036,-2.7374,-2.771,-2.7926,-2.8047,-2.8047,-2.8047,-2.8047,-2.8192,-2.8192,-2.8075,-2.8246,-2.8316,-2.8308,-2.8246,-2.8396,-2.8619,-2.8518,-2.8406,-2.83,-2.8191,-2.8081,-2.7968,0.0,0.0,0.0,0.0,0.0,0.0,0.0,-3.3262,0.0,-3.403,0.0,-3.4221,-3.4269,-3.4601,-3.4541,-3.3851,0.0,-3.2648,-3.1939,-3.115,-3.0683,-3.0697,-3.0764,-3.0804,-3.0801,-3.0801,0.0,0.0,0.0,0.0,-3.0477,0.0,0.0,0.0,0.0,0.0,0.0,-2.6579,-2.7459,0.0,-2.9128,-2.9911,-3.0586,-3.0656,-3.0229,-2.9572,-2.9692,-2.9199,-2.8479,-2.8479,-2.9031,-2.9623,-2.8862,-2.9664,-3.0742,-2.9912,-3.0164,-3.0696,-3.062,-3.0607,-3.0615,-3.0607,-3.0607,-3.0366,-2.9496,-2.9293,-2.9091,-2.8414,-2.8212,-2.7923,0.0,0.0,0.0,0.0,0.0,0.0,0.0,0.0,0.0,0.0,0.0,0.0,0.0,0.0,-2.358,-2.3816,-2.3624,0.0,0.0,0.0,0.0,-2.4427,-2.5068,0.0,-2.7121,0.0,-2.8246,-2.8504,-2.8504,-2.8504,-2.8504,-2.8554,-2.8478,-2.8376,-2.8402,-2.8515,-2.8644,-2.8569,-2.8687,-2.8858,-2.8694,-2.844,-2.8174,-2.8053,-2.7996,-2.7968,0.0,0.0,0.0,0.0,0.0,-3.2393,-3.2957,-3.3327,-3.368,-3.4049,-3.4124,-3.4148,-3.4221,-3.3992,-3.3805,-3.3724,-3.2673,0.0,0.0,0.0,0.0,-3.0698,-3.0759,-3.0804,-3.0801,-3.0795,-3.0791,0.0,0.0,0.0,-2.9497,0.0,0.0,0.0,0.0,0.0,-2.6548,-2.7373,0.0,-2.9076,-2.9939,-3.0384,-3.0518,-3.0586,-3.0516,-3.0406,-3.0487,-3.0021,-2.9377,-2.9377,-2.9906,-3.0569,-3.0413,-3.0616,-3.0857,-3.0642,-3.0669,-3.0762,-3.0633,-3.0646,-3.0678,-3.0615,-3.0602,-3.0556,-3.0382,-3.0335,-3.0313,-3.023,-3.0207,-2.9703,-2.8082,0.0,0.0,0.0,0.0,0.0,0.0,0.0,0.0,0.0,0.0,0.0,0.0,0.0,0.0,0.0,0.0,0.0,0.0,0.0,0.0,0.0,-2.5331,0.0,0.0,0.0,-2.8246,-2.8504,-2.8504,-2.8504,-2.8529,-2.8803,-2.8845,-2.8707,-2.8938,-2.9003,-2.8905,-2.881,-2.8712,-2.8637,-2.8388,-2.8219,-2.8081,-2.7795,-2.7806,-2.7915,0.0,0.0,0.0,0.0,0.0,0.0,0.0,-3.3415,0.0,-3.3972,-3.4023,-3.4074,-3.4148,-3.378,-3.358,-3.3634,-3.2513,-3.1816,-3.1845,-3.106,-3.0637,-3.0703,-3.073,0.0,-3.0741,-3.0774,-3.0774,-3.0761,0.0,0.0,-2.9881,0.0,0.0,0.0,0.0,-2.693,0.0,0.0,0.0,-2.9225,-3.0102,-3.0449,-3.0471,-3.0518,-3.0552,-3.0568,-3.0661,-3.047,-3.0177,-3.0211,-3.0491,-3.0845,-3.0845,-3.0868,-3.0894,-3.0859,-3.0837,-3.0784,-3.0724,-3.0711,-3.0691,-3.0656,-3.0656,-3.0651,-3.0645,-3.0657,-3.0653,-3.0695,-3.0703,-3.0288,-2.8916,-2.7287,0.0,0.0,0.0,0.0,0.0,0.0,0.0,0.0,0.0,0.0,0.0,0.0,0.0,0.0,0.0,0.0,0.0,0.0,0.0,0.0,0.0,0.0,0.0,0.0,0.0,-2.8966,-2.8966,-2.8966,-2.8966,-2.9093,-2.9112,-2.9003,-2.9067,-2.9044,-2.8929,-2.8737,-2.8587,-2.8458,-2.8246,-2.8164,-2.8164,-2.7922,-2.7933,-2.8073,0.0,-2.9913,0.0,0.0,-3.2454,0.0,-3.3129,-3.3484,-3.3753,-3.3868,-3.3947,-3.4023,-3.4148,-3.3778,-3.3468,-3.3387,-3.2384,-3.1718,-3.1536,-3.0945,-3.0632,-3.0673,-3.0691,-3.0713,-3.0717,-3.0775,-3.0767,0.0,0.0,0.0,0.0,0.0,0.0,0.0,0.0,0.0,0.0,0.0,-2.9113,-2.9179,-3.0044,-3.0398,-3.041,-3.0451,-3.0482,-3.0492,-3.0614,-3.0661,-3.0682,-3.0762,-3.0819,-3.0886,-3.0886,-3.0888,-3.0909,-3.0895,-3.0859,-3.0818,-3.0808,-3.0774,-3.0732,-3.072,-3.0703,-3.0691,-3.0697,-3.0703,-3.071,-3.069,-3.0399,-2.9977,-2.9392,-2.7939,0.0,0.0,0.0,0.0,0.0,0.0,0.0,0.0,0.0,0.0,0.0,0.0,0.0,0.0,0.0,0.0,0.0,0.0,0.0,0.0,0.0,-2.6813,-2.8029,0.0,-2.9112,0.0,-2.9386,-2.9386,-2.9386,-2.9323,-2.9262,-2.9156,-2.9085,-2.8952,-2.8858,-2.8687,-2.8536,-2.8432,-2.8273,-2.8273,-2.8309,-2.8128,-2.8183,-2.8335,0.0,0.0,0.0,0.0,0.0,0.0,0.0,-3.3444,-3.3753,-3.3868,-3.3895,-3.4023,-3.434,-3.3857,-3.3279,-3.274,-3.2077,-3.1394,-3.0665,-3.0608,-3.0606,-3.061,-3.0675,-3.0723,-3.079,-3.0797,-3.0762,0.0,0.0,0.0,0.0,0.0,0.0,0.0,0.0,0.0,0.0,-2.8818,-2.9162,-2.9179,-3.0044,-3.0398,-3.041,-3.0421,-3.0402,-3.0425,-3.0492,-3.056,-3.0614,-3.0697,-3.0758,-3.0801,-3.0801,-3.0845,-3.0907,-3.0909,-3.0892,-3.0878,-3.0818,-3.0839,-3.0859,-3.0729,-3.0693,-3.0704,-3.0706,-3.07,-3.0709,-3.0704,-2.9447,-2.8533,-2.9179,-2.7969,-2.7089,0.0,0.0,0.0,0.0,0.0,0.0,0.0,0.0,0.0,0.0,-2.4975,0.0,0.0,0.0,0.0,0.0,0.0,0.0,-2.6041,0.0,-2.7086,-2.8874,-2.8897,-2.9067,-2.9407,-2.9344,-2.9302,-2.9302,-2.9302,-2.9218,-2.9112,-2.9108,-2.8975,-2.881,-2.8858,-2.8791,-2.8669,-2.8644,-2.8569,-2.8466,-2.8309,-2.8388,-2.8551,0.0,0.0,0.0,0.0,0.0,0.0,0.0,-3.3491,-3.3633,-3.378,-3.3815,-3.3972,-3.4293,-3.3794,-3.3412,-3.3334,-3.2333,-3.1565,-3.1232,-3.0781,-3.0586,-3.0658,-3.0691,-3.0723,-3.08,-3.0804,-3.0763,0.0,0.0,0.0,0.0,0.0,0.0,0.0,0.0,-2.9436,-2.9415,-2.9762,-2.9894,-2.991,-3.0275,-3.0398,-3.0398,-3.0398,-3.0398,-3.0402,-3.0482,-3.0528,-3.0552,-3.0614,-3.0715,-3.0801,-3.0801,-3.0821,-3.0845,-3.0888,-3.0909,-3.0892,-3.0878,-3.0878,-3.0878,-3.0775,-3.0751,-3.0767,-3.0765,-3.0758,-3.0747,-3.07,-2.9317,-2.8365,-2.9206,-2.8443,-2.7754,0.0,0.0,0.0,0.0,0.0,0.0,0.0,0.0,0.0,0.0,0.0,-2.5192,0.0,0.0,0.0,0.0,0.0,0.0,-2.6542,0.0,-2.7954,-2.9222,-2.92,-2.9262,-2.9407,-2.9365,-2.9365,-2.9365,-2.9283,-2.9197,-2.9108,-2.9062,-2.9017,-2.8975,-2.8834,-2.8743,-2.8669,-2.8518,-2.8536,-2.8594,-2.8466,-2.8569,-2.8791,-2.8576,0.0,-3.0327,0.0,-3.2196,-3.2553,-3.316,-3.3404,-3.352,-3.3633,-3.3807,-3.4023,-3.4321,-3.4001,-3.3791,-3.3881,-3.2755,-3.2062,-3.2089,-3.1119,-3.069,-3.1041,-3.0852,0.0,-3.08,-3.0799,-3.0782,-3.0726,-3.0703,0.0,0.0,0.0,0.0,0.0,-3.049,-3.0479,-3.0428,-3.0428,-3.0425,-3.0398,-3.0398,-3.0398,-3.0398,-3.0398,-3.0398,-3.041,-3.0441,-3.0472,-3.051,-3.056,-3.0656,-3.0768,-3.0768,-3.0774,-3.0801,-3.0864,-3.0866,-3.0866,-3.087,-3.0871,-3.0853,-3.082,-3.0801,-3.0799,-3.0793,-3.0792,-3.079,-3.0732,-2.9347,-2.8393,-2.9269,-2.8758,-2.8178,-2.8081,0.0,0.0,0.0,0.0,0.0,0.0,0.0,-2.5421,-2.5357,0.0,0.0,0.0,0.0,0.0,0.0,0.0,0.0,0.0,0.0,0.0,0.0,-2.9511,-2.9531,-2.955,-2.9471,-2.9431,-2.9412,-2.9286,-2.9222,-2.9206,-2.9093,-2.9067,-2.9108,-2.8929,-2.8791,-2.8694,-2.8543,-2.8612,-2.8718,-2.8644,-2.8743,-2.8929,-2.9057,-2.9793,-3.0452,-3.1283,-3.1789,-3.2248,-3.2651,-3.316,-3.3509,-3.3491,-3.3842,-3.4203,-3.4464,-3.4551,-3.4453,-3.4117,-3.3363,-3.291,-3.2987,-3.1478,-3.0983,0.0,0.0,-3.0797,-3.08,-3.0792,-3.0807,-3.0798,0.0,0.0,-3.071,0.0,-3.0491,-3.0491,-3.0491,-3.05,-3.0499,-3.0499,-3.0466,-3.0398,-3.0398,-3.0398,-3.0398,-3.0398,-3.0398,-3.0398,-3.041,-3.0449,-3.0501,-3.0501,-3.0586,-3.0691,-3.0691,-3.0758,-3.0801,-3.0801,-3.0801,-3.0801,-3.0801,-3.0801,-3.0801,-3.0801,-3.0796,-3.0801,-3.0801,-3.08,-3.08,-3.08,-2.9411,-2.8476,-2.9335,-2.8789,-2.8168,-2.8015,0.0,0.0,0.0,0.0,0.0,0.0,-2.5923,-2.536,-2.5488,0.0,0.0,0.0,0.0,0.0,0.0,0.0,0.0,-2.805,-2.8297,0.0,-2.9589,-2.9732,-2.9817,-2.9886,-2.9625,-2.9495,-2.9495,-2.9351,-2.9372,-2.9495,-2.9275,-2.9163,-2.9089,-2.9156,-2.9044,-2.881,-2.8947,-2.8905,-2.881,-2.8881,-2.8905,-2.8905,-2.8795,-2.9377,-2.9919,-3.1106,-3.1565,-3.1986,-3.2586,-3.2876,-3.3142,-3.3462,-3.3726,-3.403,-3.4379,-3.4656,-3.4849,0.0,-3.418,-3.3519,0.0,-3.2019,-3.1331,-3.1161,-3.0938,-3.0818,-3.0876,-3.0825,-3.0794,-3.0798,0.0,0.0,0.0,-3.0597,-3.0569,-3.0569,-3.0569,-3.053,-3.05,-3.0509,-3.0458,-3.0394,-3.039,-3.0398,-3.0398,-3.0398,-3.0398,-3.0398,-3.0398,-3.0414,-3.0428,-3.0428,-3.0482,-3.0564,-3.0614,-3.0715,-3.0801,-3.0801,-3.0801,-3.0801,-3.0801,-3.0801,-3.0799,-3.0796,-3.0801,-3.0806,-3.0801,-3.0792,-3.0798,-3.0799,-2.9413,-2.8288,-2.8557,-2.8394,-2.7984,-2.7347,-2.8525,0.0,0.0,0.0,0.0,0.0,0.0,-2.6575,0.0,-2.747,0.0,0.0,0.0,0.0,0.0,0.0,0.0,0.0,-2.882,0.0,-2.9608,-2.9626,-2.975,-2.9896,-2.9796,-2.9763,-2.971,-2.9607,-2.9608,-2.9644,-2.9531,-2.9412,-2.9289,-2.9222,-2.9197,-2.913,-2.904,-2.9062,-2.913,-2.8998,-2.8952,-2.8975,-2.8717,-2.9287,-2.9745,-3.0804,-3.1278,-3.1694,-3.2248,-3.2586,-3.2908,-3.3298,-3.3606,-3.3935,-3.4302,-3.4595,0.0,-3.5261,-3.4534,-3.4032,-3.3981,-3.2599,-3.1787,-3.1747,-3.1163,-3.0859,-3.0891,0.0,0.0,-3.0798,-3.0721,-3.0659,-3.0554,-3.0568,-3.054,-3.0488,-3.0488,-3.0488,-3.0469,-3.0447,-3.0417,-3.0398,-3.0402,-3.0398,-3.0398,-3.0398,-3.0398,-3.0398,-3.0398,-3.0398,-3.0398,-3.0398,-3.0449,-3.0519,-3.0591,-3.0667,-3.0768,-3.0799,-3.0799,-3.0799,-3.0799,-3.0796,-3.0794,-3.0807,-3.0807,-3.0804,-3.0794,-3.0794,-3.071,-3.0378,-2.945,-2.8594,-2.8281,-2.8474,-2.8297,-2.7083,-2.8083,-2.8588,-2.7383,0.0,0.0,0.0,0.0,0.0,0.0,-2.84,0.0,0.0,0.0,0.0,0.0,0.0,0.0,-2.8959,-2.9435,0.0,-2.9832,-2.9896,-2.9988,-3.0122,-3.0018,-2.9954,-2.9905,-2.9765,-2.9751,-2.9805,-2.9719,-2.9589,-2.9433,-2.9353,-2.9328,-2.924,-2.9112,-2.9003,-2.8938,-2.8952,-2.8839,-2.8725,-2.8654,-2.9345,0.0,0.0,-3.0902,0.0,-3.164,-3.2248,-3.2734,-3.3055,-3.3514,-3.3917,-3.4173,-3.4439,-3.4812,-3.5245,0.0,0.0,0.0,-3.3275,-3.2331,-3.3106,-3.1753,-3.0957,-3.0895,-3.0891,-3.086,-3.0798,-3.073,-3.0639,-3.0498,-3.0492,-3.0417,-3.0292,-3.0292,-3.0318,-3.0398,-3.0336,-3.034,-3.0375,-3.039,-3.0379,-3.0367,-3.0398,-3.0398,-3.0398,-3.0398,-3.0398,-3.0398,-3.0398,-3.0439,-3.051,-3.0564,-3.0639,-3.0715,-3.0771,-3.0796,-3.0794,-3.0794,-3.0807,-3.0798,-3.0798,-3.0798,-3.0794,-3.0802,-3.081,-3.056,-2.9675,-2.9452,-2.9169,-2.8359,-2.8814,-2.8786,-2.7083,-2.7557,-2.7557,-2.5922,0.0,0.0,0.0,0.0,0.0,0.0,-2.9011,-2.9462,0.0,0.0,0.0,0.0,0.0,-2.9295,-2.9889,-3.0095,-3.0196,-3.0196,-3.0394,-3.0499,-3.0499,-3.0248,-3.0136,-3.0122,-2.9867,-2.9855,-3.0022,-2.9876,-2.9682,-2.9492,-2.9513,-2.9375,-2.9178,-2.9156,-2.8827,-2.8402,-2.8773,-2.8608,-2.8308,0.0,0.0,-2.8814,-2.98,-3.0452,-3.1038,-3.1603,-3.1913,-3.2335,-3.3006,-3.3458,-3.3865,-3.4173,-3.4539,-3.4869,-3.5127,-3.5051,-3.4595,-3.3674,-3.3759,-3.3137,-3.1546,-3.1695,-3.1523,-3.0918,-3.0896,-3.0866,-3.0798,-3.0678,-3.0576,-3.0498,-3.04,-3.0336,-3.0292,-3.0292,-3.0324,-3.0337,-3.0355,-3.0299,-3.0174,-3.0348,-3.0316,-3.0196,-3.0343,-3.0398,-3.0398,-3.0398,-3.0398,-3.0398,-3.0398,-3.0402,-3.0447,-3.0501,-3.0576,-3.0645,-3.0765,-3.0799,-3.0799,-3.0794,-3.0791,-3.0807,-3.081,-3.0798,-3.0808,-3.0808,-3.0808,-3.0559,-2.9691,-2.8973,-2.8259,-2.7462,-2.7459,-2.7248,-2.6156,-2.6724,-2.7121,-2.666,-2.6775,0.0,0.0,-2.9057,-2.9422,-3.0095,-3.0303,-3.0394,0.0,0.0,0.0,0.0,-3.0248,-3.0133,-3.0131,-3.008,-3.0095,-3.0203,-3.0241,-3.0344,-3.051,-3.0449,-3.0409,-3.0409,-3.0285,-3.0209,-3.0147,-2.9969,-2.9698,-2.9373,-2.8934,-2.886,-2.9003,-2.8664,-2.8664,-2.8892,-2.8887,-2.8839,-2.8725,-2.6828,-2.7854,-2.8722,-2.9581,-3.0199,-3.0838,-3.1524,-3.1731,-3.2056,-3.2784,-3.3243,-3.3625,-3.3935,-3.4298,-3.4647,-3.4946,-3.5138,-3.496,-3.4244,-3.4356,-3.3724,-3.2107,-3.2079,-3.1715,-3.0918,-3.0897,-3.0843,-3.0759,-3.0691,-3.0571,-3.0413,-3.0302,-3.0215,-3.0123,-3.0123,-3.0152,-3.0213,-3.024,-3.0226,-3.0147,-3.0196,-3.0209,-3.0202,-3.0241,-3.0311,-3.0398,-3.0398,-3.0379,-3.0348,-3.0348,-3.0348,-3.0371,-3.0462,-3.0519,-3.0568,-3.0675,-3.0747,-3.071,-3.0279,-3.0182,-3.0205,-3.0213,-3.0516,-3.0799,-3.0799,-3.0487,-2.9966,-2.9098,-2.8536,-2.7936,-2.7117,-2.7285,-2.7266,-2.6386,-2.6643,-2.6944,-2.6944,-2.7264,0.0,-2.9297,-2.9821,-3.0265,-3.0714,-3.0723,-3.0703,-3.0696,0.0,0.0,-3.0587,-3.0591,-3.05,-3.0344,-3.0273,-3.0285,-3.0386,-3.0386,-3.0439,-3.055,-3.051,-3.05,-3.05,-3.0375,-3.0222,-3.0056,-2.9918,-2.9644,-2.9272,-2.8824,-2.8724,-2.8779,-2.8384,-2.8254,-2.8342,-2.8608,-2.8558,-2.843,-2.6538,-2.7728,-2.8809,-2.939,-2.9968,-3.0576,-3.1312,-3.1562,-3.1877,-3.2454,-3.2988,-3.3419,-3.3661,-3.4037,-3.4404,-3.4768,-3.5053,-3.5244,-3.5361,-3.4904,-3.4243,-3.3438,-3.2823,-3.2057,-3.1093,-3.0954,-3.0813,-3.0695,-3.0672,-3.0537,-3.0297,-3.0216,-3.0099,-2.9905,-2.9905,-2.9953,-3.0079,-3.0083,-3.0094,-3.0114,-3.0056,-3.009,-3.0194,-3.0109,-3.0196,-3.0355,-3.0398,-3.0348,-3.0316,-3.0316,-3.0316,-3.0328,-3.0449,-3.0481,-3.0511,-3.0546,-3.0639,-3.0574,-2.9783,-2.9608,-2.9644,-2.9644,-3.0189,-3.0739,-3.0769,-3.0107,-2.927,-2.8539,-2.8299,-2.7928,-2.7054,-2.7488,-2.7697,-2.6831,-2.6675,-2.6766,-2.7101,0.0,-2.8506,-2.9433,-3.0271,-3.0742,-3.0682,-3.0701,-3.0712,-3.0708,-3.0693,-3.0707,0.0,-3.0704,-3.0639,-3.0527,-3.052,-3.053,-3.0597,-3.0615,-3.0623,-3.0604,-3.0548,-3.053,-3.053,-3.0115,-2.983,-2.9692,-2.9432,-2.9144,-2.878,-2.8608,-2.8481,-2.8384,-2.8112,-2.7798,-2.756,-2.8156,-2.8156,-2.7954,-2.5329,-2.6418,-2.7579,-2.8794,-2.9422,-3.0021,-3.0958,-3.1351,-3.1711,-3.2214,-3.2921,-3.3458,-3.3688,-3.416,-3.4539,-3.4768,-3.5053,-3.4947,-3.4371,-3.5117,-3.4932,-3.3466,-3.3984,-3.3551,-3.1949,-3.1185,-3.0786,-3.0704,-3.0527,-3.0404,-3.0314,-3.0174,-3.0068,-2.9972,-2.994,-2.9905,-2.9937,-3.0049,-2.9972,-2.979,-3.0003,-2.9934,-2.9732,-2.9988,-3.0122,-3.0182,-3.0343,-3.0379,-3.0379,-3.0379,-3.0379,-3.0379,-3.0421,-3.0458,-3.0481,-3.0386,-3.0434,-3.0502,-3.0377,-3.0341,-3.0352,-3.0352,-3.0393,-3.0488,-3.0613,-2.9952,-2.9318,-2.9309,-2.8719,-2.7926,-2.6992,-2.6941,-2.6715,-2.5777,-2.5592,-2.6088,-2.7627,0.0,-2.8516,-3.0067,-3.0477,-3.0607,-3.0529,-3.0682,-3.0768,-3.0693,-3.0702,-3.0701,-3.0704,-3.0696,-3.0657,-3.0584,-3.0574,-3.0595,-3.0598,-3.0658,-3.0686,-3.0677,-3.0618,-3.0615,-3.0624,-2.9288,-2.8681,-2.8656,-2.7625,-2.7082,-2.6941,-2.7173,-2.74,-2.7584,-2.7577,-2.7683,-2.7869,-2.8183,-2.8282,-2.8228,-2.4953,-2.6298,-2.7631,-2.8639,-2.9225,-2.9935,-3.0838,-3.1274,-3.1617,-3.2002,-3.2795,-3.339,-3.3514,-3.4087,-3.4495,-3.4623,-3.4944,-3.5025,-3.4707,-3.5387,-3.5286,-3.4105,-3.3975,-3.3141,-3.1444,-3.1014,-3.0755,-3.0645,-3.0519,-3.0392,-3.0228,-3.018,-3.0132,-3.0038,-2.9972,-2.9956,-2.9956,-2.9988,-2.9924,-2.9825,-2.9857,-2.9841,-2.9769,-2.9817,-2.9943,-3.0122,-3.0196,-3.0279,-3.0336,-3.0343,-3.0349,-3.033,-3.0286,-3.0311,-3.0251,-2.9749,-2.9671,-2.9748,-2.9785,-2.9805,-2.9795,-2.9757,-3.0086,-3.0289,-2.987,-2.9474,-2.9087,-2.866,-2.826,-2.7714,-2.6842,-2.6655,-2.6356,-2.5495,-2.5329,0.0,0.0,-2.7836,-2.8454,-3.0098,-3.0414,-3.0461,-3.0405,-3.054,-3.0633,-3.0586,-3.058,-3.0583,-3.0533,-3.0604,-3.0589,-3.0434,-3.0542,-3.0586,-3.0557,-3.0569,-3.0597,-3.0599,-3.0389,-2.9982,-2.9425,-2.828,-2.7376,-2.6665,-2.5785,-2.5677,-2.6114,-2.6101,-2.6561,-2.7272,-2.7103,-2.7117,-2.7303,-2.7607,-2.7742,-2.78,-2.4654,-2.6119,-2.7535,-2.8273,-2.8793,-2.9523,-3.0642,-3.106,-3.1391,-3.1768,-3.2601,-3.3243,-3.339,-3.3751,-3.4162,-3.4542,-3.4717,-3.4936,-3.5224,-3.5588,-3.5523,-3.4938,-3.3882,-3.2705,-3.1413,-3.0989,-3.0716,-3.0586,-3.0511,-3.0389,-3.0215,-3.0213,-3.0176,-3.0117,-3.0053,-3.0022,-3.0007,-2.9924,-2.9891,-2.9841,-2.9701,-2.9701,-2.977,-2.9644,-2.9767,-2.9988,-3.0052,-3.0109,-3.0209,-3.0207,-3.0194,-3.018,-3.018,-3.0161,-2.9975,-2.9212,-2.9027,-2.9098,-2.9349,-2.9427,-2.9417,-2.9347,-2.9828,-3.0109,-2.9272,-2.8914,-2.8557,-2.7952,-2.7653,-2.7325,-2.666,-2.6514,-2.6205,-2.536,0.0,0.0,0.0,-2.7835,-2.8502,-2.9964,-3.0227,-3.0279,-3.0271,-3.0364,-3.0453,-3.0453,-3.0479,-3.044,-3.0405,-3.0506,-3.0477,-3.0292,-3.0435,-3.0476,-3.0372,-3.0403,-3.0352,-3.0252,-2.9978,-2.9293,-2.8281,-2.7298,-2.6147,-2.4866,-2.4178,-2.4214,-2.4765,-2.5004,-2.5683,-2.6556,-2.6599,-2.6657,-2.6758,-2.71,-2.7241,-2.7334,-2.3989,-2.5189,-2.6322,-2.7309,-2.7624,-2.8316,-2.9989,-3.0387,-3.0734,-3.1418,-3.2299,-3.2983,-3.3361,-3.3054,-3.3352,-3.4658,-3.4293,-3.4385,-3.5322,-3.565,-3.5801,-3.5807,-3.4253,-3.3318,-3.3122,-3.1527,-3.0639,-3.0501,-3.0441,-3.0375,-3.0292,-3.024,-3.0204,-3.0204,-3.0132,-3.0072,-3.0007,-2.9926,-2.9827,-2.9701,-2.9569,-2.9471,-2.945,-2.957,-2.9626,-2.9662,-2.9853,-2.9918,-2.9934,-2.9934,-2.9902,-2.9867,-3.0045,-3.0026,-2.9806,-2.9186,-2.8957,-2.9088,-2.9907,-3.0117,-3.0117,-3.0056,-3.0085,-2.9928,-2.918,-2.8325,-2.7754,-2.7875,-2.7238,-2.6612,-2.6366,-2.6366,-2.6106,-2.5171,0.0,0.0,-2.7385,-2.8051,-2.8806,-2.9796,-3.0,-3.0056,-3.0113,-3.0248,-3.0306,-3.0309,-3.037,-3.0413,-3.0393,-3.0404,-3.0342,-3.0215,-3.0217,-3.0173,-3.004,-3.0113,-2.9935,-2.9576,-2.9406,-2.8883,-2.7977,-2.6497,-2.5146,-2.393,-2.3033,-2.2246,-2.1779,-2.3684,-2.4525,-2.4741,-2.6144,-2.6691,-2.6725,-2.7085,-2.7213,-2.7289,-2.3242,-2.4781,-2.6229,-2.7208,-2.7738,-2.8466,-2.9761,-3.0449,-3.0934,-3.1223,-3.2144,-3.2742,-3.2604,-3.3103,-3.3579,-3.3958,-3.3897,-3.4282,-3.5328,-3.5146,-3.4806,-3.4371,-3.3749,-3.2886,-3.1777,-3.1067,-3.0644,-3.0567,-3.0491,-3.0436,-3.0367,-3.0299,-3.0247,-3.0194,-3.0171,-3.0113,-3.0072,-2.9991,-2.9876,-2.9737,-2.9645,-2.955,-2.9451,-2.9471,-2.9531,-2.9608,-2.9698,-2.9803,-2.9886,-2.9801,-2.9748,-2.9731,-2.9786,-2.9408,-2.8952,-2.8776,-2.873,-2.892,-2.987,-3.0147,-3.0083,-2.9905,-2.9855,-2.9463,-2.7961,-2.7862,-2.7809,-2.6863,-2.6866,-2.6879,-2.6344,-2.6181,-2.5906,-2.5137,0.0,-2.5728,-2.7113,-2.7535,-2.8197,-2.9623,-2.9842,-2.9891,-2.991,-2.9984,-3.0011,-2.9931,-2.9908,-2.9889,-2.9839,-2.9758,-2.9602,-2.9345,-2.9305,-2.9368,-2.9555,-2.9589,-2.9209,-2.8447,-2.8173,-2.7404,-2.6122,-2.4847,-2.3493,-2.2061,-2.1211,-2.0895,-2.1105,-2.1898,-2.2717,-2.3476,-2.3513,-2.3553,-2.3551,-2.3184,-2.3986,-2.531,-2.2506,-2.4239,-2.5892,-2.6628,-2.7259,-2.7969,-2.9026,-2.9691,-3.0121,-3.0357,-3.1255,-3.1836,-3.1704,-3.2281,-3.2794,-3.3129,-3.3132,-3.3561,-3.4604,-3.432,-3.4024,-3.3795,-3.3535,-3.2707,-3.1245,-3.0872,-3.0678,-3.0602,-3.0491,-3.0406,-3.0323,-3.0196,-3.0142,-3.0128,-3.006,-3.0049,-3.0083,-2.994,-2.9822,-2.9754,-2.9664,-2.9569,-2.9471,-2.9427,-2.9451,-2.9532,-2.9532,-2.9626,-2.9735,-2.9644,-2.957,-2.9514,-2.927,-2.8632,-2.8103,-2.8716,-2.8506,-2.8353,-2.9536,-2.9666,-2.9517,-2.966,-2.9717,-2.925,-2.7568,-2.7755,-2.7811,-2.6127,-2.6291,-2.6585,-2.6019,-2.5862,-2.5641,-2.5161,-2.5192,-2.5685,-2.6914,-2.727,-2.7942,-2.9382,-2.9608,-2.9626,-2.957,-2.97,-2.9663,-2.9418,-2.9399,-2.9321,-2.9142,-2.9132,-2.8901,-2.8433,-2.8247,-2.8149,-2.8185,-2.8512,-2.8227,-2.7331,-2.6969,-2.6034,-2.4544,-2.3655,-2.2388,-2.0868,-2.0016,-1.9781,-1.9976,-2.0203,-2.0865,-2.1651,-2.1381,-2.1309,-2.1294,-2.0702,-2.1559,-2.3098,-2.1741,-2.3539,-2.5092,-2.5425,-2.5874,-2.6594,-2.7729,-2.7774,-2.7971,-2.8713,-2.9438,-3.011,-3.0728,-3.033,-3.0668,-3.2253,-3.191,-3.203,-3.3032,-3.3219,-3.3676,-3.4534,-3.3828,-3.2977,-3.2107,-3.1184,-3.0678,-3.0603,-3.0404,-3.0278,-3.0182,-2.9931,-2.9867,-2.9992,-2.9786,-2.9855,-3.006,-2.9751,-2.9644,-2.9681,-2.9532,-2.9451,-2.9407,-2.9407,-2.9407,-2.9407,-2.9407,-2.9407,-2.9407,-2.9407,-2.9304,-2.9095,-2.8482,-2.7753,-2.7431,-2.9027,-2.8316,-2.7363,-2.8891,-2.8722,-2.8351,-2.9419,-2.9681,-2.9382,-2.8256,-2.799,-2.7526,-2.5838,-2.5523,-2.5466,-2.5328,-2.5349,-2.5389,-2.5307,-2.5968,-2.6562,-2.6763,-2.7424,-2.8215,-2.9095,-2.9251,-2.9251,-2.9126,-2.9334,-2.9256,-2.8732,-2.8883,-2.8778,-2.8323,-2.853,-2.8345,-2.7614,-2.7121,-2.6514,-2.5713,-2.6822,-2.7013,-2.6269,-2.5855,-2.499,-2.3676,-2.3113,-2.208,-2.0654,-1.9685,-1.8744,-1.7951,-1.8703,-1.9,-1.9103,-2.0155,-2.0557,-2.0545,-2.0471,-2.0477,-2.0845,-2.0846,-2.2299,-2.3839,-2.5135,-2.6116,-2.6943,-2.7535,-2.8378,-2.887,-2.8574,-2.9351,-2.9916,-2.9944,-3.0505,-3.1051,-3.1531,-3.1536,-3.1786,-3.2361,-3.2966,-3.3165,-3.2869,-3.2613,-3.2077,-3.1218,-3.0903,-3.0703,-3.0603,-3.0453,-3.0283,-3.0122,-3.0007,-2.9899,-2.9782,-2.9732,-2.9678,-2.9661,-2.9533,-2.9416,-2.9355,-2.9373,-2.933,-2.9283,-2.9347,-2.9407,-2.9407,-2.9407,-2.9407,-2.9386,-2.9283,-2.9222,-2.9052,-2.8218,-2.8141,-2.8363,-2.8378,-2.8415,-2.8582,-2.9145,-2.913,-2.8981,-2.9175,-2.9148,-2.8798,-2.7739,-2.7579,-2.7354,-2.6271,-2.6133,-2.6213,-2.6195,-2.6112,-2.6008,-2.6015,-2.5692,-2.5827,-2.6923,-2.6703,-2.6946,-2.8391,-2.8555,-2.8506,-2.8481,-2.853,-2.8481,-2.8234,-2.7959,-2.7692,-2.7449,-2.7282,-2.6828,-2.6168,-2.5979,-2.5481,-2.4603,-2.5208,-2.5045,-2.4203,-2.386,-2.317,-2.2151,-2.1838,-2.1108,-1.9953,-1.9297,-1.8596,-1.7895,-1.7862,-1.7836,-1.7739,-1.7516,-1.737,-1.7226,-1.6655,-1.7404,-1.8866,-1.9726,-2.1075,-2.2578,-2.3807,-2.4954,-2.5864,-2.6382,-2.7304,-2.7855,-2.752,-2.8339,-2.9004,-2.9089,-2.9844,-3.0448,-3.0679,-3.097,-3.1261,-3.1568,-3.2046,-3.2104,-3.164,-3.1637,-3.1376,-3.0801,-3.0798,-3.0725,-3.0603,-3.0414,-3.0232,-3.0066,-2.9934,-2.982,-2.9697,-2.9588,-2.957,-2.957,-2.9398,-2.9295,-2.923,-2.923,-2.9144,-2.9089,-2.924,-2.9283,-2.9283,-2.9386,-2.9386,-2.9344,-2.9262,-2.8997,-2.8636,-2.836,-2.8347,-2.8343,-2.7919,-2.8103,-2.847,-2.8533,-2.8433,-2.8398,-2.8706,-2.8803,-2.8615,-2.7904,-2.7795,-2.7616,-2.6796,-2.6444,-2.6272,-2.6236,-2.5886,-2.5577,-2.5528,-2.5075,-2.5147,-2.639,-2.6083,-2.63,-2.7844,-2.7995,-2.7958,-2.7809,-2.7921,-2.783,-2.7479,-2.6779,-2.6337,-2.6336,-2.6062,-2.5602,-2.4994,-2.4729,-2.4306,-2.3646,-2.3465,-2.318,-2.2804,-2.252,-2.1904,-2.1148,-2.0607,-1.9991,-1.931,-1.8424,-1.7809,-1.7357,-1.6955,-1.6719,-1.6549,-1.6046,-1.5768,-1.5546,-1.502,-1.5604,-1.6843,-1.8554,-1.9897,-2.1299,-2.196,-2.2922,-2.3909,-2.4791,-2.5305,-2.5742,-2.6068,-2.6873,-2.7672,-2.8219,-2.876,-2.9306,-2.9834,-3.0333,-3.0651,-3.0791,-3.0794,-3.0825,-3.0898,-3.0897,-3.0853,-3.0799,-3.0796,-3.073,-3.0587,-3.0337,-3.0145,-2.9977,-2.9808,-2.9701,-2.9644,-2.9415,-2.9435,-2.9645,-2.9314,-2.9209,-2.9251,-2.9126,-2.8989,-2.8905,-2.9044,-2.9089,-2.913,-2.9344,-2.9344,-2.928,-2.928,-2.8676,-2.8088,-2.8778,-2.8434,-2.7785,-2.7624,-2.7573,-2.752,-2.7393,-2.7118,-2.7103,-2.812,-2.8496,-2.8603,-2.8414,-2.8398,-2.8156,-2.7325,-2.6565,-2.6004,-2.5825,-2.5189,-2.4617,-2.4489,-2.4445,-2.4761,-2.5623,-2.5641,-2.6053,-2.7367,-2.7537,-2.7387,-2.7051,-2.722,-2.704,-2.6404,-2.5354,-2.4798,-2.4996,-2.4775,-2.4429,-2.3971,-2.3389,-2.2922,-2.2649,-2.1732,-2.152,-2.1992,-2.156,-2.1051,-2.0459,-1.9515,-1.898,-1.8691,-1.7335,-1.6637,-1.6457,-1.5961,-1.573,-1.5546,-1.5323,-1.5157,-1.5029,-1.4864,-1.4688,-1.4859,-1.7926,-1.883,-2.0063,-2.1606,-2.2904,-2.4046,-2.4762,-2.5514,-2.6002,-2.6099,-2.6607,-2.7272,-2.8129,-2.8631,-2.9191,-2.9765,-3.0302,-3.0691,-3.0868,-3.0821,-3.0825,-3.0898,-3.0852,-3.0796,-3.0726,-3.0774,-3.0677,-3.0443,-3.0394,-3.0208,-2.9921,-2.9823,-2.9664,-2.9454,-2.9334,-2.927,-2.9225,-2.9048,-2.8934,-2.891,-2.8887,-2.8815,-2.8767,-2.8998,-2.9089,-2.913,-2.9344,-2.9283,-2.913,-2.9021,-2.8753,-2.8506,-2.8827,-2.8772,-2.8427,-2.7724,-2.7723,-2.7834,-2.7121,-2.7126,-2.7344,-2.7395,-2.743,-2.7596,-2.8063,-2.8209,-2.8128,-2.7664,-2.7038,-2.6507,-2.6342,-2.6153,-2.5917,-2.5739,-2.5727,-2.5945,-2.6613,-2.5965,-2.5805,-2.669,-2.6402,-2.6019,-2.575,-2.5373,-2.4968,-2.4508,-2.3974,-2.3543,-2.3256,-2.279,-2.2369,-2.1951,-2.1716,-2.1266,-2.062,-2.0383,-2.0633,-2.1232,-2.0733,-2.0144,-1.9488,-1.9186,-1.8471,-1.7523,-1.6877,-1.6151,-1.5468,-1.5128,-1.4893,-1.4678,-1.413,-1.397,-1.4034,-1.3471,-1.3304,-1.3382,-1.6738,-1.7436,-1.8544,-2.0234,-2.1484,-2.2686,-2.3971,-2.4848,-2.5465,-2.5815,-2.6539,-2.7282,-2.8102,-2.8737,-2.9401,-3.0126,-3.0453,-3.0685,-3.0888,-3.0866,-3.0868,-3.0897,-3.0878,-3.0806,-3.0708,-3.0723,-3.0647,-3.0462,-3.0374,-3.0259,-3.0034,-2.994,-2.9771,-2.9532,-2.9454,-2.933,-2.9134,-2.9044,-2.8929,-2.8785,-2.8761,-2.8687,-2.8587,-2.8785,-2.8858,-2.8815,-2.892,-2.885,-2.8658,-2.854,-2.843,-2.8326,-2.843,-2.8152,-2.7625,-2.6749,-2.6605,-2.6658,-2.6116,-2.6272,-2.663,-2.7006,-2.6918,-2.6888,-2.7426,-2.7487,-2.7391,-2.7206,-2.626,-2.5515,-2.5692,-2.5088,-2.4669,-2.5028,-2.4905,-2.5093,-2.6049,-2.5413,-2.5118,-2.5947,-2.5503,-2.4973,-2.4514,-2.3952,-2.3473,-2.3271,-2.2505,-2.2122,-2.214,-2.1588,-2.1197,-2.1064,-2.0855,-2.0557,-2.0181,-1.9812,-1.9761,-1.9902,-1.9515,-1.8939,-1.8244,-1.7863,-1.7368,-1.6754,-1.6197,-1.569,-1.5177,-1.5001,-1.4824,-1.4551,-1.3847,-1.3714,-1.3837,-1.3141,-1.2814,-1.261,-1.5414,-1.6049,-1.7102,-1.8742,-1.9813,-2.1046,-2.2965,-2.3876,-2.4665,-2.5496,-2.6404,-2.7309,-2.8102,-2.8905,-2.9696,-3.0524,-3.0603,-3.0697,-3.0884,-3.0907,-3.0891,-3.0876,-3.0879,-3.0811,-3.0701,-3.0687,-3.062,-3.0471,-3.0362,-3.029,-3.0199,-3.0064,-2.9924,-2.9735,-2.9626,-2.9471,-2.9222,-2.9134,-2.9017,-2.8834,-2.8737,-2.8587,-2.8432,-2.8562,-2.8536,-2.8448,-2.8352,-2.8062,-2.7754,-2.7843,-2.7708,-2.7553,-2.7723,-2.7171,-2.6311,-2.5438,-2.5189,-2.5167,-2.5027,-2.5179,-2.5644,-2.6601,-2.6522,-2.6297,-2.6522,-2.659,-2.6573,-2.6472,-2.5262,-2.4314,-2.4743,-2.3702,-2.303,-2.3852,-2.3762,-2.397,-2.5058,-2.4648,-2.4451,-2.5134,-2.4617,-2.3971,-2.3331,-2.2669,-2.2215,-2.1974,-2.1059,-2.0607,-2.0788,-2.0294,-2.0131,-2.0283,-1.994,-1.9838,-1.9965,-1.9165,-1.8531,-1.8155,-1.7763,-1.7446,-1.7157,-1.6595,-1.6255,-1.613,-1.5575,-1.5177,-1.4815,-1.4815,-1.451,-1.4118,-1.3415,-1.3277,-1.3416,-1.2797,-1.2326,-1.1881,-1.4578,-1.5274,-1.6285,-1.802,-1.9261,-2.0591,-2.2349,-2.3245,-2.4168,-2.5438,-2.5966,-2.6723,-2.7974,-2.903,-2.9886,-3.0552,-3.0603,-3.0697,-3.0884,-3.0907,-3.0875,-3.082,-3.0762,-3.0715,-3.0704,-3.0591,-3.0482,-3.0402,-3.0389,-3.0314,-3.0207,-3.0123,-3.0,-2.9855,-2.9681,-2.9513,-2.9351,-2.9178,-2.9044,-2.897,-2.8767,-2.8619,-2.8492,-2.8562,-2.8484,-2.8246,-2.7737,-2.6792,-2.5888,-2.6639,-2.6317,-2.5732,-2.6611,-2.6276,-2.5412,-2.4515,-2.4535,-2.4739,-2.4564,-2.4825,-2.5208,-2.5542,-2.5589,-2.5492,-2.5285,-2.5947,-2.6472,-2.6002,-2.5165,-2.4519,-2.4473,-2.4164,-2.3887,-2.3893,-2.4403,-2.4764,-2.4798,-2.4555,-2.4362,-2.4358,-2.3535,-2.268,-2.1955,-2.1465,-2.0792,-1.9813,-1.9453,-1.8931,-1.8012,-1.7775,-1.7841,-1.8274,-1.749,-1.739,-1.8213,-1.7124,-1.627,-1.5813,-1.5216,-1.5631,-1.7,-1.6662,-1.613,-1.5487,-1.5332,-1.4451,-1.313,-1.313,-1.2626,-1.1851,-1.124,-1.1199,-1.1351,-1.0878,-1.0501,-1.0229,-1.403,-1.4667,-1.5746,-1.7827,-1.8684,-1.9736,-2.169,-2.2711,-2.3704,-2.4955,-2.599,-2.7012,-2.8002,-2.9008,-2.9893,-3.0491,-3.0546,-3.0625,-3.0833,-3.0849,-3.0825,-3.0799,-3.0779,-3.0732,-3.0691,-3.0651,-3.0576,-3.051,-3.0439,-3.034,-3.0254,-3.018,-3.0079,-2.9956,-2.9823,-2.9626,-2.9392,-2.9267,-2.9115,-2.8994,-2.881,-2.8644,-2.851,-2.8484,-2.838,-2.8129,-2.7264,-2.6153,-2.5177,-2.557,-2.5317,-2.493,-2.5345,-2.4902,-2.4144,-2.3642,-2.327,-2.3143,-2.3443,-2.3786,-2.4216,-2.4712,-2.4936,-2.4839,-2.3996,-2.4414,-2.4964,-2.5044,-2.4108,-2.3429,-2.3958,-2.3431,-2.3132,-2.3894,-2.3788,-2.3688,-2.3937,-2.3156,-2.2415,-2.2108,-2.1452,-2.0801,-2.0143,-1.971,-1.9117,-1.8305,-1.8089,-1.7775,-1.7235,-1.6957,-1.6856,-1.7024,-1.6518,-1.6404,-1.6698,-1.5891,-1.5313,-1.5021,-1.4255,-1.4255,-1.4895,-1.4601,-1.4246,-1.3957,-1.3777,-1.3243,-1.2536,-1.2536,-1.2158,-1.1633,-1.0952,-1.0613,-1.0451,-1.0116,-0.9913,-0.9627]},{"header":{"parameterUnit":"m.s-1","parameterCategory":1,"la1":30.6,"la2":28.766,"lo1":-90.7593,"lo2":-88.6598,"dy":0.0162,"dx":0.0183,"nx":116,"ny":114,"refTime":"2023-09-08T06:00:00:Z","depth":0,"parameterNumber":3,"parameterNumberName":"V-component_of_WINDS"},"data":[0.0,0.0,0.0,0.0,0.0,0.0,0.0,0.0,0.0,0.0,0.0,0.0,0.0,0.0,0.0,0.0,0.0,0.0,0.0,0.0,0.0,0.0,0.0,0.0,0.0,0.0,0.0,0.0,0.0,0.0,0.0,0.0,0.0,0.0,0.0,0.0,0.0,0.0,0.0,0.0,0.0,0.0,0.0,0.0,0.0,0.0,0.0,0.0,0.0,0.0,0.0,0.0,0.0,0.0,0.0,0.0,0.0,0.0,0.0,0.0,0.0,0.0,0.0,0.0,0.0,0.0,0.0,0.0,0.0,0.0,0.0,0.0,0.0,0.0,0.0,0.0,0.0,0.0,0.0,0.0,0.0,0.0,0.0,0.0,0.0,0.0,0.0,0.0,0.0,0.0,0.0,0.0,0.0,0.0,0.0,0.0,0.0,0.0,0.0,0.0,0.0,0.0,0.0,0.0,0.0,0.0,0.0,0.0,0.0,0.0,0.0,0.0,0.0,0.0,0.0,0.0,0.0,0.0,0.0,0.0,0.0,0.0,0.0,0.0,0.0,0.0,0.0,0.0,0.0,0.0,0.0,0.0,0.0,0.0,0.0,0.0,0.0,0.0,0.0,0.0,0.0,0.0,0.0,0.0,0.0,0.0,0.0,0.0,0.0,0.0,0.0,0.0,0.0,0.0,0.0,0.0,0.0,0.0,0.0,0.0,0.0,0.0,0.0,0.0,0.0,0.0,0.0,0.0,0.0,0.0,0.0,0.0,0.0,0.0,0.0,0.0,0.0,0.0,0.0,0.0,0.0,0.0,0.0,0.0,0.0,0.0,0.0,0.0,0.0,0.0,0.0,0.0,0.0,0.0,0.0,0.0,0.0,0.0,0.0,0.0,0.0,0.0,0.0,0.0,0.0,0.0,0.0,0.0,0.0,0.0,0.0,0.0,0.0,0.0,0.0,0.0,0.0,0.0,0.0,0.0,0.0,0.0,0.0,0.0,0.0,0.0,0.0,0.0,0.0,0.0,0.0,0.0,0.0,0.0,0.0,0.0,0.0,0.0,0.0,0.0,0.0,0.0,0.0,0.0,0.0,0.0,0.0,0.0,0.0,0.0,0.0,0.0,0.0,0.0,0.0,0.0,0.0,0.0,0.0,0.0,0.0,0.0,0.0,0.0,0.0,0.0,0.0,0.0,0.0,0.0,0.0,0.0,0.0,0.0,0.0,0.0,0.0,0.0,0.0,0.0,0.0,0.0,0.0,0.0,0.0,0.0,0.0,0.0,0.0,0.0,0.0,0.0,0.0,0.0,0.0,0.0,0.0,0.0,0.0,0.0,0.0,0.0,0.0,0.0,0.0,0.0,0.0,0.0,0.0,0.0,0.0,0.0,0.0,0.0,0.0,0.0,0.0,0.0,0.0,0.0,0.0,0.0,0.0,0.0,0.0,0.0,0.0,0.0,0.0,0.0,0.0,0.0,0.0,0.0,0.0,0.0,0.0,0.0,0.0,0.0,0.0,0.0,0.0,0.0,0.0,0.0,0.0,0.0,0.0,0.0,0.0,0.0,0.0,0.0,0.0,0.0,0.0,0.0,0.0,0.0,0.0,0.0,0.0,0.0,0.0,0.0,0.0,0.0,0.0,0.0,0.0,0.0,0.0,0.0,0.0,0.0,0.0,0.0,0.0,0.0,0.0,0.0,0.0,0.0,0.0,0.0,0.0,0.0,0.0,0.0,0.0,0.0,0.0,0.0,0.0,0.0,0.0,0.0,0.0,0.0,0.0,0.0,0.0,0.0,0.0,0.0,0.0,0.0,0.0,0.0,0.0,0.0,0.0,0.0,0.0,0.0,0.0,0.0,0.0,0.0,0.0,0.0,0.0,0.0,0.0,0.0,0.0,0.0,0.0,0.0,0.0,0.0,0.0,0.0,0.0,0.0,0.0,0.0,0.0,0.0,0.0,0.0,0.0,0.0,0.0,0.0,0.0,0.0,0.0,0.0,0.0,0.0,0.0,0.0,0.0,0.0,0.0,0.0,0.0,0.0,0.0,0.0,0.0,0.0,0.0,0.0,0.0,0.0,0.0,0.0,0.0,0.0,0.0,0.0,0.0,0.0,0.0,0.0,0.0,0.0,0.0,0.0,0.0,0.0,0.0,0.0,0.0,0.0,0.0,0.0,0.0,0.0,0.0,0.0,0.0,0.0,0.0,0.0,0.0,0.0,0.0,0.0,0.0,0.0,0.0,0.0,0.0,0.0,0.0,0.0,0.0,0.0,0.0,0.0,0.0,0.0,0.0,0.0,0.0,0.0,0.0,0.0,0.0,0.0,0.0,0.0,0.0,0.0,0.0,0.0,0.0,0.0,0.0,0.0,0.0,0.0,0.0,0.0,0.0,0.0,0.0,0.0,0.0,0.0,0.0,0.0,0.0,0.0,0.0,0.0,0.0,0.0,0.0,0.0,0.0,0.0,0.0,0.0,0.0,0.0,0.0,0.0,0.0,0.0,0.0,0.0,0.0,0.0,0.0,0.0,0.0,0.0,0.0,0.0,0.0,0.0,0.0,0.0,0.0,0.0,0.0,0.0,0.0,0.0,0.0,0.0,0.0,0.0,0.0,0.0,0.0,0.0,0.0,0.0,0.0,0.0,0.0,0.0,0.0,0.0,0.0,0.0,0.0,0.0,0.0,0.0,0.0,0.0,0.0,0.0,0.0,0.0,0.0,0.0,0.0,0.0,0.0,0.0,0.0,0.0,0.0,0.0,0.0,0.0,0.0,0.0,0.0,0.0,0.0,0.0,0.0,0.0,0.0,0.0,0.0,0.0,0.0,0.0,0.0,0.0,0.0,0.0,0.0,0.0,0.0,0.0,0.0,0.0,0.0,0.0,0.0,0.0,0.0,0.0,0.0,0.0,0.0,0.0,0.0,0.0,0.0,0.0,0.0,0.0,0.0,0.0,0.0,0.0,0.0,0.0,0.0,0.0,0.0,0.0,0.0,0.0,0.0,0.0,0.0,0.0,0.0,0.0,0.0,0.0,0.0,0.0,0.0,0.0,0.0,0.0,0.0,0.0,0.0,0.0,0.0,0.0,0.0,0.0,0.0,0.0,0.0,0.0,0.0,0.0,0.0,0.0,0.0,0.0,0.0,0.0,0.0,0.0,0.0,0.0,0.0,0.0,0.0,0.0,0.0,0.0,0.0,0.0,0.0,0.0,0.0,0.0,0.0,0.0,0.0,0.0,0.0,0.0,0.0,0.0,0.0,0.0,0.0,0.0,0.0,0.0,0.0,0.0,0.0,0.0,0.0,0.0,0.0,0.0,0.0,0.0,0.0,0.0,0.0,0.0,0.0,0.0,0.0,0.0,0.0,0.0,0.0,0.0,0.0,0.0,0.0,0.0,0.0,0.0,0.0,0.0,0.0,0.0,0.0,0.0,0.0,0.0,0.0,0.0,0.0,0.0,0.0,0.0,0.0,0.0,0.0,0.0,0.0,0.0,0.0,0.0,0.0,0.0,0.0,0.0,0.0,0.0,0.0,0.0,0.0,0.0,0.0,0.0,0.0,0.0,0.0,0.0,0.0,0.0,0.0,0.0,0.0,0.0,0.0,0.0,0.0,0.0,0.0,0.0,0.0,0.0,0.0,0.0,0.0,0.0,0.0,0.0,0.0,0.0,0.0,0.0,0.0,0.0,0.0,0.0,0.0,0.0,0.0,0.0,0.0,0.0,0.0,0.0,0.0,0.0,0.0,0.0,0.0,0.0,0.0,0.0,0.0,0.0,0.0,0.0,0.0,0.0,0.0,0.0,0.0,0.0,0.0,0.0,0.0,0.0,0.0,0.0,0.0,0.0,0.0,0.0,0.0,0.0,0.0,0.0,0.0,0.0,0.0,0.0,0.0,0.0,0.0,0.0,0.0,0.0,0.0,0.0,0.0,0.0,0.0,0.0,0.0,0.0,0.0,0.0,0.0,0.0,0.0,0.0,0.0,0.0,0.0,0.0,0.0,0.0,0.0,0.0,0.0,0.0,0.0,0.0,0.0,0.0,0.0,0.0,0.0,0.0,0.0,0.0,0.0,0.0,0.0,0.0,0.0,0.0,0.0,0.0,0.0,0.0,0.0,0.0,0.0,0.0,0.0,0.0,0.0,0.0,0.0,0.0,0.0,0.0,0.0,0.0,0.0,0.0,0.0,0.0,0.0,0.0,0.0,0.0,0.0,0.0,0.0,0.0,0.0,0.0,0.0,0.0,0.0,0.0,0.0,0.0,0.0,0.0,0.0,0.0,0.0,0.0,0.0,0.0,0.0,0.0,0.0,0.0,0.0,0.0,0.0,0.0,0.0,0.0,0.0,0.0,0.0,0.0,0.0,0.0,0.0,0.0,0.0,0.0,0.0,0.0,0.0,0.0,0.0,0.0,0.0,0.0,0.0,0.0,0.0,0.0,0.0,0.0,0.0,0.0,0.0,0.0,0.0,0.0,0.0,0.0,0.0,0.0,0.0,0.0,0.0,0.0,0.0,0.0,0.0,0.0,0.0,0.0,0.0,0.0,0.0,0.0,0.0,0.0,0.0,0.0,0.0,0.0,0.0,0.0,0.0,0.0,0.0,0.0,0.0,0.0,0.0,0.0,0.0,0.0,0.0,0.0,0.0,0.0,0.0,0.0,0.0,0.0,0.0,0.0,0.0,0.0,0.0,0.0,0.0,0.0,0.0,0.0,0.0,0.0,0.0,0.0,0.0,0.0,0.0,0.0,0.0,0.0,0.0,0.0,0.0,0.0,0.0,0.0,0.0,0.0,0.0,0.0,0.0,0.0,0.0,0.0,0.0,0.0,0.0,0.0,0.0,0.0,0.0,0.0,0.0,0.0,0.0,0.0,0.0,0.0,0.0,0.0,0.0,0.0,0.0,0.0,0.0,0.0,0.0,0.0,0.0,0.0,0.0,0.0,0.0,0.0,0.0,0.0,0.0,0.0,0.0,0.0,0.0,0.0,0.0,0.0,0.0,0.0,0.0,0.0,0.0,0.0,0.0,0.0,0.0,0.0,0.0,0.0,0.0,0.0,0.0,0.0,0.0,0.0,0.0,0.0,0.0,0.0,0.0,0.0,0.0,0.0,0.0,0.0,0.0,0.0,0.0,0.0,0.0,0.0,0.0,0.0,0.0,0.0,0.0,0.0,0.0,0.0,0.0,0.0,0.0,0.0,0.0,0.0,0.0,0.0,0.0,0.0,0.0,0.0,0.0,0.0,0.0,0.0,0.0,0.0,0.0,0.0,0.0,0.0,0.0,0.0,0.0,0.0,0.0,0.0,0.0,0.0,0.0,0.0,0.0,0.0,0.0,0.0,0.0,0.0,0.0,0.0,0.0,0.0,0.0,0.0,0.0,0.0,0.0,0.0,0.0,0.0,0.0,0.0,0.0,0.0,0.0,0.0,0.0,0.0,0.0,0.0,0.0,0.0,0.0,0.0,0.0,0.0,0.0,0.0,0.0,0.0,0.0,0.0,0.0,0.0,0.0,0.0,0.0,0.0,0.0,0.0,0.0,0.0,0.0,0.0,0.0,0.0,0.0,0.0,0.0,0.0,0.0,0.0,0.0,0.0,0.0,0.0,0.0,0.0,0.0,0.0,0.0,0.0,0.0,0.0,0.0,0.0,0.0,0.0,0.0,0.0,0.0,0.0,0.0,0.0,0.0,0.0,0.0,0.0,0.0,0.0,0.0,0.0,0.0,0.0,0.0,0.0,0.0,0.0,0.0,0.0,0.0,0.0,0.0,0.0,0.0,0.0,0.0,0.0,0.0,0.0,0.0,0.0,0.0,0.0,0.0,0.0,0.0,0.0,0.0,0.0,0.0,0.0,0.0,0.0,0.0,0.0,0.0,0.0,0.0,0.0,0.0,0.0,0.0,0.0,0.0,0.0,0.0,0.0,0.0,0.0,0.0,0.0,0.0,0.0,0.0,0.0,0.0,0.0,0.0,0.0,0.0,0.0,0.0,0.0,0.0,0.0,0.0,0.0,0.0,0.0,0.0,0.0,0.0,0.0,0.0,0.0,0.0,0.0,0.0,0.0,0.0,0.0,0.0,0.0,0.0,0.0,0.0,0.0,0.0,0.0,-1.8891,0.0,0.0,0.0,0.0,0.0,0.0,0.0,0.0,0.0,0.0,0.0,0.0,0.0,0.0,0.0,0.0,0.0,0.0,0.0,0.0,0.0,0.0,0.0,0.0,0.0,0.0,0.0,0.0,0.0,0.0,0.0,0.0,0.0,0.0,0.0,0.0,0.0,0.0,0.0,-0.8133,-1.1006,-1.4809,-1.5237,-1.614,-1.7357,0.0,0.0,0.0,0.0,0.0,0.0,0.0,0.0,0.0,0.0,0.0,0.0,0.0,0.0,0.0,0.0,0.0,0.0,0.0,0.0,0.0,0.0,0.0,0.0,0.0,0.0,0.0,0.0,0.0,0.0,0.0,0.0,0.0,0.0,0.0,0.0,0.0,0.0,0.0,0.0,0.0,0.0,0.0,0.0,0.0,0.0,0.0,0.0,0.0,0.0,0.0,0.0,0.0,0.0,0.0,0.0,0.0,0.0,0.0,0.0,0.0,0.0,0.0,0.0,0.0,0.0,0.0,0.0,0.0,0.0,0.0,-1.8774,0.0,0.0,0.0,0.0,0.0,0.0,0.0,0.0,0.0,0.0,0.0,0.0,0.0,0.0,0.0,0.0,0.0,0.0,0.0,0.0,0.0,0.0,0.0,0.0,-0.0449,-0.0393,-0.0673,0.0,0.0,0.0,0.0,0.0,0.0,0.0,0.0,-0.379,-0.4436,-0.5391,-0.8849,-1.3117,-1.8101,-1.9425,-2.0264,-2.0651,-1.9993,0.0,0.0,0.0,0.0,0.0,0.0,0.0,0.0,0.0,0.0,0.0,0.0,0.0,0.0,0.0,0.0,0.0,0.0,0.0,0.0,0.0,0.0,0.0,0.0,0.0,0.0,0.0,0.0,0.0,0.0,0.0,0.0,0.0,0.0,0.0,0.0,0.0,0.0,0.0,0.0,0.0,0.0,0.0,0.0,0.0,0.0,0.0,0.0,0.0,0.0,0.0,0.0,0.0,0.0,0.0,0.0,0.0,0.0,0.0,0.0,0.0,0.0,0.0,-2.0506,-2.0848,-2.1221,-2.1221,-2.1221,-2.1129,-1.9483,-1.8779,-1.8821,0.0,0.0,0.0,0.0,0.0,0.0,0.0,0.0,0.0,0.0,0.0,0.0,0.0,0.0,0.0,0.0,0.0,0.0,0.0,0.0,0.0,0.0,-0.0505,-0.0842,-0.0842,-0.0617,-0.0617,0.0,0.0,0.0,0.0,0.0,0.0,-0.2238,-0.34,-0.3149,-0.1473,-0.8003,-1.2266,-1.4447,-2.0748,-2.4879,-2.6827,-2.2943,-2.182,-2.2779,0.0,0.0,0.0,0.0,0.0,0.0,0.0,0.0,0.0,0.0,0.0,0.0,0.0,0.0,0.0,0.0,0.0,0.0,0.0,0.0,0.0,0.0,0.0,0.0,0.0,0.0,0.0,0.0,0.0,0.0,0.0,0.0,0.0,0.0,0.0,0.0,0.0,0.0,0.0,0.0,0.0,-1.9082,-1.9623,0.0,0.0,0.0,0.0,0.0,0.0,0.0,0.0,0.0,0.0,0.0,0.0,0.0,0.0,-1.9829,-2.1001,-2.1369,-2.1078,-2.1514,-2.1525,-2.1221,-2.1221,-2.1221,-2.1187,-2.0484,0.0,-1.9097,-1.9198,0.0,0.0,0.0,0.0,0.0,0.0,0.0,0.0,0.0,0.0,0.0,0.0,0.0,0.0,0.0,0.0,0.0,0.0,0.0,0.0,0.0,-0.0729,-0.0785,-0.0449,-0.0228,-0.0229,-0.056,0.0,0.0,0.0,0.0,-0.2519,-0.2577,-0.2176,-0.3783,-0.7425,-1.1038,-1.5852,-2.1769,-2.5604,-2.7949,-2.8909,-2.7,-2.5634,-2.473,-2.4296,0.0,0.0,0.0,0.0,0.0,0.0,0.0,0.0,0.0,0.0,0.0,0.0,0.0,0.0,0.0,0.0,0.0,0.0,0.0,0.0,0.0,0.0,0.0,0.0,0.0,0.0,0.0,0.0,0.0,0.0,0.0,0.0,0.0,0.0,0.0,0.0,0.0,0.0,0.0,-1.9058,-1.9911,-1.9811,-2.0087,-2.0162,0.0,0.0,0.0,0.0,0.0,0.0,0.0,0.0,0.0,-1.9749,-2.0375,-2.1099,-2.1911,-2.2491,-2.2811,-2.2868,-2.3098,-2.3087,-2.2868,-2.2868,-2.2868,-2.2823,-2.203,-2.1175,-2.0259,-1.9226,-1.8424,-1.7899,0.0,0.0,0.0,0.0,-1.8554,-1.8594,0.0,0.0,0.0,0.0,0.0,0.0,0.0,0.0,0.0,0.0,0.0,0.0,-0.0898,-0.0735,-0.0454,-0.0,0.0349,0.0349,-0.017,-0.0805,0.0,0.0,0.0,-0.2519,-0.2577,-0.0506,-0.3332,-1.1305,-1.2936,-1.816,-2.6749,-2.9195,-3.0567,-3.0917,-3.0529,-2.909,-2.6909,-2.6123,-2.5609,-2.5288,0.0,0.0,0.0,0.0,0.0,0.0,0.0,0.0,0.0,0.0,0.0,0.0,0.0,0.0,0.0,0.0,0.0,0.0,0.0,0.0,0.0,0.0,0.0,0.0,0.0,0.0,0.0,0.0,0.0,0.0,0.0,0.0,0.0,0.0,0.0,0.0,0.0,-1.9623,-2.0504,-1.9874,-2.0366,-2.0492,0.0,0.0,0.0,0.0,0.0,0.0,-1.9333,-1.9801,-2.0449,-2.1179,-2.1453,-2.2205,-2.3361,-2.3569,-2.3833,-2.42,-2.42,-2.42,-2.42,-2.42,-2.42,-2.4143,-2.3121,-2.2246,-2.1343,-1.968,-1.8658,-1.8012,-1.7906,-1.7828,-1.7869,-1.8253,-1.841,-1.841,0.0,0.0,0.0,0.0,0.0,0.0,0.0,0.0,0.0,0.0,0.0,-0.0898,-0.0898,-0.0346,0.0059,0.0118,0.106,0.1237,0.0176,-0.0742,-0.1456,-0.2071,-0.291,-0.274,-0.1398,0.1543,-0.0376,-0.7575,-1.1187,-1.6442,-2.3282,-2.9328,-3.3017,-3.4451,-3.2672,-3.1102,-2.9652,-2.7675,-2.71,-2.7382,-2.5545,0.0,0.0,0.0,0.0,0.0,0.0,0.0,0.0,0.0,0.0,0.0,0.0,0.0,0.0,0.0,0.0,0.0,0.0,0.0,0.0,0.0,0.0,0.0,0.0,0.0,0.0,0.0,0.0,0.0,0.0,0.0,0.0,0.0,0.0,0.0,0.0,0.0,0.0,-1.9874,-2.0444,0.0,0.0,0.0,0.0,-2.0187,-2.1718,-2.2209,-2.1235,-2.2739,-2.3291,-2.2545,-2.3502,-2.385,-2.3372,-2.3925,-2.4166,-2.42,-2.42,-2.42,-2.42,-2.42,-2.42,-2.4143,-2.3121,-2.2375,-2.1801,-2.1105,-1.9946,-1.8798,-1.9425,-1.9348,-1.8915,-1.8939,-1.8951,-1.8951,0.0,0.0,0.0,0.0,0.0,0.0,0.0,0.0,0.0,-0.0954,-0.0898,-0.1187,-0.1905,-0.076,-0.0178,-0.0847,0.0666,0.1503,0.1001,0.0523,-0.0057,-0.0613,-0.2127,-0.2151,-0.0519,-0.0289,-0.2611,-0.7496,-1.3661,-2.0764,-2.8637,-3.1758,-3.3457,-3.3826,-3.2292,-3.1285,-3.0611,-2.9096,-2.8125,-2.7507,-2.6042,-2.5376,0.0,0.0,0.0,0.0,0.0,0.0,0.0,0.0,0.0,0.0,0.0,0.0,0.0,0.0,0.0,0.0,0.0,0.0,0.0,0.0,0.0,0.0,0.0,0.0,0.0,0.0,0.0,0.0,0.0,0.0,0.0,0.0,0.0,0.0,0.0,0.0,0.0,-2.0916,-2.1448,0.0,0.0,-2.1579,-2.1428,-2.1962,-2.2083,-2.2154,-2.2055,-2.2735,-2.3137,-2.3097,-2.3468,-2.3883,-2.4384,-2.4568,-2.4659,-2.4659,-2.4659,-2.4499,-2.4189,-2.3856,-2.389,-2.412,-2.2777,-2.2283,-2.2306,-2.1214,-1.9924,-1.8614,-1.8649,-1.8382,-1.8013,-1.8362,-1.8482,-1.8482,0.0,0.0,0.0,0.0,0.0,0.0,0.0,0.0,-0.129,-0.1233,-0.0953,-0.0965,-0.1642,-0.1189,-0.0727,-0.0436,0.0743,0.1465,0.1375,0.076,0.0229,-0.0167,-0.13,-0.1495,-0.0645,-0.1187,-0.4325,-1.0212,-1.583,-2.2936,-3.1329,-3.2474,-3.2826,-3.243,-3.1307,-3.0772,-3.0587,-2.9475,-2.8319,-2.7103,-2.5988,-2.5207,-2.4709,0.0,0.0,0.0,0.0,0.0,0.0,0.0,0.0,0.0,0.0,0.0,0.0,0.0,0.0,0.0,0.0,0.0,0.0,0.0,0.0,0.0,0.0,0.0,0.0,0.0,0.0,0.0,0.0,0.0,0.0,0.0,0.0,0.0,0.0,0.0,-2.1305,-2.1963,-2.1938,-2.2235,-2.3088,-2.2154,-2.1897,-2.2811,-2.2898,-2.2884,-2.2843,-2.3096,-2.3285,-2.342,-2.3372,-2.3693,-2.4418,-2.459,-2.4671,-2.4671,-2.4671,-2.4499,-2.4177,-2.3672,-2.3626,-2.3856,-2.2329,-2.1858,-2.2131,-2.0908,-1.9762,-1.8698,-1.8602,-1.8255,-1.7939,-1.8338,-1.847,-1.8422,0.0,0.0,0.0,0.0,0.0,0.0,0.0,-0.1682,-0.1402,-0.1734,-0.1008,-0.0284,0.0059,-0.1517,-0.1375,0.1478,0.1504,0.1293,0.1106,-0.0,-0.0724,-0.0839,-0.0518,-0.0762,-0.1709,-0.1163,-0.5613,-1.5314,-1.7388,-2.2481,-3.0315,-3.1147,-3.1157,-3.0516,-2.9848,-2.9598,-2.9604,-2.8747,-2.7566,-2.6247,-2.5353,-2.4418,-2.359,0.0,0.0,0.0,0.0,0.0,0.0,0.0,0.0,0.0,0.0,0.0,0.0,0.0,0.0,0.0,0.0,0.0,0.0,0.0,0.0,0.0,0.0,0.0,0.0,0.0,0.0,0.0,0.0,0.0,0.0,0.0,0.0,0.0,-2.0457,-2.0474,-2.1038,-2.2871,-2.1987,-2.1686,-2.2764,-2.2333,-2.2202,-2.2674,-2.4117,-2.455,-2.3607,-2.4024,-2.3967,-2.342,-2.3361,-2.3361,-2.3349,-2.3936,-2.4189,-2.4177,-2.4189,-2.42,-2.4177,-2.3661,-2.3361,-2.3292,-2.1824,-2.1233,-2.1175,-2.0271,-1.9611,-1.9169,-1.9471,-1.9262,-1.8798,-1.8946,-1.8987,-1.8819,0.0,0.0,0.0,0.0,0.0,0.0,0.0,-0.1682,-0.1289,-0.1174,-0.0896,-0.0687,-0.0484,0.0306,0.081,0.0769,0.169,0.2076,0.179,0.04,-0.0226,0.0231,-0.035,-0.042,0.0314,-1.3026,-1.8479,-1.5375,-2.2075,-2.5393,-2.5473,-2.7073,-2.7411,-2.6623,-2.6315,-2.6408,-2.6759,-2.5899,-2.5131,-2.4448,-2.4733,-2.4304,-2.3418,0.0,0.0,0.0,0.0,0.0,0.0,0.0,0.0,0.0,0.0,0.0,0.0,0.0,0.0,0.0,0.0,0.0,0.0,0.0,0.0,0.0,0.0,0.0,0.0,0.0,0.0,0.0,0.0,0.0,0.0,0.0,0.0,-1.8392,-1.9662,-2.0682,-2.1663,-2.2542,-2.2336,-2.2624,-2.3859,-2.2775,-2.2409,-2.345,-2.3414,-2.3311,-2.3039,-2.3391,-2.3414,-2.2891,-2.3247,-2.327,-2.2891,-2.3764,-2.4016,-2.3649,-2.4016,-2.42,-2.4166,-2.3282,-2.3087,-2.3292,-2.1824,-2.1376,-2.1617,-2.03,-1.9667,-1.9564,-1.9568,-1.9262,-1.8798,-1.8946,-1.8746,-1.8326,0.0,0.0,0.0,0.0,0.0,0.0,0.0,-0.1682,-0.1346,-0.1398,-0.112,-0.0686,-0.018,0.1452,0.2205,0.1383,0.1782,0.2039,0.1883,0.0173,-0.0403,0.0587,-0.0301,-0.1694,-0.3562,-1.3351,-1.8008,-1.7129,-2.0918,-2.2166,-2.1029,-2.2743,-2.3081,-2.2254,-2.255,-2.2842,-2.3103,-2.2834,-2.2389,-2.1952,-2.226,-2.2315,-2.215,-2.1126,-2.0402,-1.9953,-1.9571,-1.8963,-1.8288,-1.815,0.0,0.0,0.0,0.0,0.0,0.0,0.0,0.0,0.0,0.0,0.0,0.0,0.0,0.0,0.0,0.0,0.0,0.0,0.0,0.0,0.0,0.0,0.0,0.0,-1.8987,-1.9283,-2.0673,-2.1008,-2.165,-2.3016,-2.2436,-2.2473,-2.3918,-2.2711,-2.2242,-2.3149,-2.3007,-2.2759,-2.2545,-2.2754,-2.2694,-2.2375,-2.2857,-2.2983,-2.2685,-2.3695,-2.3895,-2.325,-2.3543,-2.3519,-2.318,-2.2704,-2.2531,0.0,-2.1601,-2.1215,-2.1192,-1.9895,-1.9493,0.0,0.0,0.0,0.0,0.0,-1.8326,-1.7832,0.0,0.0,0.0,0.0,0.0,0.0,0.0,-0.1737,-0.157,-0.2073,-0.14,-0.0511,0.0352,0.1947,0.2864,0.2565,0.1849,0.141,0.1351,-0.047,-0.1003,0.0297,-0.0724,-0.3859,-0.9197,-0.7549,-1.0359,-1.8042,-1.5748,-1.5326,-1.6607,-1.7912,-1.8222,-1.7746,-1.8742,-1.9193,-1.9263,-1.9744,-1.9688,-1.9228,-1.887,-1.9382,-2.0327,-1.967,-1.8751,-1.7855,-1.7702,-1.6805,-1.5749,-1.5823,0.0,0.0,0.0,0.0,0.0,0.0,0.0,0.0,0.0,0.0,0.0,0.0,0.0,0.0,0.0,0.0,0.0,0.0,0.0,0.0,0.0,0.0,0.0,0.0,-2.0323,-2.0969,-2.2499,-2.1418,-2.1384,-2.3649,-2.2336,-2.1787,-2.3254,-2.2388,-2.1871,-2.2295,-2.2649,-2.2655,-2.2169,0.0,0.0,0.0,0.0,-2.2731,-2.2685,-2.3612,-2.3644,-2.2914,-2.2894,-2.251,-2.1748,-2.2015,-2.1838,-2.1417,-2.1246,-2.0905,-2.0423,-1.9459,-1.931,-1.9644,-1.8931,-1.8672,-1.8608,-1.8366,-1.7953,-1.7496,0.0,0.0,0.0,0.0,0.0,0.0,0.0,-0.2128,-0.2128,-0.2408,-0.1286,-0.051,-0.0527,0.1411,0.2595,0.2246,0.1764,0.082,-0.0702,-0.123,-0.1439,-0.126,-0.3906,-0.5097,-0.4536,-0.9133,-1.0742,-0.9106,-0.9713,-1.0286,-1.0917,-1.1973,-1.3084,-1.4251,-1.5458,-1.6269,-1.6838,-1.7641,-1.783,-1.755,-1.7292,-1.8018,-1.8945,-1.7453,-1.6928,-1.6895,-1.5792,-1.5626,-1.584,-1.5252,-1.5437,-1.5836,-1.5397,-1.5086,0.0,0.0,0.0,0.0,0.0,0.0,0.0,0.0,0.0,0.0,0.0,0.0,0.0,0.0,0.0,0.0,0.0,0.0,0.0,-2.0564,-2.0938,-2.13,-2.2387,-2.1967,-2.1811,-2.2748,-2.2095,-2.178,-2.2101,-2.1952,-2.178,-2.1873,-2.1977,-2.1869,-2.1711,-2.1985,0.0,-2.2048,-2.281,-2.3098,-2.2685,-2.3028,-2.2941,-2.2317,0.0,0.0,-2.1355,-2.1553,-2.1428,-2.0994,-2.1153,-2.1175,-2.0974,-2.0366,-2.0001,-1.9784,-1.9329,-1.91,-1.8922,-1.8879,-1.8506,-1.8049,0.0,0.0,0.0,0.0,0.0,0.0,0.0,-0.2462,-0.2687,-0.2747,-0.2291,-0.1852,-0.1485,-0.0229,0.0571,0.0627,0.0342,-0.0402,-0.181,-0.3364,-0.445,-0.4981,-0.6845,-0.8322,-0.933,-0.869,-0.7533,-0.5859,-0.5425,-0.5306,-0.5485,-0.7531,-0.8968,-0.9841,-1.1528,-1.2343,-1.2524,-1.3374,-1.4042,-1.4482,-1.3895,-1.444,-1.5679,-1.5647,-1.542,-1.5091,-1.4894,-1.4603,-1.4317,-1.4423,-1.4616,-1.4733,-1.4344,-1.4067,-1.3936,0.0,0.0,0.0,0.0,0.0,0.0,0.0,0.0,0.0,0.0,0.0,0.0,0.0,0.0,-1.7027,0.0,0.0,-2.0175,-2.1546,-2.1807,-2.2056,-2.2739,-2.2449,-2.2066,-2.1828,-2.16,-2.1373,-2.1135,-2.1114,-2.1207,-2.1445,-2.1386,-2.1481,-2.1565,-2.1776,-2.1963,-2.2125,-2.2373,-2.2506,-2.2472,-2.2399,-2.1902,-2.1062,-2.0917,-2.0432,-1.9654,-2.0154,-2.0151,-1.9775,-2.0288,-2.0587,-2.0677,-2.0757,-2.022,-1.9383,-1.9599,-1.9518,-1.9203,-1.873,-1.8434,-1.8205,0.0,0.0,0.0,0.0,0.0,0.0,0.0,0.0,-0.3244,-0.3193,-0.3522,-0.3458,-0.2619,-0.2115,-0.1722,-0.1385,-0.1387,-0.1809,-0.2648,-0.5555,-0.7406,-0.7599,-0.9042,-1.0784,-1.2795,-0.6398,-0.32,-0.3441,-0.112,-0.0237,-0.0913,-0.3593,-0.523,-0.6054,-0.788,-0.8674,-0.8607,-0.9369,-1.0284,-1.125,-1.0622,-1.0999,-1.2177,-1.347,-1.3647,-1.3251,-1.3866,-1.3401,-1.2592,-1.3247,-1.3336,-1.3154,-1.294,-1.2898,-1.2939,-1.2979,-1.2698,0.0,0.0,0.0,0.0,0.0,0.0,0.0,0.0,0.0,-1.4359,-1.5374,-1.698,-1.859,-1.9756,-2.0716,-2.1652,-2.2501,-2.2553,-2.2625,-2.2998,-2.2573,-2.189,-2.0959,-2.1083,-2.1104,-2.0731,-2.069,-2.0845,-2.1217,-2.1166,-2.1229,-2.1618,-2.1523,-2.165,-2.2132,-2.1765,-2.1814,-2.2165,-2.1659,-2.0908,-1.9873,-1.9645,-1.9031,-1.7999,-1.8778,-1.8906,-1.8506,-1.9318,-1.9712,-1.9901,-2.0495,-1.9983,-1.8857,-1.9606,-1.9668,-1.9262,-1.8594,-1.835,-1.835,0.0,0.0,0.0,0.0,0.0,0.0,0.0,0.0,0.0,-0.3901,-0.419,-0.4304,-0.4012,-0.3553,-0.3154,-0.2874,-0.2762,-0.3017,-0.3714,-0.6827,-0.764,-0.5296,-0.9711,-0.9402,-0.3379,-0.1418,0.0526,0.2528,0.5283,0.4943,0.1665,0.0521,-0.1684,-0.4535,-0.5424,-0.6316,-0.7386,-0.8519,-0.9013,-0.9052,-0.9562,-0.9981,-1.0156,-0.998,-1.0771,-1.1948,-1.1366,-1.1603,-1.2043,-1.1329,-1.1403,-1.1897,-1.2248,-1.2456,-1.2635,-1.2997,0.0,-1.2036,-1.2024,-1.1995,0.0,-1.3064,-1.2888,-1.3085,0.0,0.0,-1.589,-1.7453,-1.9012,-2.0298,-2.0865,-2.168,-2.2511,-2.3029,-2.277,-2.2511,-2.2563,-2.1818,-2.0928,-2.0017,-2.099,-2.1704,-2.1652,-2.1652,-2.1673,-2.1725,-2.1352,-2.13,-2.178,-2.1313,-2.1375,-2.2193,-2.1886,-2.1825,-2.2165,-2.0808,-2.0072,-1.9863,-1.8779,-1.8036,-1.7568,-1.8347,-1.8457,-1.8105,-1.8782,-1.9085,-1.911,-1.9243,-1.9005,-1.8764,-1.9,-1.9007,-1.8804,-1.8893,-1.8903,-1.8903,0.0,0.0,0.0,0.0,0.0,0.0,0.0,0.0,0.0,0.0,-0.457,-0.4956,-0.4838,-0.5097,-0.5241,-0.4989,-0.4416,-0.514,-0.765,-0.8507,-0.9233,-0.9948,-1.0399,-0.8752,-0.4779,-0.0193,0.2945,0.4533,0.6821,0.6669,0.4238,0.1837,-0.0086,-0.175,-0.2891,-0.397,-0.49,-0.5365,-0.6376,-0.7725,-0.7387,-0.7802,-0.8512,-0.7926,-0.8311,-0.9184,-0.9893,-1.0397,0.0,-1.0544,-1.0768,-1.1236,-1.1331,-1.1592,-1.1818,-1.1568,-1.1712,0.0,-1.2253,0.0,0.0,0.0,-1.4125,-1.4693,-1.5536,-1.6264,-1.7016,-1.8235,-1.9715,-2.1052,-2.1787,-2.2459,-2.2873,0.0,-2.2625,-2.2304,-2.1766,-2.1124,-2.0472,-1.99,-2.0027,-2.0213,-2.0213,-1.9965,-2.0255,-2.1321,-2.0979,-2.1031,-2.1766,-2.1584,-2.1607,-2.1786,-2.1347,-2.0913,-2.0693,-1.9732,-1.8854,-1.8137,-1.786,-1.7431,-1.6817,-1.7394,-1.7543,-1.7373,-1.8104,-1.8172,-1.7823,-1.8415,-1.8397,-1.7978,-1.8474,-1.8585,-1.8578,-1.891,-1.8987,-1.8987,0.0,0.0,0.0,0.0,0.0,0.0,0.0,0.0,0.0,0.0,-0.4787,-0.5336,-0.5605,-0.6627,-0.709,-0.6833,-0.6479,-0.7463,-1.0407,-0.9923,-1.0307,-1.2035,-0.9629,-0.6764,-0.3533,0.1844,0.5396,0.7112,0.7867,0.7581,0.613,0.3055,0.1322,0.0686,-0.0858,-0.1819,-0.2457,-0.2682,-0.4046,-0.6031,-0.5338,-0.5845,-0.6987,-0.6479,-0.6494,-0.7005,-0.847,-0.9231,-0.9576,-0.9733,-1.008,-1.0549,-1.0587,-1.0879,-1.1107,-1.0862,-1.1287,-1.189,-1.2184,0.0,0.0,-1.4197,-1.5118,-1.5895,-1.5878,-1.6778,-1.7881,-1.8812,-1.9869,-2.0977,-2.1797,-2.1943,-2.1978,-2.2051,-2.1937,-2.1669,-2.1123,-2.0535,-2.0027,-1.9448,-1.8868,-1.8609,-1.8858,-1.8806,-1.9313,-2.0638,-2.0669,-2.0834,-2.1343,-2.1384,-2.1298,-2.105,-2.0371,-1.986,-1.9418,-1.8648,-1.7862,-1.7064,-1.7138,-1.6927,-1.6486,-1.678,-1.6908,-1.6908,-1.7432,-1.7373,-1.695,-1.7693,-1.7615,-1.7035,-1.7743,-1.8035,-1.8046,-1.8581,-1.8881,-1.8987,0.0,0.0,0.0,0.0,0.0,0.0,0.0,0.0,0.0,0.0,0.0,0.0,0.0,-0.7947,-0.8619,-0.8094,-0.9023,-0.9938,-1.0569,-1.0945,-1.0213,-0.8157,-0.6671,-0.2485,0.4885,0.6198,0.8406,1.1728,0.9617,0.8062,0.6996,0.4713,0.3032,0.201,0.067,-0.0252,-0.0755,-0.1594,-0.2533,-0.3515,-0.3579,-0.439,-0.5631,-0.526,-0.5459,-0.6065,-0.6973,-0.804,-0.8948,-0.8497,-0.8942,-0.9729,-1.0151,-1.048,0.0,-1.1799,-1.1835,-1.158,-1.1598,0.0,-1.3495,-1.4814,-1.546,-1.6118,-1.7322,-1.787,-1.8356,-1.9305,-1.963,-1.9867,-2.0339,-1.9646,-1.9362,-2.0653,-2.0512,-2.0369,-2.0767,-2.0206,-1.9505,-1.8526,-1.7647,-1.744,0.0,-1.9199,-1.9806,-1.9869,-2.0607,-2.0808,-2.0297,-2.0222,-2.0147,-1.9837,-1.9088,-1.874,-1.8931,-1.7806,-1.7307,-1.7468,-1.6716,-1.6541,-1.689,-1.6899,-1.6908,-1.6908,-1.6899,-1.6908,-1.6908,-1.6959,-1.6557,-1.6028,-1.6815,-1.7069,-1.7134,-1.7886,-1.8483,-1.8987,0.0,0.0,0.0,0.0,0.0,0.0,0.0,0.0,0.0,0.0,0.0,0.0,0.0,0.0,0.0,0.0,-0.8815,-1.028,-1.4133,-1.0638,-0.8906,-1.0031,-0.4765,-0.0232,0.3153,0.6248,0.8516,0.9903,0.901,0.8192,0.7462,0.4864,0.336,0.2737,0.1487,0.0553,-0.016,-0.0473,-0.1422,-0.278,-0.2975,-0.3596,-0.4398,-0.4656,-0.4864,-0.5132,0.0,-0.6625,-0.7891,-0.718,-0.7683,-0.8667,-0.8552,-0.8899,-0.9665,-1.1001,-1.132,-1.1488,-1.2672,0.0,-1.4522,-1.5978,-1.6607,-1.7032,-1.7491,-1.7921,-1.823,-1.8052,-1.805,-1.8103,-1.8241,-1.8073,-1.8281,-1.9558,-2.0082,-2.0411,-2.0494,-2.0318,-1.9644,-1.8133,-1.7688,0.0,0.0,0.0,0.0,-2.0089,-2.0213,-2.0257,-2.0173,-2.048,-2.0255,-1.9334,-1.8902,-1.8419,-1.797,-1.7497,-1.689,-1.6294,-1.6028,-1.6257,-1.6908,-1.6908,-1.6908,-1.6908,-1.6908,-1.6908,-1.689,-1.6624,-1.6358,-1.6178,-1.6432,-1.6568,-1.6736,-1.722,-1.7831,-1.8483,0.0,0.0,0.0,0.0,0.0,0.0,0.0,0.0,0.0,0.0,0.0,0.0,0.0,0.0,0.0,0.0,0.0,-1.2002,-1.5034,-1.0802,-0.845,-0.9055,-0.2946,0.1552,0.3818,0.666,0.8406,0.8975,0.8394,0.7725,0.7052,0.4992,0.3881,0.3621,0.2465,0.161,0.1039,0.0658,-0.0442,-0.2013,-0.2191,-0.295,-0.3876,-0.4125,-0.4414,0.0,-0.4629,-0.5559,-0.6703,-0.6356,-0.6966,-0.7973,-0.7978,-0.8587,-0.959,-1.0813,-1.1374,-1.1899,-1.3442,-1.4474,-1.5364,-1.6572,-1.7063,-1.7242,-1.72,-1.7322,-1.7178,-1.6536,-1.6167,-1.5946,-1.5921,-1.6033,-1.6459,-1.7697,-1.8507,-1.9201,-1.9839,-1.9554,-1.8985,-1.8266,-1.7926,0.0,0.0,0.0,0.0,-1.9116,-1.9706,-1.99,-1.9727,-2.046,-2.0246,-1.8864,-1.867,-1.8127,-1.7169,-1.6991,-1.6549,-1.5918,-1.6056,-1.6395,-1.6908,-1.6908,-1.6908,-1.6908,-1.6908,-1.6908,-1.689,-1.6633,-1.645,-1.6315,-1.6122,-1.6243,-1.6537,-1.7079,-1.7645,-1.8147,0.0,0.0,0.0,0.0,0.0,0.0,0.0,0.0,0.0,0.0,0.0,0.0,0.0,0.0,0.0,0.0,0.0,0.0,-1.3389,-1.1422,-0.8804,-0.5435,-0.1185,0.2953,0.6869,0.7644,0.8343,0.9108,0.7737,0.6742,0.6128,0.5055,0.4552,0.4406,0.3343,0.2809,0.2608,0.1673,0.033,-0.1161,-0.1221,-0.2271,-0.387,-0.3795,-0.4036,-0.448,-0.4455,-0.4893,-0.5542,0.0,0.0,0.0,-0.8406,-0.9453,-1.0523,-1.1399,-1.1978,-1.2618,-1.3848,-1.4981,-1.5979,-1.6616,-1.6839,-1.6788,-1.6646,-1.6002,-1.5291,-1.4782,-1.4005,-1.3459,0.0,-1.3639,-1.4102,-1.5289,-1.6027,-1.7067,-1.8993,-1.8212,-1.7826,0.0,0.0,0.0,0.0,0.0,0.0,-1.7121,0.0,-1.993,-1.8832,-2.0068,-2.0091,-1.8398,-1.8344,-1.7739,-1.6572,-1.6378,-1.6285,-1.6349,-1.6707,-1.689,-1.6908,-1.6908,-1.6908,-1.6908,-1.6908,-1.6908,-1.6908,-1.689,-1.667,-1.6303,-1.5993,-1.6153,-1.6648,-1.745,-1.7899,-1.8084,0.0,0.0,0.0,0.0,0.0,0.0,0.0,0.0,0.0,0.0,0.0,0.0,0.0,0.0,0.0,0.0,0.0,0.0,-1.3315,-1.1412,-0.8815,-0.5525,-0.0421,0.3649,0.6508,0.8161,0.9035,0.9079,0.7435,0.6531,0.6419,0.4897,0.4185,0.4153,0.3082,0.2392,0.2016,0.1009,0.0129,-0.0661,-0.1176,-0.1907,-0.2711,-0.327,-0.3626,-0.3845,-0.3922,-0.4294,0.0,0.0,0.0,0.0,0.0,-1.0265,-1.133,-1.1794,-1.2541,-1.3454,-1.4554,-1.5395,-1.6176,-1.6579,-1.6365,-1.6013,-1.5625,-1.4907,-1.4024,-1.3347,-1.2472,-1.1848,0.0,-1.2724,-1.3717,-1.5395,-1.7081,0.0,-1.9575,-2.0015,0.0,-1.9202,0.0,-1.912,-1.8752,-1.8598,0.0,0.0,-1.9406,-1.9596,-1.8676,-1.9353,-1.9182,-1.7778,-1.7136,-1.6755,-1.6572,-1.6253,-1.621,-1.6528,-1.6492,-1.6624,-1.6908,-1.6908,-1.6908,-1.6908,-1.6908,-1.6908,-1.689,-1.6587,-1.6578,-1.6688,-1.6029,-1.6131,-1.679,-1.7183,-1.7609,-1.8089,0.0,0.0,0.0,0.0,0.0,0.0,0.0,0.0,0.0,0.0,0.0,0.0,0.0,0.0,0.0,0.0,0.0,0.0,0.0,-1.0308,-0.7276,-0.3299,0.0944,0.428,0.6572,0.8026,0.8618,0.8395,0.7006,0.6319,0.6205,0.4998,0.4185,0.3834,0.301,0.2304,0.1598,0.0888,0.0121,0.0,0.0,-0.1647,-0.2352,-0.2858,-0.319,-0.3527,-0.3691,0.0,0.0,0.0,0.0,-0.9095,-1.0019,-1.1077,-1.2047,-1.2858,0.0,-1.418,-1.5018,-1.5854,-1.6461,-1.6487,-1.5858,-1.5174,-1.467,-1.369,-1.2593,-1.1723,-1.112,0.0,-1.0917,-1.2079,0.0,0.0,0.0,0.0,-1.9073,-1.9429,-1.9521,0.0,-1.9765,0.0,-1.9371,-1.94,-1.9459,0.0,-1.9694,-1.9363,-1.8778,-1.9134,-1.8768,-1.7432,-1.6993,-1.6622,-1.6393,-1.6166,-1.6258,-1.6603,-1.6464,-1.662,-1.6908,-1.6908,-1.6908,-1.6908,0.0,-1.6908,-1.6872,-1.6477,-1.6551,-1.6826,-1.601,-1.6141,-1.6864,-1.7671,-1.8097,-1.8445,0.0,0.0,0.0,0.0,0.0,0.0,0.0,0.0,0.0,0.0,0.0,0.0,0.0,0.0,0.0,0.0,0.0,0.0,0.0,0.0,0.0,-0.0054,0.2507,0.4811,0.6907,0.761,0.7777,0.7461,0.6534,0.5991,0.5778,0.5062,0.4401,0.3793,0.3125,0.2348,0.1457,0.0953,0.0224,-0.0729,-0.0729,-0.1457,-0.2465,0.0,-0.2856,-0.3357,-0.3583,0.0,0.0,0.0,-0.843,-0.9402,-1.0889,-1.18,-1.2563,-1.4062,-1.4669,-1.4915,-1.5307,-1.6156,-1.67,-1.6164,-1.5207,-1.4324,-1.3653,-1.2488,-1.118,-1.0287,0.0,-1.006,-1.0148,-1.1642,-1.2955,-1.3327,0.0,-1.6302,-1.8225,-1.7949,-1.8283,-2.0088,-2.0062,-1.9945,-2.0092,-2.0164,-2.0257,-2.0535,-1.9907,-1.938,-1.9013,-1.9219,-1.8712,-1.7225,-1.727,-1.6893,-1.607,-1.6132,-1.6342,-1.6533,-1.6603,-1.6682,-1.683,-1.6908,-1.6908,-1.6908,0.0,0.0,-1.6872,-1.6477,-1.6551,-1.6835,-1.6131,-1.6281,-1.7167,-1.8498,-1.8981,-1.9155,0.0,0.0,0.0,0.0,0.0,0.0,0.0,0.0,0.0,0.0,-0.4725,-0.6199,0.0,0.0,0.0,0.0,0.0,0.0,0.0,0.0,0.0,0.0,0.3544,0.5371,0.7354,0.7889,0.7836,0.7192,0.6032,0.5546,0.5791,0.457,0.4294,0.4791,0.3347,0.2625,0.2347,0.0784,-0.0168,-0.0729,-0.0954,-0.1513,-0.2296,-0.2465,0.0,0.0,0.0,0.0,0.0,0.0,-0.7957,-0.9225,-1.1532,-1.2466,-1.2888,-1.4095,-1.4845,-1.5398,-1.576,-1.5913,-1.5992,-1.5609,-1.4572,-1.3548,-1.289,-1.1711,0.0,0.0,-0.9885,-0.9863,-1.0404,-1.1319,0.0,-1.3952,0.0,0.0,0.0,0.0,-1.9068,0.0,0.0,0.0,0.0,0.0,0.0,0.0,0.0,0.0,-1.9367,-1.917,-1.826,-1.679,-1.713,-1.6894,-1.5867,-1.6491,-1.6551,-1.6202,-1.6473,-1.6603,-1.6682,-1.683,-1.6908,-1.6908,-1.6908,0.0,-1.6872,-1.6477,-1.6551,-1.6862,-1.6578,-1.7168,-1.8322,-1.9293,-1.9775,-2.0198,0.0,0.0,0.0,0.0,0.0,0.0,0.0,-0.2847,-0.3456,-0.4161,-0.5218,-0.6465,-0.7864,-0.9903,-1.2043,0.0,0.0,0.0,0.0,0.0,0.0,0.0,0.0,0.0,0.0,0.7889,0.0,0.0,0.0,0.0,0.0,0.0,0.0,0.0,0.0,0.2402,0.1899,0.0616,-0.0112,-0.0449,-0.0673,-0.1121,0.0,0.0,0.0,0.0,0.0,0.0,0.0,0.0,-0.7145,-0.7989,-1.0716,-1.2082,-1.287,-1.3673,-1.466,-1.5539,-1.587,-1.6155,-1.625,-1.5592,-1.445,-1.3279,-1.2453,0.0,0.0,0.0,-0.9855,-1.0016,-1.0499,0.0,0.0,0.0,0.0,0.0,0.0,0.0,0.0,0.0,0.0,0.0,0.0,0.0,0.0,0.0,0.0,0.0,-1.9548,-1.8437,-1.756,-1.7028,-1.6824,-1.6671,-1.6621,-1.6766,-1.6766,-1.6682,-1.6821,-1.689,-1.676,-1.683,-1.6908,-1.6908,-1.6908,0.0,-1.6872,-1.6477,-1.6551,-1.6862,-1.6661,-1.7407,-1.8633,-1.9475,-2.0178,-2.0864,0.0,0.0,0.0,0.0,0.0,0.0,0.0,-0.2961,-0.3456,-0.4933,-0.576,-0.6924,-0.8631,-1.1057,-1.3199,0.0,0.0,0.0,0.0,0.0,0.0,0.0,0.0,0.0,0.0,0.0,0.0,0.0,0.0,0.0,0.0,0.0,0.0,0.0,0.0,0.0,0.0,0.0728,0.0168,0.0,0.0,0.0,0.0,0.0,0.0,0.0,0.0,0.0,0.0,0.0,-0.6156,-0.6619,-0.9013,-1.0824,-1.2315,-1.2994,-1.4303,-1.5583,-1.5893,-1.6426,-1.663,-1.5672,-1.4509,-1.3309,-1.2189,-1.1033,0.0,0.0,-0.987,-1.0199,-1.0528,0.0,0.0,0.0,0.0,0.0,0.0,0.0,0.0,0.0,0.0,0.0,0.0,0.0,0.0,0.0,0.0,0.0,-1.9344,-1.7822,-1.711,-1.7302,-1.6737,-1.6653,-1.7109,-1.6987,-1.6987,-1.7032,-1.7262,-1.7309,-1.7114,-1.7129,-1.7176,-1.7097,-1.6886,0.0,0.0,-1.645,-1.6505,-1.6762,-1.6726,-1.7542,-1.8824,-1.9541,-2.0462,-2.14,0.0,0.0,0.0,0.0,0.0,0.0,0.0,-0.3188,-0.3458,-0.4446,-0.5647,-0.7594,-1.0839,-1.213,-1.2862,0.0,0.0,0.0,0.0,0.0,0.0,0.0,0.0,0.0,0.0,0.0,0.0,0.0,0.0,0.0,0.0,0.0,0.0,0.0,0.0,0.0,0.0,0.0,0.0,0.0,0.0,0.0,0.0,0.0,0.0,0.0,0.0,0.0,0.0,0.0,0.0,-0.5465,-0.6342,-0.8397,-1.0761,-1.2254,0.0,0.0,-1.5834,-1.6414,-1.663,-1.5672,-1.4677,-1.3528,-1.1963,0.0,0.0,-0.9746,-0.987,-1.0199,-1.0528,-1.0909,-1.1533,0.0,0.0,-1.342,0.0,0.0,0.0,0.0,0.0,0.0,0.0,0.0,0.0,0.0,0.0,0.0,0.0,-1.7945,-1.7427,-1.6943,-1.7324,-1.7136,-1.626,-1.6894,-1.7001,-1.6552,-1.7521,-1.7906,-1.7916,-1.7927,-1.7901,-1.7813,-1.6784,0.0,0.0,-1.6331,-1.634,-1.6404,-1.6921,-1.8055,-1.9465,-1.9727,-2.0794,-2.2123,0.0,0.0,0.0,0.0,0.0,0.0,-0.3965,-0.3799,-0.4125,-0.5441,-0.6312,-0.8163,-1.179,-1.1652,-1.1939,-1.3565,0.0,0.0,0.0,0.0,0.0,0.0,0.0,0.0,0.0,0.0,0.0,0.0,0.0,0.0,0.0,0.0,0.0,0.0,0.0,0.0,0.0,0.0,0.0,0.0,0.0,0.0,0.0,0.0,0.0,0.0,0.0,0.0,0.0,0.0,0.0,0.0,-0.5225,-0.6604,0.0,0.0,-1.2106,-1.3714,-1.492,-1.5778,-1.6118,-1.5138,-1.4114,-1.3023,-1.1589,0.0,0.0,-0.9665,-1.0031,-1.0433,-1.0565,-1.1011,-1.153,-1.2027,-1.2405,0.0,0.0,0.0,0.0,0.0,0.0,0.0,0.0,0.0,0.0,0.0,0.0,0.0,0.0,-1.7409,-1.7318,-1.7399,-1.7071,-1.693,-1.7034,-1.7134,-1.7124,-1.7201,-1.7561,-1.7912,-1.8158,-1.7883,-1.78,-1.793,-1.6929,0.0,0.0,-1.5881,-1.5725,-1.5955,-1.6318,-1.7077,-1.814,-1.9328,-2.0462,-2.1479,0.0,0.0,0.0,0.0,0.0,-0.3519,-0.4353,-0.446,-0.4893,-0.6268,-0.6923,-0.8779,-1.269,-1.1443,-1.1053,-1.2922,-1.0801,0.0,0.0,0.0,0.0,0.0,0.0,0.0,0.0,0.0,0.0,0.7978,0.6961,0.0,0.0,0.0,0.0,0.0,0.0,0.0,0.0,0.0,0.0,0.0,0.0,0.0,0.0,0.0,0.0,0.0,0.0,0.0,0.0,0.0,0.0,0.0,0.0,0.0,0.0,0.0,-1.0373,-1.2166,-1.3464,-1.4571,-1.5218,-1.4301,-1.3375,-1.2419,0.0,0.0,0.0,-0.9532,-1.0006,-1.0392,-1.0441,-1.0975,-1.1483,-1.1483,-1.1981,-1.2466,0.0,0.0,0.0,0.0,0.0,0.0,0.0,0.0,0.0,0.0,0.0,0.0,0.0,-1.6839,-1.6995,-1.7326,-1.6715,-1.6684,-1.7326,-1.7064,-1.7054,-1.7366,-1.7683,-1.8099,-1.8533,-1.8071,-1.8039,-1.8314,0.0,0.0,0.0,-1.5377,-1.5096,-1.5349,-1.5677,-1.6544,-1.7758,-1.9084,-2.0339,-2.1307,0.0,0.0,0.0,0.0,0.0,0.0,-0.4349,-0.4941,-0.5592,-0.6475,-0.7235,-0.9409,-1.3905,-1.1951,-1.0294,-1.0259,-0.7719,0.0,0.0,0.0,0.0,0.0,0.0,0.0,0.0,0.0,0.856,0.8072,0.6848,0.6046,0.0,0.0,0.0,0.0,0.0,0.0,0.0,0.0,0.0,0.0,0.0,0.0,0.0,0.0,0.0,0.0,0.0,0.0,0.0,0.0,0.0,0.0,0.0,0.0,-0.5222,0.0,-0.91,-1.1133,-1.1694,-1.2898,-1.3867,-1.3149,-1.253,-1.1819,0.0,0.0,-0.9637,-0.9425,-0.9671,-0.9947,-1.0104,-1.0638,-1.1137,-1.1137,-1.1409,0.0,0.0,0.0,0.0,0.0,0.0,0.0,0.0,0.0,0.0,0.0,0.0,0.0,0.0,-1.6384,-1.6384,-1.6394,-1.6384,-1.6384,-1.6394,-1.6658,-1.6818,-1.6828,-1.7931,-1.872,-1.9201,-1.8797,-1.8866,0.0,0.0,0.0,0.0,-1.4828,-1.4573,-1.4561,-1.5078,-1.676,-1.8913,-1.9113,-2.0438,-2.2113,0.0,0.0,0.0,0.0,0.0,0.0,0.0,-0.5496,-0.5932,-0.7063,-0.7337,-0.9228,-1.4002,-1.0169,-0.8113,-1.0348,-0.6193,0.0,0.0,0.0,0.0,0.0,0.0,0.0,0.0,0.0,0.8626,0.7978,0.7117,0.6317,0.5673,0.4849,0.4353,0.0,0.0,0.0,0.0,0.0,0.0,0.0,0.0,0.0,0.0,0.0,0.0,0.0,0.0,0.0,0.0,0.0,0.0,0.0,0.0,0.0,0.0,-0.5827,-0.7547,0.0,-1.0593,-1.1612,-1.2219,-1.1593,-1.121,-1.0733,-1.002,0.0,-0.933,-0.9285,-0.951,-0.9783,-0.9838,-1.0466,-1.0957,-1.0957,-1.1348,0.0,0.0,0.0,0.0,0.0,0.0,0.0,0.0,0.0,0.0,0.0,0.0,0.0,0.0,-1.6316,-1.6384,-1.6384,-1.6384,-1.6384,-1.6384,-1.6488,-1.6602,-1.6818,-1.7353,-1.8023,-1.8722,-1.8373,0.0,0.0,0.0,0.0,0.0,-1.5338,-1.4896,-1.5137,-1.537,-1.5702,-1.6307,-1.844,-1.9398,-1.9659,0.0,0.0,0.0,0.0,0.0,0.0,0.0,-0.6421,-0.7015,-0.7765,-0.8664,-1.0246,-1.2911,-0.9276,-0.6907,-0.7584,-0.2556,0.0,0.0,0.0,0.0,0.0,0.0,0.0,0.0,0.9413,0.8995,0.8455,0.7589,0.6833,0.605,0.5183,0.457,0.4187,0.3855,0.0,0.0,0.0,0.0,0.0,0.0,0.0,-0.0617,0.0,0.0,0.0,0.0,0.0,0.0,0.0,0.0,0.0,0.0,0.0,0.0,0.0,-0.6308,-0.7532,0.0,-1.0158,-1.0624,-1.0246,-0.9993,0.0,0.0,0.0,-0.9001,-0.9106,-0.9319,-0.9451,-0.9498,-1.0024,-1.0464,-1.0585,-1.0984,0.0,0.0,0.0,0.0,0.0,0.0,0.0,0.0,0.0,0.0,0.0,0.0,0.0,0.0,0.0,-1.6115,-1.6115,-1.6291,-1.6291,-1.6125,-1.6291,-1.6404,-1.6385,-1.6834,-1.7508,-1.8302,-1.8036,0.0,0.0,0.0,0.0,0.0,-1.5739,-1.532,-1.5509,-1.5649,-1.5736,-1.6048,-1.8269,-1.8977,-1.9007,0.0,0.0,0.0,0.0,0.0,0.0,0.0,-0.7545,-0.862,-0.8705,-1.0844,-1.2012,-1.1242,-0.9143,-0.6406,-0.2943,0.0,0.0,0.0,0.0,0.0,0.0,0.0,0.0,1.002,0.971,0.951,0.9309,0.8227,0.7395,0.6804,0.578,0.5042,0.4519,0.3913,0.3469,0.0,0.0,0.0,0.0,0.0,0.0,0.0,0.0,0.0,0.0,0.0,0.0,0.0,0.0,0.0,0.0,0.0,0.0,0.0,0.0,0.0,0.0,0.0,-0.8492,0.0,0.0,0.0,0.0,0.0,-0.8775,0.0,-0.8956,-0.9008,-0.9015,-0.9187,-0.9498,-0.9813,-1.0057,-1.0607,0.0,0.0,0.0,0.0,0.0,0.0,0.0,0.0,0.0,0.0,0.0,0.0,0.0,0.0,0.0,-1.5732,-1.5742,-1.6156,-1.6146,-1.5649,-1.6094,-1.6115,-1.5701,-1.6385,-1.717,-1.7948,-1.7745,0.0,0.0,0.0,0.0,0.0,-1.6203,-1.5913,-1.58,-1.5942,-1.6637,-1.7589,-1.835,-1.8999,-1.947,0.0,0.0,0.0,0.0,0.0,0.0,0.0,0.0,0.0,0.0,-1.1826,-1.2099,-1.3352,-0.8877,-0.501,0.0,0.0,0.0,0.0,0.0,0.0,0.0,0.0,0.0,1.0138,0.9569,0.9106,0.8633,0.7674,0.6911,0.6372,0.5546,0.5108,0.4959,0.4349,0.3852,0.0,0.0,0.0,0.0,0.0,0.0,0.0,0.0,0.0,0.0,-0.1286,-0.1846,0.0,0.0,0.0,0.0,0.0,0.0,0.0,0.0,-0.5007,-0.523,-0.6206,0.0,-0.7845,-0.8136,-0.8311,-0.8369,0.0,-0.8572,-0.8633,-0.8804,0.0,-0.8924,-0.9146,-0.954,-0.9962,-1.0265,0.0,0.0,0.0,0.0,0.0,0.0,0.0,0.0,0.0,0.0,0.0,0.0,0.0,0.0,0.0,0.0,-1.6084,-1.6218,-1.6322,-1.5991,-1.5163,-1.5618,-1.5794,-1.5691,-1.6058,-1.6675,-1.7409,-1.759,0.0,0.0,0.0,0.0,-1.7727,-1.7147,-1.6885,-1.6872,-1.6983,-1.6733,-1.642,-1.7679,-1.7689,-1.7245,0.0,0.0,0.0,0.0,0.0,0.0,0.0,0.0,0.0,0.0,0.0,0.0,0.0,0.0,0.0,0.0,0.0,0.0,0.0,0.0,0.0,0.0,0.0,0.9984,1.0198,0.9673,0.9256,0.8942,0.8343,0.7622,0.6683,0.6372,0.5904,0.5293,0.4206,0.3627,0.0,0.0,0.0,0.0,0.1682,0.0,0.0,0.0,0.0,0.0,-0.0838,-0.151,0.0,-0.2852,-0.3188,-0.3299,0.0,0.0,0.0,0.0,-0.446,-0.4625,-0.5382,-0.6362,-0.7182,-0.7461,-0.7788,-0.8115,-0.8268,0.0,0.0,0.0,0.0,0.0,0.0,0.0,0.0,0.0,0.0,0.0,0.0,0.0,0.0,0.0,0.0,0.0,0.0,0.0,0.0,0.0,0.0,0.0,0.0,0.0,-1.5808,-1.593,-1.6053,-1.5815,-1.5318,-1.5773,-1.5898,-1.5691,-1.6064,-1.6517,-1.7032,-1.7312,-1.7645,0.0,0.0,0.0,-1.8084,-1.7733,-1.7611,-1.7611,-1.7678,-1.7123,-1.6332,-1.739,-1.7268,-1.6708,0.0,0.0,0.0,0.0,0.0,0.0,0.0,0.0,0.0,0.0,0.0,0.0,0.0,0.0,0.0,0.0,0.0,0.0,0.0,0.0,0.0,0.0,0.0,1.0095,1.0198,0.9777,0.9539,0.9477,0.9177,0.8507,0.7369,0.7526,0.6884,0.5604,0.3972,0.3307,0.0,0.0,0.0,0.0,0.213,0.0,0.0,0.0,0.0,0.0,0.0,0.0,0.0,-0.2627,-0.3019,-0.3186,-0.363,0.0,0.0,0.0,0.0,0.0,-0.4725,-0.5819,-0.6804,-0.7025,-0.7521,-0.7955,-0.8168,0.0,0.0,0.0,0.0,0.0,0.0,0.0,0.0,0.0,0.0,0.0,0.0,0.0,0.0,0.0,0.0,0.0,0.0,0.0,0.0,0.0,0.0,0.0,0.0,0.0,0.0,-1.5532,-1.5729,-1.5794,-1.5794,-1.6115,-1.6073,-1.5691,-1.6084,-1.6472,-1.6864,-1.7088,-1.7423,0.0,0.0,0.0,-1.8084,-1.8084,-1.8084,-1.8084,-1.8139,-1.7523,-1.6684,-1.7335,-1.7224,-1.6775,0.0,0.0,0.0,0.0,0.0,0.0,0.0,0.0,0.0,0.0,0.0,0.0,0.0,0.0,0.0,0.0,0.0,0.0,0.0,0.0,0.0,0.9263,0.9316,0.9569,1.002,0.951,0.9178,0.8938,0.8583,0.8212,0.7811,0.7822,0.7175,0.5895,0.4477,0.3892,0.3855,0.2905,0.2625,0.2681,0.2294,0.0,0.0,0.0,0.0,0.0,0.0,0.0,0.0,-0.1902,-0.2573,-0.313,-0.3413,0.0,0.0,0.0,0.0,0.0,-0.4076,-0.5062,-0.6154,-0.6918,-0.7521,-0.7955,-0.8168,-0.8221,0.0,0.0,0.0,0.0,0.0,0.0,0.0,0.0,0.0,0.0,0.0,0.0,0.0,0.0,0.0,0.0,0.0,0.0,0.0,0.0,0.0,0.0,0.0,0.0,0.0,-1.6001,-1.6203,-1.627,-1.627,-1.5949,-1.5753,-1.5691,-1.5753,-1.6258,-1.7145,-1.719,-1.7534,0.0,0.0,-1.8084,-1.8084,-1.8084,-1.8084,-1.8139,-1.8313,-1.77,-1.6807,-1.7011,-1.6492,-1.5642,0.0,0.0,0.0,0.0,0.0,0.0,0.0,0.0,0.0,0.0,0.0,0.0,0.0,0.0,0.0,0.0,0.0,0.0,0.0,0.0,0.0,0.9456,0.9355,0.9503,0.9863,0.9349,0.9123,0.9131,0.9053,0.8777,0.8238,0.7563,0.6643,0.5553,0.4471,0.3966,0.3852,0.3128,0.3016,0.3236,0.0,0.0,0.0,0.0,0.0,0.0,0.0,0.0,0.0,0.0,-0.2238,-0.2573,-0.3077,0.0,0.0,0.0,0.0,0.0,-0.3747,-0.4515,-0.55,-0.6312,-0.7295,-0.8098,-0.8354,-0.8429,0.0,0.0,0.0,0.0,0.0,0.0,0.0,0.0,0.0,0.0,0.0,0.0,0.0,0.0,0.0,0.0,0.0,0.0,0.0,0.0,0.0,0.0,0.0,0.0,0.0,-1.6114,-1.6306,-1.6384,-1.6384,-1.6167,-1.6063,-1.6063,-1.6221,-1.6549,-1.6976,-1.7312,-1.7645,-1.7877,0.0,-1.8084,-1.8084,-1.8084,-1.8084,-1.8084,-1.7843,-1.7501,-1.7123,-1.7011,-1.6322,-1.5468,0.0,0.0,0.0,0.0,0.0,0.0,0.0,0.0,0.0,0.0,0.0,0.0,0.0,0.0,0.0,0.0,0.0,0.0,0.0,0.0,0.9179,0.9337,0.9369,0.95,0.9827,0.9171,0.8978,0.925,0.9284,0.8989,0.855,0.7298,0.6286,0.5479,0.4441,0.3966,0.3796,0.3183,0.3239,0.3519,0.0,0.0,0.0,0.0,0.0,0.0,0.0,0.0,0.0,0.0,0.0,0.0,0.0,0.0,0.0,-0.3074,-0.3244,-0.3413,-0.3583,-0.4187,-0.5003,-0.5655,0.0,-0.8075,-0.8509,-0.8568,0.0,0.0,0.0,0.0,0.0,0.0,0.0,0.0,0.0,0.0,0.0,0.0,0.0,0.0,0.0,0.0,0.0,0.0,0.0,0.0,0.0,0.0,0.0,0.0,-1.5961,-1.6066,-1.6249,-1.6384,-1.6384,-1.6384,-1.6384,-1.6384,-1.6591,-1.6761,-1.6931,-1.7379,-1.7656,-1.7822,-1.803,-1.8084,-1.8084,-1.8084,-1.8084,-1.803,-1.749,-1.7213,-1.7056,-1.6719,-1.6093,-1.5468,0.0,0.0,0.0,0.0,0.0,0.0,0.0,0.0,0.0,0.0,0.0,0.0,0.0,0.0,0.0,0.0,0.0,0.0,0.0,0.0,0.9085,0.8275,0.8883,0.9401,0.987,0.8943,0.8604,0.8857,0.8443,0.8321,0.8484,0.7497,0.6789,0.6156,0.4676,0.3966,0.3965,0.3352,0.313,0.3074,0.2462,0.0,0.0,0.0,0.0,0.0,0.0,0.0,0.0,0.0,0.0,0.0,0.0,0.0,-0.3074,-0.3074,-0.3244,-0.3413,-0.3583,-0.4128,-0.478,-0.5105,-0.6204,0.0,-0.8392,-0.8441,0.0,-0.9118,0.0,0.0,0.0,0.0,0.0,0.0,0.0,0.0,0.0,0.0,0.0,0.0,0.0,0.0,0.0,0.0,0.0,0.0,0.0,0.0,0.0,0.0,0.0,-1.5914,-1.6202,-1.6384,-1.6384,-1.6384,-1.6384,-1.6384,-1.6441,-1.6715,-1.7278,-1.7334,-1.7601,-1.8084,-1.8084,-1.8084,-1.8084,-1.8084,-1.8084,-1.803,-1.7556,-1.6888,-1.6171,-1.57,-1.5468,-1.541,0.0,0.0,0.0,0.0,0.0,0.0,0.0,0.0,0.0,0.0,0.0,0.0,0.0,0.0,0.0,0.0,0.0,0.0,0.0,0.8081,0.8438,0.8597,0.8579,0.8741,0.9017,0.8486,0.8315,0.8626,0.8435,0.8425,0.8447,0.7579,0.6849,0.6335,0.5122,0.4445,0.4086,0.3778,0.3633,0.3577,0.2907,0.235,0.0,0.0,0.0,0.0,0.0,0.0,0.0,0.0,-0.0728,-0.151,-0.179,-0.235,-0.2856,-0.2968,-0.3079,-0.3244,-0.3413,-0.4128,-0.4948,-0.5441,-0.6317,0.0,0.0,-0.8165,-0.8291,-0.9188,-0.9618,0.0,0.0,0.0,0.0,0.0,0.0,0.0,0.0,0.0,0.0,0.0,0.0,0.0,0.0,0.0,0.0,0.0,0.0,0.0,0.0,0.0,0.0,-1.6009,-1.6259,-1.6384,-1.6384,-1.6384,-1.6384,-1.6384,-1.6602,-1.6874,-1.7256,-1.7434,-1.7767,-1.8084,-1.8084,-1.8084,-1.8084,-1.8084,-1.7909,-1.749,-1.7045,-1.6265,-1.543,-1.571,-1.5642,-1.5468,0.0,0.0,0.0,0.0,0.0,0.0,0.0,0.0,0.0,0.0,0.0,0.0,0.0,0.0,0.0,0.0,0.0,0.0,0.761,0.7979,0.822,0.8367,0.8189,0.8083,0.8062,0.7762,0.7823,0.8182,0.8057,0.7992,0.7987,0.7071,0.645,0.5872,0.4965,0.4225,0.3751,0.3667,0.3613,0.3524,0.285,0.2293,0.0,0.0,0.0,0.0,0.0,0.0,0.0,0.0,-0.0392,-0.0951,-0.1454,-0.2071,-0.2577,-0.2856,-0.3241,-0.3516,-0.3469,-0.4184,-0.5007,0.0,0.0,0.0,-0.7706,-0.8005,-0.8439,-0.9389,-0.9822,0.0,0.0,0.0,0.0,0.0,0.0,0.0,0.0,0.0,0.0,0.0,0.0,0.0,0.0,0.0,0.0,0.0,0.0,0.0,0.0,0.0,0.0,0.0,-1.6192,-1.6316,-1.6384,-1.6384,-1.6384,-1.6384,-1.6602,-1.6874,-1.719,-1.7423,-1.7755,-1.8084,-1.8084,-1.8084,-1.8084,-1.8084,-1.7678,-1.6933,-1.6482,-1.5816,-1.5147,-1.5652,-1.5816,-1.5748,0.0,0.0,0.0,0.0,0.0,0.0,0.0,0.0,0.0,0.0,0.0,0.0,0.0,0.0,0.0,0.0,0.0,0.0,0.7139,0.8369,0.8537,0.7373,0.7691,0.7638,0.7091,0.684,0.6935,0.7521,0.7073,0.6881,0.6876,0.6037,0.5382,0.4868,0.392,0.3262,0.2819,0.2817,0.2768,0.2635,0.2071,0.151,0.1062,0.0,0.0,0.0,0.0,0.0,0.0,0.0,0.0056,-0.0505,-0.1119,-0.1734,-0.2296,-0.2907,-0.3732,-0.4281,-0.3747,-0.4242,0.0,0.0,0.0,0.0,-0.7203,-0.8144,-0.895,-0.9806,0.0,0.0,0.0,0.0,0.0,0.0,0.0,0.0,0.0,0.0,0.0,0.0,0.0,0.0,0.0,0.0,0.0,0.0,0.0,0.0,0.0,0.0,0.0,0.0,-1.6009,-1.6181,-1.6384,-1.6384,-1.6384,-1.6384,-1.6384,-1.6705,-1.719,-1.719,-1.7523,-1.8084,-1.8084,-1.8084,-1.8084,-1.8084,-1.7523,-1.657,-1.6104,-1.5594,-1.5205,-1.5362,-1.5806,-1.6301,0.0,0.0,0.0,0.0,0.0,0.0,0.0,0.0,0.0,0.0,0.0,0.0,0.0,0.0,0.0,0.0,0.0,0.0,0.7605,0.7791,0.7629,0.714,0.6937,0.671,0.6459,0.6463,0.6689,0.7073,0.6946,0.6881,0.6881,0.6155,0.5542,0.5016,0.411,0.3409,0.2937,0.2811,0.2801,0.2772,0.2544,0.1902,0.1118,0.0,0.0,0.0,0.0,0.0,0.0,0.0,0.0,0.0,-0.1174,-0.1734,-0.2352,-0.3077,-0.3577,-0.3799,-0.3744,-0.4673,0.0,-0.5706,0.0,0.0,0.0,-0.8402,0.0,0.0,0.0,0.0,0.0,0.0,0.0,0.0,0.0,0.0,0.0,0.0,0.0,0.0,0.0,0.0,0.0,0.0,0.0,0.0,0.0,0.0,0.0,0.0,0.0,0.0,-1.6202,-1.6316,-1.6384,-1.6384,-1.6384,-1.6384,-1.6384,-1.6705,-1.719,-1.719,-1.7523,-1.8084,-1.8084,-1.8084,-1.8084,-1.7667,-1.7268,-1.6989,-1.6492,-1.6322,-1.6322,-1.6492,-1.6708,-1.6978,0.0,0.0,0.0,0.0,0.0,0.0,0.0,0.0,0.0,0.0,0.0,0.0,0.0,0.0,0.0,0.0,0.0,0.0,0.0,0.7677,0.7441,0.688,0.6519,0.6274,0.6085,0.6582,0.6745,0.6486,0.6618,0.6683,0.6613,0.5675,0.5017,0.4553,0.3493,0.2797,0.2375,0.2324,0.2335,0.2387,0.2317,0.1714,0.0856,0.0,0.0,0.0,0.0,0.0,0.0,0.0,0.0,0.0,-0.1176,-0.1736,-0.2406,-0.3403,-0.3959,-0.4294,-0.4453,0.0,0.0,0.0,0.0,0.0,0.0,0.0,0.0,0.0,0.0,0.0,0.0,0.0,0.0,0.0,0.0,0.0,0.0,0.0,0.0,0.0,0.0,0.0,0.0,0.0,0.0,0.0,0.0,0.0,0.0,0.0,0.0,0.0,-1.6087,-1.6269,-1.6384,-1.6384,-1.6384,-1.6384,-1.6384,-1.6658,-1.7032,-1.7032,-1.7368,-1.792,-1.803,-1.8084,-1.803,-1.7435,-1.7257,-1.7279,-1.6719,-1.6549,-1.6549,-1.6888,-1.6944,-1.6978,0.0,0.0,0.0,0.0,0.0,0.0,0.0,0.0,0.0,0.0,0.0,0.0,0.0,0.0,0.0,0.0,0.0,0.0,0.0,0.0,0.7539,0.6661,0.6413,0.6172,0.5986,0.6974,0.6937,0.5888,0.6218,0.6284,0.6145,0.4951,0.4156,0.3758,0.2554,0.1788,0.1479,0.1505,0.1547,0.166,0.1676,0.1182,0.053,0.0707,0.0,0.0,0.0,0.0,0.0,0.0,0.0,0.0,-0.1122,-0.1737,-0.246,-0.3724,-0.4611,-0.5277,-0.5378,0.0,0.0,0.0,0.0,0.0,0.0,0.0,0.0,0.0,0.0,0.0,0.0,0.0,0.0,0.0,0.0,0.0,0.0,0.0,0.0,0.0,0.0,0.0,0.0,0.0,0.0,0.0,0.0,0.0,0.0,0.0,0.0,0.0,-1.5914,-1.6087,-1.6374,-1.6374,-1.6384,0.0,-1.6384,-1.6545,-1.6761,-1.6818,-1.7145,-1.7711,-1.7975,-1.8084,-1.8084,-1.7501,-1.739,-1.7523,-1.6965,-1.657,-1.6332,-1.6899,-1.6821,-1.6641,0.0,0.0,0.0,0.0,0.0,0.0,0.0,0.0,0.0,0.0,0.0,0.0,0.0,0.0,0.0,0.0,0.0,0.0,0.0,0.0,0.6802,0.6094,0.6477,0.6737,0.6672,0.6907,0.6666,0.5888,0.6148,0.6148,0.5954,0.5084,0.4353,0.3758,0.2887,0.2183,0.1546,0.1536,0.1513,0.1543,0.1472,0.1025,0.0354,0.0412,-0.0115,0.0,0.0,0.0,0.0,0.0,0.0,0.0,-0.1122,-0.1737,-0.235,-0.3128,-0.3959,-0.468,-0.4736,-0.523,0.0,0.0,0.0,0.0,0.0,0.0,0.0,0.0,0.0,0.0,0.0,0.0,0.0,0.0,0.0,0.0,0.0,0.0,0.0,0.0,0.0,0.0,0.0,0.0,0.0,0.0,0.0,0.0,0.0,0.0,0.0,-1.574,-1.5961,-1.6114,-1.6181,-1.6316,-1.6384,0.0,-1.6384,-1.6441,-1.6488,-1.6705,-1.7145,-1.7711,-1.7975,-1.8084,-1.8084,-1.7963,-1.7909,-1.7975,-1.8127,-1.7831,-1.739,-1.771,-1.782,-1.7754,0.0,0.0,0.0,0.0,0.0,0.0,0.0,0.0,0.0,0.0,0.0,0.0,0.0,0.0,0.0,0.0,0.0,0.0,0.0,0.0,0.6671,0.6408,0.7055,0.7251,0.6802,0.7186,0.6859,0.5693,0.5818,0.5885,0.5752,0.4752,0.402,0.3487,0.2484,0.1799,0.1378,0.1278,0.1326,0.1383,0.1345,0.1017,0.053,0.0354,-0.0115,-0.0673,-0.0785,0.0,0.0,0.0,0.0,0.0,0.0,0.0,-0.2571,-0.3231,-0.4012,-0.4684,0.0,0.0,0.0,0.0,0.0,0.0,0.0,0.0,0.0,0.0,0.0,0.0,0.0,0.0,0.0,0.0,0.0,0.0,0.0,0.0,0.0,0.0,0.0,0.0,0.0,0.0,0.0,0.0,0.0,0.0,0.0,-1.5478,-1.5604,-1.5672,-1.5846,-1.5951,-1.6114,-1.6181,-1.6306,-1.6384,-1.6384,-1.6384,-1.6431,-1.6807,-1.72,-1.7545,-1.7931,-1.8084,-1.8084,-1.8084,-1.8139,-1.8259,-1.8464,-1.8061,-1.7446,-1.7831,-1.7655,-1.7313,0.0,0.0,0.0,0.0,0.0,0.0,0.0,0.0,0.0,0.0,0.0,0.0,0.0,0.0,0.0,0.0,0.0,0.0,0.0,0.0,0.0,0.699,0.7702,0.7707,0.6868,0.7512,0.7055,0.5428,0.5488,0.555,0.555,0.4422,0.362,0.3149,0.1947,0.1274,0.1065,0.1016,0.107,0.1274,0.1213,0.1007,0.0707,0.0353,-0.0058,-0.0449,-0.0842,-0.0954,-0.0898,-0.0898,0.0,0.0,0.0,0.0,-0.2679,-0.3387,-0.4061,-0.4743,0.0,0.0,0.0,0.0,0.0,0.0,0.0,0.0,0.0,0.0,0.0,0.0,0.0,0.0,0.0,0.0,0.0,0.0,0.0,0.0,0.0,0.0,0.0,0.0,0.0,0.0,0.0,0.0,0.0,0.0,-1.541,-1.5342,-1.54,-1.5662,-1.5603,-1.5766,-1.6066,-1.6042,-1.6069,-1.626,-1.626,-1.6358,-1.6488,-1.6976,-1.7256,-1.7323,-1.7865,-1.8084,-1.8084,-1.815,-1.8259,-1.8422,-1.8476,-1.7909,-1.7234,-1.7733,-1.7379,-1.6754,0.0,0.0,0.0,0.0,0.0,0.0,0.0,0.0,0.0,0.0,0.0,0.0,0.0,0.0,0.0,0.0,0.0,0.0,0.6461,0.0,0.0,0.7321,0.8032,0.8096,0.7321,0.7451,0.6798,0.5428,0.5428,0.5428,0.5425,0.4622,0.3885,0.3149,0.2347,0.1658,0.1039,0.1031,0.1014,0.1055,0.1047,0.0845,0.0471,-0.0118,-0.0346,-0.0449,-0.1066,-0.1122,-0.0898,-0.0898,-0.0898,0.0,0.0,0.0,-0.2068,-0.2679,-0.3347,-0.4073,0.0,0.0,0.0,0.0,0.0,0.0,0.0,0.0,0.0,0.0,0.0,0.0,0.0,0.0,0.0,0.0,0.0,0.0,0.0,0.0,0.0,0.0,0.0,0.0,0.0,0.0,0.0,0.0,0.0,0.0,-1.541,-1.5068,-1.5039,-1.541,-1.5239,-1.5342,-1.5904,-1.5614,-1.5587,-1.5784,-1.5784,-1.6147,-1.6761,-1.7078,-1.719,-1.7256,-1.7865,-1.8084,-1.8084,-1.8313,-1.8367,-1.8422,-1.8637,-1.8356,-1.7788,-1.7995,-1.7984,-1.7809,0.0,0.0,0.0,0.0,0.0,0.0,0.0,0.0,0.0,0.0,0.0,0.0,0.0,0.0,0.0,0.7364,0.7399,0.7125,0.6465,0.64,0.6854,0.7967,0.7907,0.7712,0.7386,0.7055,0.6338,0.5428,0.5428,0.5428,0.0,0.422,0.3482,0.3149,0.2013,0.1335,0.1055,0.1022,0.1001,0.0985,0.0952,0.0871,0.063,-0.0115,-0.0398,-0.0505,-0.1066,-0.1234,-0.1122,-0.0954,-0.0898,-0.0898,-0.0898,0.0,0.0,0.0,-0.3405,0.0,-0.468,0.0,0.0,0.0,0.0,0.0,0.0,0.0,0.0,0.0,0.0,0.0,0.0,0.0,0.0,0.0,0.0,0.0,0.0,0.0,0.0,0.0,0.0,0.0,0.0,0.0,0.0,0.0,0.0,-1.5312,-1.5078,-1.4893,-1.4873,-1.5049,-1.4939,-1.5051,-1.5362,-1.533,-1.5461,-1.5691,-1.5691,-1.5984,-1.6602,-1.7043,-1.7323,-1.7479,-1.792,-1.8084,-1.8096,-1.8205,-1.8356,-1.8518,-1.8625,-1.8398,-1.7995,-1.7699,-1.7589,-1.7534,0.0,0.0,0.0,0.0,0.0,0.0,0.0,0.0,0.0,0.0,0.0,0.0,0.0,0.0,0.0,0.0,0.706,0.6859,0.6396,0.6531,0.712,0.8166,0.7907,0.7512,0.7125,0.6662,0.6075,0.5428,0.5428,0.5428,0.5362,0.3885,0.3215,0.0,0.1745,0.1076,0.1072,0.1013,0.0988,0.0983,0.0922,0.0785,0.0561,-0.0224,-0.056,-0.0728,-0.1289,-0.1458,-0.1401,-0.1177,-0.1121,-0.1121,-0.1121,-0.168,0.0,0.0,0.0,0.0,0.0,0.0,0.0,0.0,0.0,0.0,0.0,0.0,0.0,0.0,0.0,0.0,0.0,0.0,0.0,0.0,0.0,0.0,0.0,0.0,0.0,0.0,0.0,0.0,0.0,0.0,0.0,0.0,0.0,-1.5068,-1.4639,-1.4727,-1.4785,-1.4785,-1.4678,-1.4733,-1.5018,-1.4964,-1.507,-1.5339,-1.5463,-1.5808,-1.6377,-1.6989,-1.7368,-1.7521,-1.7918,-1.8084,-1.8084,-1.8139,-1.8356,-1.8614,-1.8452,-1.8278,-1.8038,-1.7424,-1.7313,-1.7368,0.0,0.0,0.0,0.0,0.0,0.0,0.0,0.0,0.0,0.0,0.0,0.0,0.5561,0.6351,0.6715,0.6001,0.6071,0.6207,0.6396,0.699,0.7386,0.7451,0.8102,0.0,0.6461,0.64,0.6075,0.5428,0.0,0.0,0.5362,0.3885,0.3215,0.3149,0.1745,0.1076,0.1072,0.0,0.0,0.0,0.0922,0.0561,0.0,-0.0615,0.0,0.0,0.0,-0.2015,-0.179,-0.1734,-0.1734,-0.1734,0.0,0.0,0.0,0.0,0.0,0.0,0.0,0.0,0.0,0.0,0.0,0.0,0.0,0.0,0.0,0.0,0.0,0.0,0.0,0.0,0.0,0.0,0.0,0.0,0.0,0.0,0.0,0.0,0.0,0.0,0.0,0.0,0.0,0.0,0.0,-1.4629,-1.4136,-1.4561,-1.4785,-1.4785,-1.4385,-1.4419,-1.5008,-1.4447,-1.4225,-1.4386,-1.4821,-1.5426,-1.6158,-1.6872,-1.7104,-1.6994,-1.7759,-1.8084,-1.8084,-1.8313,-1.8464,-1.856,-1.8116,-1.7995,-1.8038,-1.7424,-1.7534,-1.7875,0.0,0.0,0.0,0.0,0.0,0.0,0.0,0.0,0.0,0.0,0.0,0.0,0.0,0.5894,0.64,0.5935,0.5484,0.5554,0.6141,0.6404,0.6798,0.7386,0.7251,0.692,0.64,0.5947,0.5624,0.5428,0.5428,0.5428,0.5362,0.4353,0.3685,0.3149,0.1745,0.1076,0.1072,0.1013,0.0,0.0,0.0,0.0,0.0,0.0,0.0,0.0,0.0,0.0,0.0,0.0,0.0,0.0,0.0,0.0,0.0,0.0,0.0,0.0,0.0,0.0,0.0,0.0,0.0,0.0,0.0,0.0,0.0,0.0,0.0,0.0,0.0,0.0,0.0,0.0,0.0,0.0,0.0,0.0,0.0,0.0,0.0,0.0,0.0,0.0,0.0,0.0,0.0,0.0,-1.4107,-1.4551,-1.4658,-1.4375,-1.4165,-1.4135,-1.4185,-1.3721,-1.3748,-1.4154,-1.4419,-1.4997,-1.5844,-1.5967,-1.6276,-1.6685,-1.7193,-1.7486,-1.7656,-1.7326,-1.7506,-1.7941,-1.739,-1.7545,-1.7984,-1.6978,-1.6978,-1.7424,0.0,0.0,0.0,0.0,0.0,0.0,0.0,0.0,0.0,0.2206,0.0,0.0,0.0,0.0,0.5338,0.5477,0.5024,0.509,0.6009,0.6009,0.6338,0.6929,0.6535,0.6203,0.6075,0.5567,0.5311,0.5428,0.5311,0.5311,0.5362,0.4622,0.3885,0.3149,0.1946,0.1344,0.0,0.0,0.0,0.0983,0.0,0.0,-0.0112,0.0,0.0,0.0,0.0,0.0,0.0,0.0,0.0,0.0,0.0,0.0,0.0,0.0,0.0,0.0,-0.4522,0.0,0.0,0.0,0.0,0.0,0.0,0.0,0.0,0.0,0.0,0.0,0.0,0.0,0.0,0.0,0.0,0.0,0.0,0.0,0.0,0.0,0.0,0.0,0.0,0.0,0.0,0.0,0.0,0.0,-1.3828,-1.4567,-1.4615,-1.3873,-1.3888,-1.3669,-1.319,-1.3174,-1.3417,-1.3869,-1.4181,-1.4624,-1.5214,-1.5206,-1.5529,-1.6055,-1.6428,-1.6909,-1.7392,-1.7182,-1.7495,-1.7941,-1.7168,-1.7268,-1.7644,-1.6415,-1.6368,-1.681,0.0,0.0,0.0,0.0,0.0,0.0,0.0,0.0,0.1471,0.1541,0.0,0.0,0.0,0.0,0.0,0.4422,0.4492,0.4885,0.5738,0.5804,0.5873,0.6009,0.6009,0.5815,0.5428,0.5213,0.5209,0.5428,0.5209,0.5213,0.5362,0.4622,0.3885,0.3149,0.2412,0.1743,0.1071,0.0,0.0988,0.092,0.0,0.0,-0.0168,0.0,0.0,0.0,-0.2465,-0.2691,0.0,0.0,0.0,0.0,0.0,0.0,0.0,0.0,0.0,0.0,0.0,0.0,0.0,0.0,0.0,0.0,0.0,0.0,0.0,0.0,0.0,0.0,0.0,0.0,0.0,0.0,0.0,0.0,0.0,0.0,0.0,0.0,0.0,0.0,0.0,0.0,0.0,0.0,0.0,-1.3765,-1.3232,-1.4544,-1.4716,-1.3405,-1.348,-1.3109,-1.2234,-1.29,-1.3276,-1.342,-1.4016,-1.4293,-1.4314,-1.4687,-1.4902,-1.5078,-1.5484,-1.6303,-1.7369,-1.8016,-1.8398,-1.8452,-1.7324,-1.7034,-1.7034,-1.5843,-1.5796,-1.6197,0.0,0.0,0.0,0.0,0.0,0.0,-0.1134,-0.1201,-0.0935,0.0,0.0,0.0,0.0873,0.1542,0.2144,0.2614,0.2681,0.2882,0.3347,0.3347,0.3682,0.442,0.455,0.4749,0.5156,0.5252,0.5318,0.5428,0.5318,0.5318,0.5362,0.4622,0.3885,0.0,0.2432,0.1696,0.1043,0.1004,0.0,0.0,0.0742,0.0112,0.0,0.0,0.0,0.0,0.0,-0.2691,-0.2691,0.0,-0.2691,-0.2691,0.0,0.0,0.0,0.0,0.0,0.0,-0.4736,0.0,0.0,0.0,0.0,0.0,0.0,0.0,0.0,0.0,0.0,0.0,0.0,0.0,0.0,0.0,0.0,0.0,0.0,0.0,0.0,0.0,0.0,0.0,0.0,0.0,0.0,0.0,-1.2108,-1.2509,-1.2954,-1.3796,-1.427,-1.4378,-1.4072,-1.3708,-1.3128,-1.3531,-1.356,-1.3266,-1.3638,-1.3983,-1.4293,-1.378,-1.3899,-1.4513,-1.4377,-1.4654,-1.5289,-1.6053,-1.6764,-1.7157,-1.5634,-1.5638,-1.643,-1.5342,-1.5535,-1.6197,0.0,0.0,0.0,0.0,0.0,-0.3111,-0.3347,-0.3145,-0.2808,0.0,0.0,0.0,-0.0692,0.0069,0.0758,0.1227,0.1637,0.197,0.2149,0.2214,0.2683,0.3623,0.3751,0.4217,0.5087,0.5166,0.5232,0.5428,0.5298,0.5298,0.5362,0.4622,0.3885,0.3147,0.0,0.0,0.0,0.0,0.0,0.0,0.0625,0.0,0.0,-0.1006,-0.1566,0.0,0.0,0.0,-0.2691,-0.2691,-0.2691,0.0,0.0,0.0,0.0,0.0,0.0,0.0,0.0,0.0,0.0,0.0,0.0,0.0,0.0,-0.5937,0.0,0.0,0.0,0.0,0.0,0.0,0.0,0.0,0.0,0.0,0.0,0.0,0.0,0.0,0.0,0.0,0.0,0.0,0.0,-1.1472,-1.1904,-1.2447,-1.3109,-1.3081,-1.3341,-1.4034,-1.3641,-1.3323,-1.3189,-1.333,-1.3264,-1.2997,-1.3094,-1.3282,-1.3521,-1.291,-1.3018,-1.3768,-1.3661,-1.4043,-1.4676,-1.508,-1.5749,-1.6322,-1.5409,-1.5528,-1.612,-1.5365,-1.5424,-1.5853,0.0,0.0,-0.075,-0.4259,-0.5749,-0.5951,-0.4637,-0.452,-0.4327,0.0,-0.3726,-0.3459,-0.2597,-0.1593,-0.0718,0.0,0.0909,0.1522,0.162,0.1747,0.2281,0.322,0.322,0.3751,0.4888,0.4838,0.4968,0.5362,0.5223,0.5226,0.5362,0.4541,0.3801,0.3197,0.0,0.0,0.0,0.0,0.0,0.0881,0.0284,0.0393,0.0,0.0,-0.1342,0.0,-0.2127,-0.2521,-0.2635,-0.2691,-0.2691,0.0,0.0,0.0,0.0,0.0,-0.3796,0.0,0.0,0.0,0.0,0.0,0.0,0.0,-0.5937,-0.6204,0.0,0.0,0.0,0.0,0.0,0.0,0.0,0.0,0.0,0.0,0.0,0.0,0.0,0.0,0.0,0.0,0.0,-1.0559,-1.1158,-1.2133,-1.2554,-1.2924,-1.3364,-1.2465,-1.2295,-1.3055,-1.2795,-1.2608,-1.2684,-1.2692,-1.2674,-1.2627,-1.252,-1.2471,-1.248,-1.2224,-1.2412,-1.2949,-1.319,-1.3846,-1.4758,-1.4715,-1.5154,-1.5896,-1.5889,-1.5958,-1.5931,-1.5477,-1.5371,-1.541,0.0,0.0,-0.6799,-0.6483,-0.658,-0.6347,-0.546,-0.5849,-0.5856,-0.4714,-0.4301,-0.4035,-0.3695,-0.2901,-0.2173,-0.1659,-0.085,-0.021,0.0139,0.0136,0.0605,0.1545,0.1677,0.2412,0.3754,0.4064,0.4527,0.5156,0.5262,0.5332,0.5359,0.4056,0.3365,0.3163,0.0,0.0,0.0,0.0,0.0,0.0881,0.0682,0.0,0.0112,-0.0336,-0.0672,-0.095,-0.1174,-0.1566,-0.2071,0.0,-0.2691,-0.2691,0.0,0.0,0.0,0.0,0.0,0.0,0.0,0.0,0.0,0.0,0.0,0.0,-0.5458,-0.5513,0.0,0.0,0.0,0.0,0.0,0.0,0.0,0.0,0.0,0.0,0.0,0.0,0.0,0.0,0.0,0.0,0.0,-0.9821,-1.0165,-1.0884,-1.1488,-1.2097,-1.2634,-1.2509,-1.272,-1.3391,-1.3313,-1.3009,-1.2451,-1.259,-1.2456,-1.2076,-1.2089,-1.2246,-1.248,-1.2126,-1.2126,-1.244,-1.2507,-1.2779,-1.3195,-1.3848,-1.4687,-1.5598,-1.4782,-1.484,-1.5342,-1.4916,-1.5003,-1.541,0.0,-0.7485,-0.9173,-0.7933,-0.7812,-0.7627,-0.6945,-0.6974,-0.6813,-0.5871,-0.557,-0.5267,-0.4737,-0.3918,-0.3062,-0.2334,-0.1439,-0.0778,-0.0551,-0.0407,0.0067,0.0941,0.1141,0.1744,0.295,0.3218,0.3751,0.455,0.4755,0.4854,0.4786,0.3682,0.2931,0.2448,0.1382,0.0,0.0,0.0,0.0915,0.0881,0.0852,0.0,0.0402,0.0056,-0.0224,-0.0504,-0.0783,-0.1341,-0.1994,-0.2427,-0.2675,0.0,0.0,-0.2737,-0.3159,0.0,-0.3572,-0.3869,0.0,0.0,0.0,-0.5187,0.0,0.0,0.0,-0.5832,0.0,0.0,0.0,0.0,0.0,0.0,0.0,0.0,0.0,0.0,0.0,0.0,0.0,0.0,0.0,0.0,0.0,-0.976,-1.0126,-1.0785,-1.1308,-1.1684,-1.2027,-1.2035,-1.2336,-1.3009,-1.2835,-1.2697,-1.2623,-1.238,-1.2052,-1.1808,-1.1679,-1.1736,-1.1877,-1.1778,-1.1935,-1.2295,-1.2391,-1.2751,-1.3305,-1.3708,-1.44,-1.5108,-1.4734,-1.4781,-1.5069,-1.5003,-1.5167,-1.541,-1.0159,0.0,-1.0097,-0.9291,-0.9274,-0.9197,-0.85,-0.8141,-0.7708,-0.7062,-0.6741,-0.6342,-0.5761,-0.4844,0.0,-0.2962,-0.1903,-0.1217,0.0,0.0,-0.0202,0.0538,0.074,0.1277,0.2149,0.235,0.295,0.3951,0.4064,0.4134,0.4168,0.3362,0.2558,0.0,0.0,0.0,0.0,0.0,0.0,0.0881,0.0,0.0915,0.0822,0.0341,0.0168,0.0112,-0.0503,-0.1174,-0.1873,-0.2221,0.0,-0.2875,-0.2467,-0.2601,0.0,0.0,0.0,0.0,0.0,0.0,0.0,0.0,0.0,-0.5458,0.0,0.0,0.0,0.0,0.0,0.0,0.0,0.0,0.0,0.0,0.0,0.0,0.0,0.0,0.0,0.0,0.0,0.0,0.0,-0.9967,-1.0435,-1.1026,-1.1352,-1.1541,-1.1697,-1.171,-1.1926,-1.2397,-1.2069,-1.2075,-1.2547,-1.1971,-1.1639,-1.1659,-1.1379,-1.1336,-1.149,-1.1515,-1.1851,-1.2387,-1.2609,-1.3159,-1.3892,-1.3974,-1.4252,-1.4656,-1.4843,-1.497,-1.5088,-1.5313,-1.5303,-1.5303,-1.5914,-1.3067,-1.0919,-1.133,-1.0955,-1.0402,-0.979,-0.9522,-0.9,-0.8036,-0.7138,0.0,0.0,0.0,0.0,0.0,0.0,0.0,-0.1518,0.0,0.0,-0.0202,-0.0135,0.0269,0.121,0.1543,0.2414,0.3823,0.3463,0.3606,0.4165,0.28,0.2075,0.0,0.1087,0.0,0.0,0.0,0.08,0.0,0.091,0.0915,0.0,0.0682,0.0673,0.0729,0.0112,-0.056,-0.1288,0.0,-0.2318,-0.283,0.0,-0.2962,0.0,0.0,0.0,0.0,0.0,0.0,0.0,0.0,-0.5297,0.0,0.0,0.0,0.0,0.0,0.0,0.0,0.0,0.0,0.0,0.0,0.0,0.0,0.0,0.0,0.0,0.0,0.0,0.0,0.0,0.0,-1.0585,-1.0872,-1.1333,-1.1688,-1.1957,-1.202,-1.2058,-1.212,-1.1834,-1.1546,-1.1316,-1.1212,-1.1317,-1.1535,-1.1122,-1.1393,-1.2252,-1.1927,-1.2139,-1.2786,-1.3123,-1.3555,-1.391,-1.4286,-1.4469,-1.4565,-1.4666,-1.4902,-1.5156,-1.5215,-1.508,-1.4912,-1.5749,-1.3518,0.0,-1.2526,-1.1538,-1.0539,-1.0306,-0.9601,-0.8851,0.0,0.0,0.0,0.0,0.0,0.0,0.0,0.0,-0.2386,0.0,0.0,0.0,0.0,0.0,0.0,0.0269,0.0673,0.1411,0.2547,0.2451,0.2654,0.2945,0.2324,0.1779,0.0,0.0846,0.0,0.0785,0.0,0.0,0.0,0.0,0.0,0.0,0.0852,0.0851,0.0806,0.0056,-0.0344,-0.0701,0.0,-0.2178,0.0,0.0,0.0,0.0,0.0,0.0,0.0,0.0,0.0,0.0,0.0,0.0,0.0,0.0,0.0,-0.5631,0.0,0.0,0.0,0.0,0.0,0.0,0.0,0.0,0.0,0.0,0.0,0.0,0.0,0.0,0.0,0.0,0.0,0.0,0.0,0.0,-1.1428,-1.1996,-1.2043,-1.2034,-1.212,-1.1934,-1.1742,-1.1417,-1.1417,-1.1488,-1.1797,-1.1597,-1.1833,-1.2381,-1.2235,-1.2483,-1.3024,-1.3279,-1.3656,-1.4141,-1.4382,-1.4625,-1.4803,-1.4843,-1.497,-1.5088,-1.5254,-1.5099,-1.4844,-1.6269,0.0,0.0,0.0,-1.2327,-1.1141,-1.0707,-0.9649,0.0,0.0,0.0,0.0,-0.6623,-0.5893,0.0,0.0,0.0,-0.2885,0.0,0.0,-0.1356,0.0,0.0,0.0,0.0,0.0,0.0738,0.1592,0.158,0.1727,0.2068,0.187,0.1409,0.0785,0.0,0.0902,0.0739,0.0,0.0,0.0954,0.0879,0.0872,0.0928,0.0906,0.0859,0.0763,0.017,-0.0117,-0.0303,-0.1233,-0.1741,0.0,-0.2657,0.0,0.0,0.0,0.0,0.0,-0.343,0.0,0.0,0.0,0.0,0.0,0.0,0.0,0.0,0.0,0.0,0.0,0.0,0.0,0.0,0.0,0.0,0.0,0.0,0.0,0.0,0.0,0.0,0.0,0.0,0.0,0.0,0.0,-1.1038,-1.1359,-1.2068,-1.2147,-1.2186,-1.2359,-1.2243,-1.2058,-1.1747,-1.1755,-1.1874,-1.2162,-1.2067,-1.2224,-1.2689,-1.2651,-1.2928,-1.3418,-1.3575,-1.392,-1.4336,-1.4455,-1.4684,-1.4911,-1.497,-1.4911,-1.4834,-1.5235,-1.5146,-1.4844,-1.9546,-1.7116,0.0,0.0,0.0,0.0,0.0,0.0,0.0,0.0,0.0,0.0,0.0,0.0,0.0,0.0,0.0,-0.4859,-0.3056,0.0,-0.2007,0.0,0.0,-0.0404,0.0,0.0,0.0,0.1613,0.1004,0.1157,0.2,0.1256,0.0899,0.0898,0.0,0.1312,0.0939,0.1363,0.1337,0.0982,0.0923,0.0899,0.0899,0.0,0.0802,0.0704,0.0794,0.0,0.0,-0.0245,-0.075,0.0,0.0,0.0,0.0,0.0,0.0,0.0,0.0,0.0,0.0,-0.4522,0.0,0.0,0.0,0.0,-0.5955,0.0,0.0,0.0,0.0,0.0,0.0,-0.668,0.0,0.0,0.0,0.0,0.0,0.0,0.0,0.0,0.0,0.0,0.0,-1.1293,-1.1375,-1.1689,-1.2334,-1.2471,-1.2611,-1.2972,-1.2674,-1.2367,-1.2065,-1.2065,-1.2236,-1.2466,-1.2178,-1.2484,-1.3459,-1.3234,-1.3453,-1.3992,-1.4181,-1.4378,-1.4506,-1.4515,-1.4556,-1.4715,-1.4911,-1.4656,-1.4332,-1.5108,-1.5146,-1.4788,0.0,0.0,0.0,0.0,0.0,0.0,0.0,-1.0663,0.0,0.0,0.0,0.0,0.0,0.0,-0.7056,0.0,0.0,-0.4453,-0.2979,-0.2493,0.0,0.0,0.0,-0.0472,0.0,0.0,0.0,0.0,0.0,0.0,0.1119,0.1012,0.0937,0.0898,0.0,0.1352,0.0,0.0,0.0,0.0,0.0,0.0922,0.0956,0.0,0.0,0.0909,0.0821,0.0673,0.0,-0.0128,-0.0441,-0.0819,-0.2311,-0.2727,-0.2816,-0.3539,-0.3601,0.0,0.0,0.0,-0.3708,-0.4582,0.0,0.0,0.0,0.0,0.0,0.0,0.0,0.0,0.0,0.0,-0.6347,-0.6386,-0.6543,0.0,0.0,0.0,0.0,0.0,0.0,0.0,0.0,0.0,0.0,-1.1217,-1.1089,-1.127,0.0,-1.2041,-1.2228,-1.2662,-1.256,-1.2434,-1.2359,-1.2367,-1.2552,-1.2858,-1.2736,-1.2978,-1.3502,-1.3442,-1.3579,-1.389,-1.4019,-1.4198,-1.4387,-1.4455,-1.4387,-1.424,-1.4309,-1.4121,-1.3803,-1.4519,-1.4378,-1.3873,-1.9763,0.0,0.0,0.0,0.0,0.0,0.0,0.0,0.0,0.0,-0.9916,0.0,-0.9456,0.0,-0.7405,0.0,-0.5359,-0.4369,-0.3149,-0.2687,0.0,-0.1817,-0.1144,0.0,0.0,0.0,0.0,0.0,0.0,0.0578,0.0719,0.0907,0.0952,0.0913,0.0,0.0,0.0,0.0,0.1588,0.0,0.0,0.0954,0.0,0.0,0.0965,0.0969,0.0,0.0863,0.0845,0.0189,0.0,-0.0252,-0.1676,-0.2123,-0.2285,-0.3294,-0.34,-0.3308,-0.352,-0.3525,0.0,-0.4448,-0.4632,0.0,-0.5892,0.0,0.0,0.0,0.0,0.0,0.0,0.0,0.0,-0.6209,-0.6534,-0.6972,0.0,-0.7984,0.0,0.0,0.0,0.0,0.0,0.0,-1.0131,-1.1217,-1.1074,-1.1182,0.0,0.0,-1.2083,-1.2655,-1.268,-1.2679,-1.2666,-1.2674,-1.2797,-1.2989,-1.2989,-1.3155,-1.3511,-1.3571,-1.37,-1.389,-1.401,-1.4079,-1.401,-1.4139,-1.395,-1.358,-1.3631,-1.339,-1.3139,-1.3863,-1.3756,-1.3301,0.0,0.0,0.0,0.0,-1.5653,0.0,0.0,0.0,-1.1416,0.0,-1.0159,-0.9862,-0.9716,-0.8673,-0.7582,-0.6544,-0.5659,0.0,-0.3642,-0.3074,0.0,0.0,-0.1614,-0.0874,0.0,0.0,0.0,0.0,0.0,0.0,0.074,0.0837,0.0884,0.1,0.2156,0.0,0.0997,0.2213,0.2038,0.1052,0.105,0.1051,0.1052,0.099,0.0971,0.0886,0.0886,0.0844,0.0739,0.0837,0.0616,0.0129,-0.0437,-0.0835,-0.1327,-0.264,-0.3026,-0.3134,-0.3608,-0.3697,-0.3811,-0.4131,0.0,0.0,0.0,0.0,-0.5971,0.0,0.0,0.0,0.0,0.0,0.0,-0.6213,-0.6701,-0.7085,-0.7085,0.0,0.0,0.0,0.0,0.0,0.0,-1.0233,-1.0651,-1.1217,-1.1267,-1.143,0.0,0.0,-1.2104,-1.292,-1.2946,-1.2966,-1.3042,-1.305,-1.305,-1.305,-1.305,-1.3164,-1.3511,-1.364,-1.383,-1.395,-1.4139,-1.389,-1.345,-1.345,-1.3199,-1.2765,-1.2887,-1.2704,-1.2389,-1.3139,-1.326,-1.307,-2.1272,-1.9537,-1.8077,0.0,-1.5538,-1.4104,0.0,0.0,0.0,0.0,-1.081,-1.0661,-1.081,-0.9585,-0.8323,-0.7134,-0.5987,0.0,0.0,0.0,0.0,-0.2223,-0.1614,-0.0874,0.0,0.0336,0.0,0.0581,0.0,0.0,0.1355,0.0956,0.1119,0.0,0.0,0.0,0.1646,0.2361,0.2345,0.1841,0.1804,0.1813,0.0,0.0,0.1003,0.0977,0.0977,0.0934,0.0957,0.095,0.0829,0.0518,-0.0131,-0.0589,-0.1172,-0.2553,-0.299,-0.3163,-0.3929,-0.4009,-0.4016,-0.4606,-0.4739,-0.483,0.0,0.0,0.0,0.0,0.0,0.0,0.0,0.0,0.0,0.0,0.0,0.0,0.0,0.0,0.0,-0.7622,0.0,0.0,0.0,-0.9755,-1.032,-1.0753,-1.0685,-1.0938,0.0,0.0,0.0,-1.2518,-1.2543,-1.2794,-1.339,-1.339,-1.339,-1.339,-1.339,-1.339,-1.3511,-1.3009,-1.3009,-1.326,-1.2757,-1.2634,-1.2757,-1.2948,-1.265,-1.2228,-1.2413,-1.2359,-1.2174,-1.2605,-1.285,-1.3103,-2.1648,0.0,0.0,-1.6812,0.0,0.0,-1.3556,0.0,0.0,-1.1481,-1.1118,0.0,-1.1042,-0.9606,-0.8303,-0.7508,-0.5868,0.0,0.0,0.0,0.0,-0.242,-0.195,-0.1143,0.0,0.0269,0.0,0.1249,0.0,0.0,0.2046,0.1716,0.0,0.0,0.0,0.2736,0.0,0.2605,0.2656,0.2521,0.2575,0.0,0.0,0.1773,0.1483,0.1446,0.1133,0.1011,0.1014,0.1014,0.0831,0.0581,0.0194,-0.013,-0.0591,-0.1776,-0.2364,-0.2696,-0.3606,-0.3934,-0.4174,-0.4564,-0.4653,-0.4706,-0.513,-0.5178,-0.5037,0.0,0.0,0.0,0.0,0.0,0.0,0.0,0.0,0.0,0.0,0.0,0.0,0.0,0.0,0.0,0.0,-0.9496,-1.0277,-1.0182,-1.0387,-1.0643,0.0,0.0,0.0,-1.2078,-1.2303,-1.2558,-1.2837,-1.2995,-1.2948,-1.2634,-1.2634,-1.2634,-1.2634,-1.2258,-1.2258,-1.2573,-1.2135,-1.202,-1.2089,-1.2282,-1.1981,-1.149,-1.174,-1.2058,-1.2305,-1.2552,-1.2797,-1.3042,0.0,0.0,0.0,0.0,0.0,0.0,0.0,-1.3608,0.0,-1.1552,0.0,-1.1037,-1.0887,-0.919,-0.7974,-0.766,0.0,-0.4298,-0.3992,-0.3687,-0.3293,-0.2753,-0.2421,-0.148,0.0,0.0067,0.0,0.0,0.0,0.0,0.28,0.0,0.0,0.0,0.0,0.0,0.0,0.3087,0.3129,0.0,0.3319,0.3342,0.3282,0.2547,0.2246,0.2133,0.1426,0.1083,0.0994,0.0994,0.0824,0.0582,0.0567,0.0453,0.0134,-0.0783,-0.1383,-0.2012,-0.2948,-0.3623,-0.403,-0.4233,-0.4233,-0.4268,-0.454,-0.4574,-0.4478,-0.412,-0.4279,-0.4235,0.0,0.0,0.0,0.0,0.0,0.0,0.0,0.0,0.0,0.0,0.0,0.0,0.0,0.0,-1.0131,-0.9562,-1.0028,0.0,0.0,0.0,0.0,-1.1848,-1.2226,0.0,-1.2075,0.0,-1.2135,-1.1516,-1.1516,-1.1516,-1.1516,-1.1392,-1.1578,-1.1826,-1.1764,-1.1593,-1.1428,-1.1615,-1.1373,-1.0933,-1.1303,-1.1926,-1.2544,-1.2858,-1.2981,-1.3042,0.0,0.0,0.0,0.0,0.0,-1.5105,-1.433,-1.355,-1.2592,-1.1558,-1.1335,-1.126,-1.1037,-0.9347,-0.8116,-0.7863,-0.5908,0.0,0.0,0.0,0.0,-0.2956,-0.2488,-0.148,0.0,0.0605,0.1344,0.0,0.0,0.0,0.3361,0.0,0.0,0.0,0.0,0.0,0.3495,0.4213,0.0,0.3893,0.4074,0.4135,0.4018,0.3282,0.3006,0.2928,0.2199,0.1508,0.1026,0.1026,0.0979,0.1001,0.0996,0.0735,0.0337,-0.0401,-0.0937,-0.1545,-0.2815,-0.2883,-0.2751,-0.403,-0.3825,-0.3549,-0.4,-0.4061,-0.3924,-0.3645,-0.3508,-0.345,-0.351,0.0,0.0,0.0,0.0,0.0,0.0,0.0,0.0,0.0,0.0,0.0,0.0,0.0,0.0,0.0,0.0,0.0,0.0,0.0,0.0,0.0,-1.2355,0.0,0.0,0.0,-1.2135,-1.1516,-1.1516,-1.1516,-1.1454,-1.0912,-1.0856,-1.1163,-1.0604,-1.0485,-1.0807,-1.1059,-1.131,-1.1498,-1.205,-1.249,-1.2797,-1.3407,-1.3338,-1.3017,0.0,0.0,0.0,0.0,0.0,0.0,0.0,-1.3331,0.0,-1.1781,-1.1632,-1.1484,-1.126,-0.9527,-0.8295,-0.8075,-0.6026,-0.4613,-0.4405,-0.4089,-0.3694,-0.3295,-0.2351,0.0,-0.0268,0.0671,0.168,0.2691,0.0,0.0,0.4067,0.0,0.0,0.0,0.0,0.4265,0.0,0.0,0.0,0.4629,0.4835,0.4891,0.4758,0.4018,0.3751,0.3618,0.248,0.1864,0.1515,0.1187,0.0998,0.0942,0.0942,0.0808,0.0539,0.0067,-0.0404,-0.1008,-0.1879,-0.208,-0.2348,-0.3357,-0.3357,-0.3222,-0.3627,-0.3696,-0.356,-0.3362,-0.3295,-0.3317,-0.3614,-0.3714,0.0,0.0,0.0,0.0,0.0,0.0,0.0,0.0,0.0,0.0,0.0,0.0,0.0,0.0,0.0,0.0,0.0,0.0,0.0,0.0,0.0,0.0,0.0,0.0,0.0,-1.0471,-1.0471,-1.0471,-1.0471,-1.0231,-1.0238,-1.0485,-1.0364,-1.0428,-1.0744,-1.1247,-1.1622,-1.1934,-1.2428,-1.2613,-1.2613,-1.3094,-1.3025,-1.272,0.0,-1.9705,0.0,0.0,-1.548,0.0,-1.3977,-1.3105,-1.2452,-1.2077,-1.1855,-1.1632,-1.126,-0.9606,-0.8422,-0.8016,-0.6075,-0.474,-0.4502,-0.4211,-0.3897,-0.3563,-0.2348,-0.1341,-0.0603,0.0604,0.1814,0.0,0.0,0.0,0.0,0.0,0.0,0.0,0.0,0.0,0.0,0.0,0.5068,0.5145,0.5298,0.5428,0.5362,0.4755,0.4556,0.4353,0.3015,0.248,0.2213,0.1545,0.1144,0.0876,0.0876,0.0809,0.0742,0.0472,0.0067,-0.0403,-0.0874,-0.1276,-0.1745,-0.2485,-0.2686,-0.282,-0.3159,-0.3295,-0.3228,-0.3226,-0.3195,-0.3283,-0.3739,-0.3554,0.0,0.0,0.0,0.0,0.0,0.0,0.0,0.0,0.0,0.0,0.0,0.0,0.0,0.0,0.0,0.0,0.0,0.0,0.0,0.0,0.0,-1.0427,-1.0133,0.0,-1.0238,0.0,-0.9548,-0.9548,-0.9548,-0.974,-0.9862,-1.011,-1.0371,-1.0681,-1.0933,-1.1373,-1.1747,-1.1996,-1.2367,-1.2367,-1.2236,-1.2597,-1.2474,-1.2174,0.0,0.0,0.0,0.0,0.0,0.0,0.0,-1.3258,-1.2452,-1.2077,-1.2003,-1.1632,-1.0663,-0.9469,-0.8374,-0.7258,-0.6018,-0.5043,-0.4651,-0.437,-0.4097,-0.3758,-0.2549,-0.1543,-0.0806,0.047,0.1545,0.0,0.0,0.0,0.0,0.0,0.0,0.0,0.0,0.0,0.0,0.4822,0.5011,0.5145,0.5298,0.5428,0.5362,0.5296,0.5292,0.516,0.4353,0.3685,0.3015,0.2281,0.1612,0.1076,0.1076,0.0942,0.0809,0.0742,0.0607,0.0269,-0.0403,-0.0135,-0.0067,-0.1409,-0.1743,-0.1878,-0.2417,-0.2484,-0.2619,-0.3092,-0.3095,-0.3188,-0.3712,-0.331,-0.3266,0.0,0.0,0.0,0.0,0.0,0.0,0.0,0.0,0.0,0.0,-0.5823,0.0,0.0,0.0,0.0,0.0,0.0,0.0,-1.0521,0.0,-1.0533,-1.0438,-1.0661,-1.0364,-0.9484,-0.9676,-0.9804,-0.9804,-0.9804,-0.9989,-1.0238,-1.0308,-1.0618,-1.1059,-1.0933,-1.1052,-1.1365,-1.1428,-1.1615,-1.1864,-1.2236,-1.205,-1.1608,0.0,0.0,0.0,0.0,0.0,0.0,0.0,-1.3193,-1.2826,-1.2378,-1.2224,-1.1781,-1.0812,-0.969,-0.8563,-0.7466,-0.6139,-0.5211,-0.4947,-0.4669,-0.4095,-0.3155,-0.2079,-0.1073,-0.0134,0.1008,0.1882,0.0,0.0,0.0,0.0,0.0,0.0,0.0,0.0,0.4794,0.4922,0.498,0.5137,0.5274,0.5338,0.5428,0.5428,0.5428,0.5428,0.5292,0.4556,0.4087,0.3751,0.3015,0.2013,0.1076,0.1076,0.1076,0.0942,0.0809,0.0742,0.0607,0.0202,0.0269,0.0269,-0.0604,-0.0805,-0.094,-0.1478,-0.1612,-0.1813,-0.2484,-0.2823,-0.3107,-0.3328,-0.2739,-0.255,0.0,0.0,0.0,0.0,0.0,0.0,0.0,0.0,0.0,0.0,0.0,-0.4897,0.0,0.0,0.0,0.0,0.0,0.0,-0.9595,0.0,-0.9762,-0.9919,-0.9983,-0.9862,-0.9484,-0.9612,-0.9612,-0.9612,-0.9798,-1.0053,-1.0308,-1.0434,-1.0561,-1.0618,-1.0996,-1.1178,-1.1365,-1.174,-1.1747,-1.1553,-1.1864,-1.1615,-1.1052,-2.1534,0.0,-1.9135,0.0,-1.5877,-1.518,-1.3905,-1.3411,-1.3119,-1.2826,-1.2305,-1.1632,-1.0657,-0.975,-0.8739,-0.7434,-0.6219,-0.5437,-0.5154,-0.4651,-0.3904,-0.2852,-0.1684,0.0,0.0134,0.1143,0.1883,0.2149,0.2686,0.0,0.0,0.0,0.0,0.0,0.4761,0.4827,0.5024,0.5024,0.516,0.5428,0.5428,0.5428,0.5428,0.5428,0.5428,0.5362,0.4821,0.4486,0.422,0.3685,0.2547,0.1411,0.1411,0.1276,0.1076,0.0943,0.0876,0.0876,0.0741,0.0674,0.0606,0.0202,-0.0067,-0.0336,-0.0672,-0.0739,-0.0806,-0.1342,-0.1988,-0.2422,-0.2496,-0.2011,-0.1909,-0.2828,0.0,0.0,0.0,0.0,0.0,0.0,0.0,-0.3799,-0.3959,0.0,0.0,0.0,0.0,0.0,0.0,0.0,0.0,0.0,0.0,0.0,0.0,-0.9022,-0.8958,-0.8894,-0.9151,-0.928,-0.9274,-0.9728,-0.9919,-0.9843,-1.0231,-1.0364,-1.0308,-1.0744,-1.1052,-1.1303,-1.1677,-1.156,-1.124,-1.1428,-1.1178,-1.0744,-2.1014,-2.0096,-1.9121,-1.7609,-1.6636,-1.5728,-1.4966,-1.3905,-1.32,-1.3193,-1.215,-1.1031,-1.0045,-0.9744,-0.875,-0.6786,-0.6259,-0.5803,-0.5225,-0.4354,-0.3599,0.0,0.0,-0.047,-0.0269,0.0739,0.1412,0.1614,0.0,0.0,0.3228,0.0,0.4625,0.4625,0.4625,0.4694,0.4831,0.4831,0.503,0.5428,0.5428,0.5428,0.5428,0.5428,0.5428,0.5428,0.5362,0.4891,0.4287,0.4287,0.3282,0.2079,0.2079,0.1612,0.1076,0.1076,0.1076,0.1076,0.1076,0.1076,0.1076,0.1076,0.0538,0.0,0.0,0.0134,0.0269,0.0269,-0.0449,-0.1057,-0.1088,-0.1068,-0.1415,-0.2698,0.0,0.0,0.0,0.0,0.0,0.0,-0.3874,-0.4187,-0.3469,0.0,0.0,0.0,0.0,0.0,0.0,0.0,0.0,-0.9046,-0.8449,0.0,-0.8484,-0.7967,-0.7642,-0.7451,-0.8285,-0.8737,-0.8737,-0.9466,-0.9402,-0.8737,-0.9512,-0.997,-1.0301,-1.011,-1.0428,-1.1059,-1.0751,-1.0807,-1.1059,-1.087,-1.0807,-1.0807,-2.1404,-2.0666,-1.9803,-1.7959,-1.7139,-1.6298,-1.5108,-1.4466,-1.3897,-1.3266,-1.2526,-1.1552,-1.0265,-0.9286,-0.8286,0.0,-0.6566,-0.5835,0.0,-0.4286,-0.3293,-0.1769,-0.108,-0.0336,0.0404,0.0942,0.1277,0.1614,0.0,0.0,0.0,0.4164,0.4364,0.4364,0.4364,0.4495,0.4694,0.4764,0.496,0.5223,0.5359,0.5428,0.5428,0.5428,0.5428,0.5428,0.5428,0.5226,0.5024,0.5024,0.442,0.3482,0.3015,0.2013,0.1076,0.1076,0.1076,0.1076,0.1076,0.1076,0.1143,0.121,0.1076,0.0941,0.1076,0.0739,0.0403,0.0336,-0.0257,-0.0864,-0.0997,-0.0496,-0.0488,-0.1733,-0.1308,0.0,0.0,0.0,0.0,0.0,0.0,-0.344,0.0,-0.3677,0.0,0.0,0.0,0.0,0.0,0.0,0.0,0.0,-0.8811,0.0,-0.849,-0.8355,-0.7902,-0.7246,-0.7567,-0.7697,-0.7822,-0.835,-0.849,-0.8361,-0.8888,-0.9274,-0.9658,-0.9919,-1.0053,-1.0244,-1.0498,-1.0434,-1.0244,-1.0555,-1.0681,-1.0618,-2.1542,-2.0794,-2.0063,-1.8509,-1.7696,-1.6941,-1.5816,-1.5108,-1.4394,-1.3622,-1.2732,-1.1768,-1.0651,-0.9513,0.0,-0.7334,-0.6791,-0.6077,-0.4927,-0.4219,-0.3061,-0.1386,-0.0748,-0.0135,0.0674,0.0,0.0,0.1614,0.2216,0.2952,0.3887,0.4228,0.4564,0.4897,0.4897,0.4897,0.4894,0.5027,0.509,0.5087,0.5292,0.5428,0.5428,0.5428,0.5428,0.5428,0.5428,0.5428,0.5428,0.5428,0.4891,0.4154,0.3418,0.2414,0.1411,0.1143,0.1143,0.1143,0.1143,0.121,0.1277,0.1412,0.1412,0.148,0.1681,0.1277,0.0871,0.0862,0.045,0.0,-0.0062,0.0373,0.0432,-0.0591,-0.0429,-0.0561,-0.1795,0.0,0.0,0.0,0.0,0.0,0.0,-0.3487,0.0,0.0,0.0,0.0,0.0,0.0,0.0,-0.7759,-0.8094,0.0,-0.7507,-0.7246,-0.6854,-0.6334,-0.6724,-0.6915,-0.7042,-0.7767,-0.7972,-0.7847,-0.8312,-0.8765,-0.921,-0.9396,-0.96,-0.9926,-1.0238,-1.0485,-1.0604,-1.0681,-1.0926,-1.117,-2.1592,-2.0643,0.0,0.0,-1.8385,0.0,-1.7001,-1.5816,-1.4832,-1.4201,-1.2865,-1.1761,-1.1186,-1.0201,-0.8922,-0.7411,0.0,0.0,0.0,-0.4012,-0.29,-0.159,-0.0554,0.0135,0.0472,0.0674,0.1078,0.1614,0.2351,0.3153,0.4015,0.4489,0.509,0.5888,0.5888,0.5756,0.5428,0.5554,0.5418,0.5219,0.5359,0.5425,0.5491,0.5428,0.5428,0.5428,0.5428,0.5428,0.5428,0.5428,0.4957,0.422,0.3482,0.2748,0.2013,0.1344,0.121,0.1277,0.1277,0.1412,0.1614,0.1614,0.1614,0.1681,0.1884,0.1749,0.1668,0.175,0.1543,0.1337,0.1486,0.1384,0.1131,0.0591,0.024,-0.024,-0.0905,0.0,0.0,0.0,0.0,0.0,0.0,-0.3305,-0.3487,0.0,0.0,0.0,0.0,0.0,-0.6093,-0.7107,-0.6465,-0.6075,-0.587,-0.5223,-0.4831,-0.4831,-0.5811,-0.6268,-0.6334,-0.7447,-0.7652,-0.7138,-0.7727,-0.8371,-0.9017,-0.8812,-0.9262,-1.0047,-1.011,-1.085,-1.1764,-1.1045,-1.1413,-1.2089,0.0,0.0,-2.0176,-1.9912,-1.9121,-1.8192,-1.707,-1.6524,-1.5683,-1.4266,-1.3011,-1.1909,-1.1186,-1.0067,-0.8937,-0.7949,-0.7291,-0.6256,-0.4583,-0.3548,-0.239,-0.1033,-0.0484,-0.0138,0.0135,0.0404,0.0876,0.1614,0.2751,0.3551,0.4015,0.4951,0.5554,0.5888,0.5888,0.5826,0.576,0.5557,0.5752,0.6276,0.5488,0.555,0.6075,0.5624,0.5428,0.5428,0.5428,0.5428,0.5428,0.5428,0.5292,0.5027,0.4287,0.3551,0.2681,0.1478,0.1143,0.1143,0.1277,0.1344,0.1412,0.1749,0.1951,0.2087,0.2087,0.2087,0.2003,0.1816,0.1709,0.1543,0.1439,0.1499,0.1428,0.0913,0.0875,0.0651,-0.0058,-0.0351,0.0,0.0,-0.1205,-0.1349,-0.1577,-0.1721,-0.2125,0.0,0.0,0.0,0.0,-0.4791,-0.5245,-0.6199,-0.6531,-0.6465,-0.5939,-0.5741,-0.5282,-0.4628,-0.4891,-0.502,-0.502,-0.5613,-0.6009,-0.6408,-0.7195,-0.8166,-0.9332,-1.0388,-1.0647,-1.0485,-1.1219,-1.1219,-1.073,-1.08,-1.0926,-1.117,-2.3528,-2.1958,-2.0677,-2.0235,-1.9518,-1.8529,-1.7295,-1.6872,-1.6245,-1.4768,-1.36,-1.2572,-1.1768,-1.0732,-0.969,-0.8713,-0.7629,-0.6322,-0.4737,-0.3839,-0.2654,-0.1191,-0.084,-0.0484,0.0,0.0337,0.101,0.1949,0.282,0.3754,0.4749,0.5411,0.6079,0.6609,0.6609,0.6478,0.6284,0.6152,0.6218,0.6408,0.6075,0.6009,0.6145,0.5947,0.5686,0.5428,0.5428,0.5425,0.5488,0.5488,0.5488,0.5355,0.4688,0.4154,0.3618,0.2549,0.1813,0.1408,0.1786,0.178,0.1715,0.1914,0.2067,0.2221,0.2221,0.2199,0.2095,0.1907,0.1808,0.1709,0.1659,0.1788,0.1787,0.1441,0.1396,0.1235,0.0706,0.0297,0.0,-0.0064,-0.0455,-0.0726,-0.0737,-0.1073,-0.1542,-0.2012,0.0,0.0,-0.308,-0.3418,-0.4151,-0.5282,-0.5679,-0.5613,-0.5153,-0.5153,-0.4957,-0.4498,-0.4628,-0.4694,-0.4694,-0.5219,-0.5943,-0.6732,-0.7321,-0.8291,-0.9582,-1.0634,-1.0954,-1.0975,-1.1757,-1.2066,-1.1958,-1.1413,-1.1538,-1.1849,-2.4,-2.2554,-2.1221,-2.0579,-1.9835,-1.8921,-1.7716,-1.7226,-1.6594,-1.548,-1.4258,-1.3164,-1.2418,-1.1471,-1.0519,-0.9397,-0.8012,-0.6612,-0.5206,-0.4363,-0.3222,-0.1606,-0.1361,-0.0909,-0.0136,0.0405,0.1278,0.2551,0.3021,0.402,0.5547,0.5873,0.6535,0.7456,0.7456,0.726,0.6806,0.6876,0.6741,0.647,0.6732,0.6671,0.628,0.64,0.6075,0.5557,0.5428,0.5488,0.555,0.555,0.555,0.5484,0.4891,0.4691,0.4492,0.3954,0.295,0.2071,0.2671,0.2655,0.2463,0.2463,0.2509,0.2487,0.2354,0.2303,0.2239,0.2058,0.1855,0.1831,0.201,0.2224,0.2301,0.2112,0.2099,0.193,0.1598,0.0,0.0746,0.1092,0.0396,0.0,0.0268,-0.0335,-0.0804,-0.0938,-0.134,-0.1475,0.0,-0.1878,-0.2748,-0.3951,-0.4289,-0.4359,-0.4164,-0.403,-0.3964,-0.3961,-0.409,-0.4223,-0.4359,-0.4366,-0.4925,-0.5906,-0.666,-0.7673,-0.9005,-1.0483,-1.1363,-1.1757,-1.2296,-1.3036,-1.3666,-1.2389,-1.2389,-1.2887,-2.5218,-2.3373,-2.1644,-2.1307,-2.0602,-1.9683,-1.8327,-1.7647,-1.695,-1.5974,-1.4314,-1.3011,-1.2345,-1.1099,-1.0067,-0.9397,-0.8012,-0.6714,-0.5598,-0.4234,-0.2979,-0.1827,-0.1632,-0.1245,-0.0488,0.0612,0.1816,0.3092,0.3951,0.468,0.5345,0.6276,0.6942,0.7265,0.7396,0.7456,0.7326,0.6937,0.7265,0.8052,0.7134,0.7256,0.7967,0.6854,0.6334,0.6141,0.5624,0.5425,0.5425,0.5425,0.5425,0.5425,0.5296,0.496,0.4691,0.5153,0.448,0.3678,0.373,0.386,0.3929,0.3929,0.4069,0.3946,0.3218,0.3148,0.3017,0.2242,0.2008,0.2137,0.2718,0.2832,0.2926,0.3051,0.3426,0.355,0.3209,0.0,0.3501,0.3692,0.3203,0.288,0.3074,0.2213,0.1411,0.0804,0.0268,-0.0335,-0.1072,-0.1273,-0.1272,-0.1135,-0.2809,-0.3553,-0.3351,-0.275,-0.2415,-0.228,-0.1672,-0.1738,-0.2209,0.1279,0.2257,0.0938,-0.2235,-0.4047,-0.5115,-1.1464,-1.3811,-1.3528,-1.3674,-1.3502,-1.307,-1.2474,-1.2297,-1.2421,-2.5727,-2.3887,-2.2176,-2.1581,-2.0846,-1.9814,-1.8529,-1.7784,-1.7166,-1.6394,-1.4601,-1.3237,-1.2865,-1.1323,-1.0218,-0.9846,-0.8309,-0.7126,-0.6511,-0.4737,-0.3398,-0.2534,-0.2152,-0.123,0.0274,0.1151,0.2285,0.3627,0.4154,0.4882,0.5807,0.6346,0.6749,0.7073,0.7265,0.733,0.733,0.7199,0.7461,0.7922,0.7722,0.7787,0.7907,0.7642,0.7051,0.6334,0.6075,0.5749,0.5554,0.5624,0.5693,0.569,0.5818,0.5686,0.547,0.5715,0.5165,0.4446,0.4186,0.4189,0.4254,0.4381,0.4429,0.4392,0.3999,0.4011,0.3959,0.3456,0.3345,0.3464,0.3653,0.3865,0.388,0.3697,0.4012,0.0,0.0,0.4284,0.4507,0.5104,0.4478,0.4146,0.4408,0.3682,0.3017,0.2676,0.2272,0.1938,0.1801,0.1136,0.1001,0.1462,-0.0533,-0.1536,-0.1334,-0.1001,-0.0734,-0.0601,0.0332,0.1047,0.1671,0.4479,0.5632,0.5304,0.3739,0.056,-0.3786,-0.7608,-1.1206,-1.4273,-1.4715,-1.4647,-1.4213,-1.3614,-1.3381,-1.326,-2.6094,-2.457,-2.3002,-2.2089,-2.1112,-2.0008,-1.8777,-1.7842,-1.7133,-1.6802,-1.5029,-1.36,-1.3237,-1.1704,-1.0444,-0.9986,-0.8415,-0.7267,-0.6927,-0.5002,-0.3577,-0.2903,-0.2072,-0.0785,0.0891,0.1692,0.2755,0.4095,0.4356,0.5017,0.6079,0.6284,0.6552,0.6815,0.7007,0.7138,0.7204,0.7461,0.7591,0.7787,0.8376,0.8376,0.7977,0.8361,0.7837,0.6854,0.6662,0.64,0.6009,0.6214,0.628,0.6346,0.6346,0.6342,0.6371,0.601,0.5642,0.5262,0.4845,0.4727,0.4791,0.4977,0.5058,0.5038,0.4833,0.4839,0.4843,0.4427,0.4442,0.4511,0.4581,0.4735,0.4798,0.4529,0.0,0.0,0.0,0.5222,0.5476,0.6233,0.5602,0.5203,0.5474,0.4809,0.4348,0.4348,0.4013,0.4008,0.4408,0.3476,0.3203,0.3786,0.1795,0.0865,0.1061,0.1261,0.1524,0.1917,0.2887,0.4182,0.569,0.7828,0.9131,0.967,0.9281,0.5813,0.0216,-0.3403,-0.7914,-1.2738,-1.482,-1.5546,-1.5294,-1.4638,-1.4332,-1.4154,-2.6759,-2.5632,-2.4439,-2.3119,-2.1777,-2.0572,-1.9661,-1.7989,-1.6949,-1.7326,-1.5666,-1.4171,-1.331,-1.2031,-1.0676,-0.9205,-0.7917,-0.684,-0.6069,-0.4219,-0.2896,-0.2268,-0.0598,0.0363,0.0434,0.1859,0.3153,0.4287,0.4821,0.5219,0.5683,0.6152,0.642,0.642,0.6749,0.7012,0.7204,0.7531,0.7992,0.8447,0.8829,0.9151,0.9285,0.8689,0.8425,0.8226,0.7582,0.7321,0.7256,0.7256,0.7386,0.7447,0.6868,0.6863,0.695,0.6137,0.6089,0.6316,0.6221,0.6264,0.6264,0.6457,0.6601,0.6498,0.5672,0.557,0.5332,0.4415,0.4192,0.4394,0.5304,0.5304,0.5311,0.5753,0.0,0.0,0.6322,0.7059,0.7651,0.7567,0.7064,0.6732,0.6745,0.5811,0.5276,0.5481,0.5014,0.4749,0.4746,0.468,0.4942,0.5668,0.3911,0.3105,0.3423,0.4098,0.5009,0.6085,0.6857,0.7739,0.8888,1.2995,1.5184,1.5615,1.2833,1.1704,1.0859,-0.1138,-0.6343,-0.7387,-1.3178,-1.541,-1.5352,-1.4706,-1.4469,-1.4282,-2.7333,-2.6,-2.4567,-2.3238,-2.2262,-2.1257,-2.0074,-1.8568,-1.7591,-1.7755,-1.5939,-1.4237,-1.3256,-1.2294,-1.0991,-0.9099,-0.7982,-0.7053,-0.615,-0.4315,-0.2587,-0.1275,-0.0221,0.0574,0.111,0.2309,0.3288,0.4092,0.4625,0.5093,0.5491,0.5752,0.6017,0.628,0.6482,0.6745,0.7012,0.7269,0.7727,0.8247,0.8571,0.8894,0.9215,0.9151,0.8888,0.849,0.8166,0.7777,0.7451,0.7707,0.7832,0.7897,0.7842,0.7742,0.7555,0.6975,0.6831,0.6876,0.6759,0.6683,0.6876,0.7456,0.7652,0.7688,0.7558,0.74,0.7062,0.6325,0.6141,0.6082,0.6143,0.6406,0.6459,0.6151,0.0,0.7135,0.7328,0.7636,0.7952,0.8146,0.7857,0.7591,0.7596,0.7129,0.6929,0.7186,0.7111,0.7107,0.7233,0.7558,0.8001,0.8553,0.8196,0.7663,0.6823,0.7104,0.8032,0.9587,1.0534,1.1916,1.3816,1.6602,1.8688,2.0127,1.9436,1.7148,1.351,0.8571,0.4108,0.0154,-0.1954,-0.2736,-0.2579,-0.213,-0.4446,-0.7799,-2.7917,-2.6453,-2.4894,-2.3871,-2.2571,-2.1365,-2.0419,-1.8643,-1.7478,-1.7615,-1.5925,-1.4258,-1.3132,-1.215,-1.0814,-0.8722,-0.7649,-0.6676,-0.5868,-0.3986,-0.2305,-0.0959,0.0,0.0714,0.1228,0.2294,0.3157,0.3825,0.4625,0.5156,0.562,0.6075,0.6338,0.6404,0.6802,0.6937,0.6876,0.7396,0.7782,0.8112,0.8506,0.8829,0.9151,0.942,0.9215,0.8818,0.8818,0.8495,0.8107,0.8361,0.8549,0.8603,0.8531,0.8278,0.7926,0.7762,0.7638,0.7531,0.7639,0.7603,0.7634,0.8086,0.8172,0.8318,0.8758,0.8685,0.837,0.7863,0.7725,0.7623,0.7399,0.7661,0.7717,0.7274,0.7582,0.7975,0.8164,0.8337,0.8543,0.8843,0.863,0.8495,0.8619,0.8306,0.8366,0.8924,0.8988,0.9175,0.9539,0.9818,1.0305,1.1057,1.1628,1.166,1.1102,1.0519,1.1048,1.2745,1.3667,1.5259,1.7588,1.8985,2.0695,2.2575,2.3333,2.1399,1.7596,1.5572,1.1986,0.7667,0.5779,0.5116,0.526,0.5596,0.2934,-0.1109,-2.8591,-2.7078,-2.5645,-2.5204,-2.2691,-2.0684,-2.0612,-1.8123,-1.6394,-1.6829,-1.5735,-1.4362,-1.2885,-1.1567,-0.9965,-0.7967,-0.6565,-0.5504,-0.4937,-0.3052,-0.1912,-0.1583,0.0148,0.0864,0.042,0.1703,0.2751,0.3487,0.468,0.5543,0.6141,0.7186,0.7447,0.6924,0.7842,0.7652,0.6802,0.7972,0.8361,0.8231,0.8818,0.9215,0.9484,0.9484,0.9484,0.9484,0.9484,0.9484,0.9484,0.9484,0.9734,0.9806,0.8912,0.8221,0.7931,0.8529,0.8522,0.8431,0.9109,0.9125,0.8871,0.8366,0.8231,0.8425,0.9045,0.923,0.9077,0.8708,0.8602,0.8769,0.9218,0.9101,0.8991,0.9274,0.9516,0.9537,0.902,0.9443,0.9784,0.9806,0.9646,0.9646,0.9958,0.939,0.9506,1.06,1.0299,1.0474,1.1443,1.1238,1.1596,1.2877,1.367,1.4773,1.6381,1.4412,1.4137,1.5551,1.6156,1.7499,1.9517,2.0092,2.1137,2.2639,2.346,2.4318,2.4595,1.814,1.5455,1.4791,0.8092,0.546,0.5505,0.5773,0.5823,0.4956,-2.9225,-2.8033,-2.6709,-2.5466,-2.3826,-2.2309,-2.1128,-1.9051,-1.7519,-1.7254,-1.5854,-1.4269,-1.2633,-1.171,-1.0239,-0.7715,-0.6344,-0.468,-0.2547,-0.2305,-0.1593,-0.0359,0.0498,0.091,0.0886,0.1822,0.2686,0.3487,0.4483,0.5408,0.6334,0.6859,0.7316,0.7702,0.7967,0.8091,0.8156,0.8608,0.9064,0.9326,0.9332,0.953,0.9798,0.9606,0.9484,0.9484,0.9484,0.9484,0.9548,0.9798,0.9919,0.9933,0.9716,0.9758,0.9835,0.9426,0.9439,0.9494,0.947,0.9325,0.9277,0.9691,0.9894,1.0127,1.0579,1.0449,1.0159,0.9822,0.9576,0.9411,0.9405,0.9633,0.9854,0.9726,0.9862,1.0108,1.047,1.0654,1.0887,1.1112,1.1176,1.1301,1.1363,1.1238,1.1363,1.1912,1.2448,1.2987,1.3536,1.3826,1.4566,1.5646,1.592,1.6706,1.804,1.6764,1.6972,1.8572,1.8979,1.9876,2.1205,2.1554,2.2243,2.3259,2.383,2.4455,2.4973,2.3173,2.2424,2.2301,2.0691,2.007,2.0169,2.0567,1.7866,1.3707,-2.9383,-2.7968,-2.6436,-2.5308,-2.3784,-2.2286,-2.0986,-1.903,-1.749,-1.703,-1.5548,-1.3912,-1.2348,-1.1307,-0.982,-0.7578,-0.588,-0.3908,-0.1447,-0.1679,-0.1261,0.0138,0.0483,0.0822,0.1076,0.1614,0.2418,0.3487,0.4478,0.5467,0.6597,0.7256,0.7712,0.8096,0.8415,0.8549,0.8549,0.9058,0.9448,0.9709,0.9709,0.9964,1.0301,0.9926,0.9798,0.9798,0.9548,0.9548,0.9676,0.9862,0.9914,1.0,1.0252,1.0458,1.0526,1.0093,1.0159,1.0292,1.0174,1.0279,1.0547,1.0947,1.0912,1.0913,1.1487,1.1442,1.1158,1.0894,1.0617,1.0415,1.0401,1.059,1.0725,1.0639,1.0708,1.0934,1.1406,1.1477,1.171,1.2324,1.2464,1.2594,1.2967,1.2724,1.283,1.3477,1.4615,1.5436,1.5668,1.5971,1.6626,1.7664,1.7966,1.8567,1.9492,1.9343,1.9623,2.0354,2.0726,2.1431,2.2285,2.2786,2.3303,2.3846,2.4561,2.5082,2.5492,2.5738,2.5868,2.5977,2.6314,2.6504,2.6657,2.6957,2.4611,2.0892,-2.9123,-2.7261,-2.5497,-2.493,-2.3123,-2.1433,-2.0436,-1.8469,-1.6877,-1.6368,-1.505,-1.3571,-1.2197,-1.0468,-0.889,-0.7577,-0.5348,-0.3222,-0.1344,-0.1277,-0.0942,-0.0067,0.027,0.0606,0.1143,0.121,0.2082,0.362,0.4602,0.5723,0.699,0.7987,0.8376,0.8361,0.9134,0.9069,0.8431,0.9454,0.9773,0.9646,0.9958,1.0408,1.0807,1.0428,1.0301,1.0244,0.9676,0.9676,0.9868,0.9868,0.9944,1.0085,1.0474,1.056,1.0457,1.0604,1.0792,1.0979,1.1137,1.1791,1.2352,1.2081,1.1586,1.1267,1.1988,1.2127,1.2097,1.1952,1.1689,1.151,1.1906,1.1746,1.1676,1.1944,1.1989,1.201,1.2153,1.2161,1.2567,1.357,1.358,1.3879,1.4688,1.4246,1.4378,1.5399,1.6861,1.777,1.7829,1.7836,1.8242,1.9153,1.98,2.0369,2.0845,2.1827,2.1899,2.1145,2.1749,2.2377,2.3024,2.3779,2.4184,2.4358,2.546,2.599,2.6082,2.6434,2.6572,2.6657,2.6674,2.6791,2.6975,2.6954,2.7051,2.6264,-2.8688,-2.7655,-2.6505,-2.5186,-2.3822,-2.2326,-2.0594,-1.9139,-1.7787,-1.6467,-1.5517,-1.4273,-1.2451,-1.0705,-0.9064,-0.7767,-0.5411,-0.3023,-0.0808,-0.1076,-0.0942,-0.0067,0.0673,0.121,0.1476,0.1276,0.228,0.455,0.461,0.5599,0.7391,0.7852,0.8436,0.9075,0.939,0.9652,0.9849,1.0358,1.0674,1.0737,1.08,1.0989,1.1115,1.0555,1.0301,1.0244,0.9676,0.9798,1.0244,1.0491,1.0822,1.1085,1.085,1.0829,1.0912,1.0781,1.1413,1.2103,1.2075,1.2721,1.3485,1.3733,1.3751,1.3459,1.2789,1.256,1.2597,1.3047,1.268,1.2431,1.2777,1.2897,1.3063,1.3327,1.3392,1.365,1.4225,1.4393,1.46,1.5177,1.5786,1.6337,1.6722,1.7114,1.7564,1.8135,1.8899,1.9494,1.9775,2.0341,2.086,2.1383,2.1622,2.2118,2.2801,2.3039,2.2815,2.2179,2.2725,2.3275,2.3852,2.412,2.4623,2.5259,2.5742,2.6227,2.6657,2.6875,2.7006,2.7034,2.6575,2.6835,2.7396,2.6871,2.7128,2.7438,-2.8991,-2.7635,-2.6118,-2.4655,-2.3652,-2.2391,-2.0473,-1.9239,-1.808,-1.6765,-1.5477,-1.4127,-1.2512,-1.053,-0.8361,-0.5924,-0.4483,-0.2887,-0.0809,-0.0876,-0.0808,-0.027,0.0269,0.0941,0.1811,0.1543,0.2412,0.4688,0.4743,0.554,0.7003,0.7396,0.8047,0.8818,0.9075,0.953,1.0174,1.0428,1.0744,1.1122,1.1185,1.1373,1.1622,1.1122,1.0933,1.0989,1.0598,1.0787,1.1288,1.1531,1.1849,1.2097,1.1849,1.1805,1.1797,1.1561,1.1985,1.2431,1.2527,1.3314,1.4234,1.4359,1.4768,1.4904,1.3974,1.3855,1.3957,1.4314,1.3889,1.371,1.4241,1.4122,1.4028,1.4305,1.4597,1.4855,1.5115,1.5573,1.6079,1.6451,1.7202,1.7895,1.8389,1.9052,1.9609,1.9788,2.0713,2.1178,2.1102,2.1777,2.2239,2.2392,2.256,2.2831,2.3216,2.3507,2.355,2.3405,2.3779,2.4241,2.4768,2.5044,2.5389,2.5799,2.6175,2.6505,2.6825,2.6923,2.7021,2.708,2.6459,2.677,2.7452,2.6795,2.7169,2.7994,-2.9143,-2.7382,-2.5475,-2.4097,-2.3301,-2.2275,-2.0408,-1.9334,-1.8251,-1.7036,-1.5553,-1.399,-1.2512,-1.0236,-0.7404,-0.3816,-0.3487,-0.2753,-0.0944,-0.0809,-0.0674,-0.0404,-0.0067,0.074,0.2214,0.2146,0.2948,0.4758,0.4945,0.5477,0.635,0.6872,0.7461,0.8107,0.8565,0.9151,0.9919,1.0174,1.0561,1.0996,1.1247,1.1622,1.1996,1.1685,1.1747,1.1856,1.1527,1.1767,1.2285,1.2469,1.2627,1.2775,1.2781,1.267,1.248,1.227,1.2422,1.2685,1.2959,1.3957,1.488,1.4897,1.5545,1.6036,1.5545,1.5352,1.5342,1.5515,1.5104,1.4973,1.5687,1.5392,1.5099,1.5269,1.5728,1.6016,1.581,1.6547,1.728,1.7599,1.8382,1.9153,1.9838,2.0591,2.1081,2.122,2.2289,2.2786,2.2489,2.304,2.326,2.3128,2.3347,2.3434,2.3376,2.3987,2.448,2.476,2.5019,2.5265,2.5556,2.5924,2.6139,2.6193,2.6573,2.6825,2.7004,2.7004,2.7147,2.7265,2.6615,2.6924,2.766,2.7134,2.7522,2.8332,-2.7708,-2.6859,-2.5936,-2.4689,-2.3785,-2.2669,-2.1024,-2.0118,-1.8967,-1.7158,-1.6384,-1.5119,-1.2749,-0.9996,-0.7037,-0.3751,-0.3487,-0.2753,-0.0944,-0.0809,-0.0472,0.0134,0.1074,0.2013,0.2889,0.3756,0.4556,0.5292,0.5017,0.5345,0.6214,0.6609,0.7064,0.7652,0.8231,0.8882,0.9466,1.0047,1.0428,1.0688,1.1115,1.149,1.1802,1.1685,1.1872,1.2135,1.1277,1.1511,1.2279,1.2564,1.2694,1.269,1.2622,1.2463,1.2189,1.2023,1.2636,1.3502,1.3897,1.477,1.5828,1.6826,1.7179,1.7357,1.7623,1.6451,1.5515,1.6327,1.6187,1.5999,1.6352,1.653,1.6726,1.6886,1.7247,1.7583,1.777,1.817,1.8525,1.8691,1.9748,2.0782,2.1575,2.2035,2.2591,2.3404,2.3704,2.4122,2.4792,2.5035,2.5012,2.4697,2.5211,2.5303,2.4839,2.5508,2.6038,2.6318,2.6622,2.6404,2.5684,2.5905,2.6193,2.6556,2.6691,2.7178,2.784,2.784,2.8029,2.826,2.7646,2.7894,2.8633,2.8712,2.8851,2.8887,-2.8294,-2.7439,-2.6335,-2.4877,-2.424,-2.3417,-2.1785,-2.072,-1.9453,-1.7718,-1.6162,-1.4514,-1.2687,-1.0059,-0.7177,-0.4217,-0.3954,-0.3286,-0.1683,-0.1347,-0.0942,-0.0336,0.0403,0.1342,0.2348,0.3222,0.4025,0.4628,0.4957,0.5418,0.5881,0.6346,0.6806,0.733,0.7852,0.8495,0.9338,0.9722,1.0168,1.0624,1.1059,1.1428,1.1809,1.1872,1.212,1.2451,1.2139,1.2404,1.2967,1.3099,1.3249,1.3395,1.3405,1.3241,1.3041,1.3105,1.3367,1.37,1.4226,1.5153,1.6104,1.6905,1.7542,1.8047,1.8329,1.8065,1.7807,1.7863,1.7921,1.7977,1.8218,1.8389,1.8483,1.8334,1.9007,1.9441,1.904,1.9952,2.0811,2.1164,2.1829,2.2503,2.3172,2.349,2.3926,2.4625,2.4784,2.5035,2.5433,2.5619,2.5709,2.5598,2.5928,2.5999,2.5835,2.6317,2.6657,2.6822,2.7238,2.7238,2.6871,2.7031,2.722,2.7391,2.7482,2.7765,2.8156,2.8156,2.8299,2.8435,2.7803,2.783,2.8329,2.8968,2.9203,2.9196]}]]